<?xml version="1.0" encoding="UTF-8" standalone="no" ?>
<gpx xmlns="http://www.topografix.com/GPX/1/1" xmlns:xsi="http://www.w3.org/2001/XMLSchema-instance" xsi:schemaLocation="http://www.topografix.com/GPX/1/1 http://www.topografix.com/GPX/1/1/gpx.xsd" version="1.1" creator="VisuGPX - https://www.visugpx.com">
  <metadata>
    <name>VTT du vendredi 7 septembre 2018 (Chris et moi)</name>
    <desc><![CDATA[Après avoir grimpé la rue du cimetière (dur) on s'est envoyé la côte de Montcey (dur dur) puis celle de l'aérodrome (pas dur) avant de redescendre tranquillement à Coulevon.
Beau temps et terrain sec évidemment.]]></desc>
  </metadata>
  <wpt lat="47.64435" lon="6.18343">
    <ele>225.54</ele>
    <name><![CDATA[0000027]]></name>
  </wpt>
  <wpt lat="47.64435" lon="6.18343">
    <ele>225.54</ele>
    <name><![CDATA[0000027]]></name>
  </wpt>
  <wpt lat="47.64441" lon="6.18313">
    <ele>243.6</ele>
    <name><![CDATA[0000029]]></name>
  </wpt>
  <trk>
    <name><![CDATA[2018-09-07 15:28]]></name>
    <trkseg>
      <trkpt lat="47.64435" lon="6.18343">
        <ele>225.54</ele>
        <time>2018-09-07T13:28:49Z</time>
      </trkpt>
      <trkpt lat="47.6444" lon="6.18334">
        <ele>233.26</ele>
        <time>2018-09-07T13:28:52Z</time>
      </trkpt>
      <trkpt lat="47.64443" lon="6.18326">
        <ele>235.43</ele>
        <time>2018-09-07T13:28:54Z</time>
      </trkpt>
      <trkpt lat="47.64442" lon="6.18319">
        <ele>234.22</ele>
        <time>2018-09-07T13:29:03Z</time>
      </trkpt>
      <trkpt lat="47.64442" lon="6.18312">
        <ele>232.67</ele>
        <time>2018-09-07T13:29:07Z</time>
      </trkpt>
      <trkpt lat="47.64442" lon="6.18304">
        <ele>233.35</ele>
        <time>2018-09-07T13:29:10Z</time>
      </trkpt>
      <trkpt lat="47.64438" lon="6.18298">
        <ele>233.52</ele>
        <time>2018-09-07T13:29:13Z</time>
      </trkpt>
      <trkpt lat="47.64434" lon="6.18302">
        <ele>233.27</ele>
        <time>2018-09-07T13:29:16Z</time>
      </trkpt>
      <trkpt lat="47.64438" lon="6.18299">
        <ele>232.1</ele>
        <time>2018-09-07T13:29:22Z</time>
      </trkpt>
      <trkpt lat="47.64443" lon="6.18296">
        <ele>232.15</ele>
        <time>2018-09-07T13:29:25Z</time>
      </trkpt>
      <trkpt lat="47.64447" lon="6.18292">
        <ele>232.17</ele>
        <time>2018-09-07T13:29:27Z</time>
      </trkpt>
      <trkpt lat="47.64452" lon="6.18287">
        <ele>232.18</ele>
        <time>2018-09-07T13:29:30Z</time>
      </trkpt>
      <trkpt lat="47.64455" lon="6.18281">
        <ele>232.17</ele>
        <time>2018-09-07T13:29:33Z</time>
      </trkpt>
      <trkpt lat="47.64459" lon="6.18275">
        <ele>232.15</ele>
        <time>2018-09-07T13:29:36Z</time>
      </trkpt>
      <trkpt lat="47.64462" lon="6.1827">
        <ele>232.13</ele>
        <time>2018-09-07T13:29:38Z</time>
      </trkpt>
      <trkpt lat="47.64467" lon="6.18264">
        <ele>232.11</ele>
        <time>2018-09-07T13:29:40Z</time>
      </trkpt>
      <trkpt lat="47.64472" lon="6.18257">
        <ele>231.86</ele>
        <time>2018-09-07T13:29:42Z</time>
      </trkpt>
      <trkpt lat="47.64477" lon="6.18247">
        <ele>231.62</ele>
        <time>2018-09-07T13:29:44Z</time>
      </trkpt>
      <trkpt lat="47.64483" lon="6.18237">
        <ele>231.48</ele>
        <time>2018-09-07T13:29:46Z</time>
      </trkpt>
      <trkpt lat="47.64487" lon="6.18227">
        <ele>231.45</ele>
        <time>2018-09-07T13:29:48Z</time>
      </trkpt>
      <trkpt lat="47.6449" lon="6.18217">
        <ele>231.43</ele>
        <time>2018-09-07T13:29:50Z</time>
      </trkpt>
      <trkpt lat="47.64493" lon="6.18207">
        <ele>231.33</ele>
        <time>2018-09-07T13:29:52Z</time>
      </trkpt>
      <trkpt lat="47.64497" lon="6.18196">
        <ele>231.14</ele>
        <time>2018-09-07T13:29:54Z</time>
      </trkpt>
      <trkpt lat="47.64499" lon="6.18174">
        <ele>230.96</ele>
        <time>2018-09-07T13:29:56Z</time>
      </trkpt>
      <trkpt lat="47.64497" lon="6.18168">
        <ele>230.88</ele>
        <time>2018-09-07T13:29:57Z</time>
      </trkpt>
      <trkpt lat="47.64496" lon="6.18161">
        <ele>230.8</ele>
        <time>2018-09-07T13:29:58Z</time>
      </trkpt>
      <trkpt lat="47.64492" lon="6.1815">
        <ele>230.66</ele>
        <time>2018-09-07T13:30:00Z</time>
      </trkpt>
      <trkpt lat="47.6449" lon="6.18138">
        <ele>230.54</ele>
        <time>2018-09-07T13:30:02Z</time>
      </trkpt>
      <trkpt lat="47.64491" lon="6.18127">
        <ele>230.44</ele>
        <time>2018-09-07T13:30:04Z</time>
      </trkpt>
      <trkpt lat="47.64492" lon="6.18116">
        <ele>230.39</ele>
        <time>2018-09-07T13:30:06Z</time>
      </trkpt>
      <trkpt lat="47.64495" lon="6.18106">
        <ele>230.37</ele>
        <time>2018-09-07T13:30:08Z</time>
      </trkpt>
      <trkpt lat="47.64497" lon="6.18096">
        <ele>230.36</ele>
        <time>2018-09-07T13:30:10Z</time>
      </trkpt>
      <trkpt lat="47.645" lon="6.18086">
        <ele>230.35</ele>
        <time>2018-09-07T13:30:12Z</time>
      </trkpt>
      <trkpt lat="47.64502" lon="6.18077">
        <ele>230.33</ele>
        <time>2018-09-07T13:30:14Z</time>
      </trkpt>
      <trkpt lat="47.64505" lon="6.18068">
        <ele>230.31</ele>
        <time>2018-09-07T13:30:16Z</time>
      </trkpt>
      <trkpt lat="47.64507" lon="6.18059">
        <ele>230.28</ele>
        <time>2018-09-07T13:30:19Z</time>
      </trkpt>
      <trkpt lat="47.6451" lon="6.18051">
        <ele>230.25</ele>
        <time>2018-09-07T13:30:21Z</time>
      </trkpt>
      <trkpt lat="47.64515" lon="6.18043">
        <ele>230.22</ele>
        <time>2018-09-07T13:30:23Z</time>
      </trkpt>
      <trkpt lat="47.6452" lon="6.18037">
        <ele>230.11</ele>
        <time>2018-09-07T13:30:25Z</time>
      </trkpt>
      <trkpt lat="47.64527" lon="6.18033">
        <ele>230.07</ele>
        <time>2018-09-07T13:30:27Z</time>
      </trkpt>
      <trkpt lat="47.64533" lon="6.18034">
        <ele>230.05</ele>
        <time>2018-09-07T13:30:29Z</time>
      </trkpt>
      <trkpt lat="47.64538" lon="6.18038">
        <ele>230.02</ele>
        <time>2018-09-07T13:30:31Z</time>
      </trkpt>
      <trkpt lat="47.64541" lon="6.18044">
        <ele>229.98</ele>
        <time>2018-09-07T13:30:34Z</time>
      </trkpt>
      <trkpt lat="47.64542" lon="6.18051">
        <ele>229.95</ele>
        <time>2018-09-07T13:30:37Z</time>
      </trkpt>
      <trkpt lat="47.64542" lon="6.18059">
        <ele>229.89</ele>
        <time>2018-09-07T13:30:42Z</time>
      </trkpt>
      <trkpt lat="47.64543" lon="6.18068">
        <ele>229.84</ele>
        <time>2018-09-07T13:30:47Z</time>
      </trkpt>
      <trkpt lat="47.64544" lon="6.18076">
        <ele>229.81</ele>
        <time>2018-09-07T13:30:52Z</time>
      </trkpt>
      <trkpt lat="47.64545" lon="6.18084">
        <ele>229.79</ele>
        <time>2018-09-07T13:30:57Z</time>
      </trkpt>
      <trkpt lat="47.64546" lon="6.18091">
        <ele>229.79</ele>
        <time>2018-09-07T13:31:01Z</time>
      </trkpt>
      <trkpt lat="47.64547" lon="6.18099">
        <ele>229.8</ele>
        <time>2018-09-07T13:31:06Z</time>
      </trkpt>
      <trkpt lat="47.64552" lon="6.18101">
        <ele>229.83</ele>
        <time>2018-09-07T13:31:11Z</time>
      </trkpt>
      <trkpt lat="47.64556" lon="6.18097">
        <ele>229.87</ele>
        <time>2018-09-07T13:31:15Z</time>
      </trkpt>
      <trkpt lat="47.6456" lon="6.18092">
        <ele>229.92</ele>
        <time>2018-09-07T13:31:20Z</time>
      </trkpt>
      <trkpt lat="47.64563" lon="6.18087">
        <ele>229.97</ele>
        <time>2018-09-07T13:31:25Z</time>
      </trkpt>
      <trkpt lat="47.64566" lon="6.18081">
        <ele>230.02</ele>
        <time>2018-09-07T13:31:30Z</time>
      </trkpt>
      <trkpt lat="47.64568" lon="6.18073">
        <ele>230.08</ele>
        <time>2018-09-07T13:31:35Z</time>
      </trkpt>
      <trkpt lat="47.64571" lon="6.18067">
        <ele>230.16</ele>
        <time>2018-09-07T13:31:40Z</time>
      </trkpt>
      <trkpt lat="47.64574" lon="6.18061">
        <ele>230.24</ele>
        <time>2018-09-07T13:31:45Z</time>
      </trkpt>
      <trkpt lat="47.64578" lon="6.18055">
        <ele>230.34</ele>
        <time>2018-09-07T13:31:50Z</time>
      </trkpt>
      <trkpt lat="47.64581" lon="6.18048">
        <ele>230.47</ele>
        <time>2018-09-07T13:31:56Z</time>
      </trkpt>
      <trkpt lat="47.64584" lon="6.18043">
        <ele>230.57</ele>
        <time>2018-09-07T13:32:00Z</time>
      </trkpt>
      <trkpt lat="47.64587" lon="6.18037">
        <ele>230.72</ele>
        <time>2018-09-07T13:32:05Z</time>
      </trkpt>
      <trkpt lat="47.6459" lon="6.18032">
        <ele>230.88</ele>
        <time>2018-09-07T13:32:10Z</time>
      </trkpt>
      <trkpt lat="47.64592" lon="6.18024">
        <ele>231.06</ele>
        <time>2018-09-07T13:32:15Z</time>
      </trkpt>
      <trkpt lat="47.64596" lon="6.18021">
        <ele>231.27</ele>
        <time>2018-09-07T13:32:20Z</time>
      </trkpt>
      <trkpt lat="47.64602" lon="6.18019">
        <ele>231.44</ele>
        <time>2018-09-07T13:32:24Z</time>
      </trkpt>
      <trkpt lat="47.64607" lon="6.18018">
        <ele>231.68</ele>
        <time>2018-09-07T13:32:29Z</time>
      </trkpt>
      <trkpt lat="47.64611" lon="6.18015">
        <ele>231.93</ele>
        <time>2018-09-07T13:32:34Z</time>
      </trkpt>
      <trkpt lat="47.64615" lon="6.18011">
        <ele>232.14</ele>
        <time>2018-09-07T13:32:38Z</time>
      </trkpt>
      <trkpt lat="47.6462" lon="6.18012">
        <ele>232.41</ele>
        <time>2018-09-07T13:32:43Z</time>
      </trkpt>
      <trkpt lat="47.64624" lon="6.18016">
        <ele>232.69</ele>
        <time>2018-09-07T13:32:48Z</time>
      </trkpt>
      <trkpt lat="47.64629" lon="6.18018">
        <ele>232.97</ele>
        <time>2018-09-07T13:32:53Z</time>
      </trkpt>
      <trkpt lat="47.64633" lon="6.18024">
        <ele>233.24</ele>
        <time>2018-09-07T13:32:58Z</time>
      </trkpt>
      <trkpt lat="47.64635" lon="6.18031">
        <ele>233.48</ele>
        <time>2018-09-07T13:33:03Z</time>
      </trkpt>
      <trkpt lat="47.6464" lon="6.18033">
        <ele>233.71</ele>
        <time>2018-09-07T13:33:08Z</time>
      </trkpt>
      <trkpt lat="47.64645" lon="6.18031">
        <ele>233.84</ele>
        <time>2018-09-07T13:33:11Z</time>
      </trkpt>
      <trkpt lat="47.6465" lon="6.18033">
        <ele>233.97</ele>
        <time>2018-09-07T13:33:14Z</time>
      </trkpt>
      <trkpt lat="47.64655" lon="6.18037">
        <ele>234.13</ele>
        <time>2018-09-07T13:33:18Z</time>
      </trkpt>
      <trkpt lat="47.6466" lon="6.18043">
        <ele>234.29</ele>
        <time>2018-09-07T13:33:22Z</time>
      </trkpt>
      <trkpt lat="47.64663" lon="6.1805">
        <ele>234.5</ele>
        <time>2018-09-07T13:33:27Z</time>
      </trkpt>
      <trkpt lat="47.64666" lon="6.18055">
        <ele>234.65</ele>
        <time>2018-09-07T13:33:30Z</time>
      </trkpt>
      <trkpt lat="47.64671" lon="6.18059">
        <ele>234.8</ele>
        <time>2018-09-07T13:33:33Z</time>
      </trkpt>
      <trkpt lat="47.64675" lon="6.18063">
        <ele>234.97</ele>
        <time>2018-09-07T13:33:36Z</time>
      </trkpt>
      <trkpt lat="47.64679" lon="6.18067">
        <ele>235.19</ele>
        <time>2018-09-07T13:33:40Z</time>
      </trkpt>
      <trkpt lat="47.64683" lon="6.18072">
        <ele>235.36</ele>
        <time>2018-09-07T13:33:43Z</time>
      </trkpt>
      <trkpt lat="47.64688" lon="6.18075">
        <ele>235.59</ele>
        <time>2018-09-07T13:33:47Z</time>
      </trkpt>
      <trkpt lat="47.64692" lon="6.18078">
        <ele>235.83</ele>
        <time>2018-09-07T13:33:51Z</time>
      </trkpt>
      <trkpt lat="47.64695" lon="6.18083">
        <ele>236.06</ele>
        <time>2018-09-07T13:33:55Z</time>
      </trkpt>
      <trkpt lat="47.64698" lon="6.18089">
        <ele>236.3</ele>
        <time>2018-09-07T13:33:59Z</time>
      </trkpt>
      <trkpt lat="47.64699" lon="6.18083">
        <ele>236.77</ele>
        <time>2018-09-07T13:34:07Z</time>
      </trkpt>
      <trkpt lat="47.64697" lon="6.18077">
        <ele>236.94</ele>
        <time>2018-09-07T13:34:10Z</time>
      </trkpt>
      <trkpt lat="47.64691" lon="6.18073">
        <ele>237.11</ele>
        <time>2018-09-07T13:34:13Z</time>
      </trkpt>
      <trkpt lat="47.6469" lon="6.18081">
        <ele>237.46</ele>
        <time>2018-09-07T13:34:19Z</time>
      </trkpt>
      <trkpt lat="47.64694" lon="6.18087">
        <ele>237.69</ele>
        <time>2018-09-07T13:34:23Z</time>
      </trkpt>
      <trkpt lat="47.64698" lon="6.18092">
        <ele>237.85</ele>
        <time>2018-09-07T13:34:26Z</time>
      </trkpt>
      <trkpt lat="47.64702" lon="6.18099">
        <ele>238.02</ele>
        <time>2018-09-07T13:34:29Z</time>
      </trkpt>
      <trkpt lat="47.64705" lon="6.18104">
        <ele>238.13</ele>
        <time>2018-09-07T13:34:31Z</time>
      </trkpt>
      <trkpt lat="47.64709" lon="6.1811">
        <ele>238.24</ele>
        <time>2018-09-07T13:34:33Z</time>
      </trkpt>
      <trkpt lat="47.64712" lon="6.18115">
        <ele>238.35</ele>
        <time>2018-09-07T13:34:35Z</time>
      </trkpt>
      <trkpt lat="47.64716" lon="6.18121">
        <ele>238.46</ele>
        <time>2018-09-07T13:34:37Z</time>
      </trkpt>
      <trkpt lat="47.64719" lon="6.18126">
        <ele>238.57</ele>
        <time>2018-09-07T13:34:39Z</time>
      </trkpt>
      <trkpt lat="47.64723" lon="6.18131">
        <ele>238.68</ele>
        <time>2018-09-07T13:34:41Z</time>
      </trkpt>
      <trkpt lat="47.64728" lon="6.18137">
        <ele>238.79</ele>
        <time>2018-09-07T13:34:43Z</time>
      </trkpt>
      <trkpt lat="47.64732" lon="6.18145">
        <ele>239.23</ele>
        <time>2018-09-07T13:34:45Z</time>
      </trkpt>
      <trkpt lat="47.64737" lon="6.18152">
        <ele>240.03</ele>
        <time>2018-09-07T13:34:47Z</time>
      </trkpt>
      <trkpt lat="47.64743" lon="6.18161">
        <ele>240.62</ele>
        <time>2018-09-07T13:34:49Z</time>
      </trkpt>
      <trkpt lat="47.64748" lon="6.18169">
        <ele>241.03</ele>
        <time>2018-09-07T13:34:51Z</time>
      </trkpt>
      <trkpt lat="47.64754" lon="6.18177">
        <ele>241.32</ele>
        <time>2018-09-07T13:34:53Z</time>
      </trkpt>
      <trkpt lat="47.6476" lon="6.18185">
        <ele>241.54</ele>
        <time>2018-09-07T13:34:55Z</time>
      </trkpt>
      <trkpt lat="47.6477" lon="6.18196">
        <ele>241.62</ele>
        <time>2018-09-07T13:34:56Z</time>
      </trkpt>
      <trkpt lat="47.64774" lon="6.182">
        <ele>241.7</ele>
        <time>2018-09-07T13:34:57Z</time>
      </trkpt>
      <trkpt lat="47.64778" lon="6.18205">
        <ele>241.77</ele>
        <time>2018-09-07T13:34:58Z</time>
      </trkpt>
      <trkpt lat="47.64782" lon="6.18209">
        <ele>241.83</ele>
        <time>2018-09-07T13:34:59Z</time>
      </trkpt>
      <trkpt lat="47.64786" lon="6.18213">
        <ele>241.88</ele>
        <time>2018-09-07T13:35:00Z</time>
      </trkpt>
      <trkpt lat="47.64791" lon="6.18217">
        <ele>241.93</ele>
        <time>2018-09-07T13:35:01Z</time>
      </trkpt>
      <trkpt lat="47.64795" lon="6.18221">
        <ele>241.97</ele>
        <time>2018-09-07T13:35:02Z</time>
      </trkpt>
      <trkpt lat="47.64799" lon="6.18225">
        <ele>242</ele>
        <time>2018-09-07T13:35:03Z</time>
      </trkpt>
      <trkpt lat="47.64803" lon="6.18228">
        <ele>242.03</ele>
        <time>2018-09-07T13:35:04Z</time>
      </trkpt>
      <trkpt lat="47.64808" lon="6.18232">
        <ele>242.06</ele>
        <time>2018-09-07T13:35:05Z</time>
      </trkpt>
      <trkpt lat="47.64812" lon="6.18235">
        <ele>242.08</ele>
        <time>2018-09-07T13:35:06Z</time>
      </trkpt>
      <trkpt lat="47.64819" lon="6.1824">
        <ele>242.1</ele>
        <time>2018-09-07T13:35:08Z</time>
      </trkpt>
      <trkpt lat="47.64825" lon="6.18245">
        <ele>242.11</ele>
        <time>2018-09-07T13:35:10Z</time>
      </trkpt>
      <trkpt lat="47.64833" lon="6.18249">
        <ele>242.12</ele>
        <time>2018-09-07T13:35:12Z</time>
      </trkpt>
      <trkpt lat="47.64839" lon="6.18253">
        <ele>242.13</ele>
        <time>2018-09-07T13:35:14Z</time>
      </trkpt>
      <trkpt lat="47.64844" lon="6.18257">
        <ele>242.14</ele>
        <time>2018-09-07T13:35:16Z</time>
      </trkpt>
      <trkpt lat="47.6485" lon="6.18261">
        <ele>242.15</ele>
        <time>2018-09-07T13:35:18Z</time>
      </trkpt>
      <trkpt lat="47.64855" lon="6.18266">
        <ele>242.17</ele>
        <time>2018-09-07T13:35:20Z</time>
      </trkpt>
      <trkpt lat="47.64861" lon="6.1827">
        <ele>242.18</ele>
        <time>2018-09-07T13:35:22Z</time>
      </trkpt>
      <trkpt lat="47.64868" lon="6.18274">
        <ele>242.2</ele>
        <time>2018-09-07T13:35:24Z</time>
      </trkpt>
      <trkpt lat="47.64874" lon="6.18278">
        <ele>242.23</ele>
        <time>2018-09-07T13:35:27Z</time>
      </trkpt>
      <trkpt lat="47.64878" lon="6.18281">
        <ele>242.25</ele>
        <time>2018-09-07T13:35:29Z</time>
      </trkpt>
      <trkpt lat="47.64883" lon="6.18285">
        <ele>242.27</ele>
        <time>2018-09-07T13:35:31Z</time>
      </trkpt>
      <trkpt lat="47.64888" lon="6.18287">
        <ele>242.29</ele>
        <time>2018-09-07T13:35:33Z</time>
      </trkpt>
      <trkpt lat="47.64893" lon="6.1829">
        <ele>242.32</ele>
        <time>2018-09-07T13:35:36Z</time>
      </trkpt>
      <trkpt lat="47.64899" lon="6.18293">
        <ele>242.35</ele>
        <time>2018-09-07T13:35:39Z</time>
      </trkpt>
      <trkpt lat="47.64904" lon="6.18294">
        <ele>242.39</ele>
        <time>2018-09-07T13:35:42Z</time>
      </trkpt>
      <trkpt lat="47.6491" lon="6.18296">
        <ele>242.41</ele>
        <time>2018-09-07T13:35:45Z</time>
      </trkpt>
      <trkpt lat="47.64916" lon="6.18298">
        <ele>242.43</ele>
        <time>2018-09-07T13:35:47Z</time>
      </trkpt>
      <trkpt lat="47.64922" lon="6.18299">
        <ele>242.45</ele>
        <time>2018-09-07T13:35:49Z</time>
      </trkpt>
      <trkpt lat="47.64929" lon="6.18301">
        <ele>242.46</ele>
        <time>2018-09-07T13:35:51Z</time>
      </trkpt>
      <trkpt lat="47.64936" lon="6.18302">
        <ele>242.48</ele>
        <time>2018-09-07T13:35:53Z</time>
      </trkpt>
      <trkpt lat="47.64943" lon="6.18302">
        <ele>242.49</ele>
        <time>2018-09-07T13:35:55Z</time>
      </trkpt>
      <trkpt lat="47.64951" lon="6.18303">
        <ele>242.5</ele>
        <time>2018-09-07T13:35:57Z</time>
      </trkpt>
      <trkpt lat="47.64958" lon="6.18304">
        <ele>242.51</ele>
        <time>2018-09-07T13:35:59Z</time>
      </trkpt>
      <trkpt lat="47.64964" lon="6.18305">
        <ele>242.52</ele>
        <time>2018-09-07T13:36:01Z</time>
      </trkpt>
      <trkpt lat="47.64971" lon="6.18305">
        <ele>242.53</ele>
        <time>2018-09-07T13:36:03Z</time>
      </trkpt>
      <trkpt lat="47.64978" lon="6.18306">
        <ele>242.53</ele>
        <time>2018-09-07T13:36:05Z</time>
      </trkpt>
      <trkpt lat="47.64984" lon="6.18307">
        <ele>242.54</ele>
        <time>2018-09-07T13:36:07Z</time>
      </trkpt>
      <trkpt lat="47.64991" lon="6.18307">
        <ele>242.54</ele>
        <time>2018-09-07T13:36:09Z</time>
      </trkpt>
      <trkpt lat="47.64997" lon="6.18308">
        <ele>242.55</ele>
        <time>2018-09-07T13:36:11Z</time>
      </trkpt>
      <trkpt lat="47.65004" lon="6.18309">
        <ele>242.55</ele>
        <time>2018-09-07T13:36:13Z</time>
      </trkpt>
      <trkpt lat="47.65011" lon="6.18311">
        <ele>242.56</ele>
        <time>2018-09-07T13:36:15Z</time>
      </trkpt>
      <trkpt lat="47.65016" lon="6.18312">
        <ele>242.56</ele>
        <time>2018-09-07T13:36:17Z</time>
      </trkpt>
      <trkpt lat="47.65022" lon="6.18313">
        <ele>242.57</ele>
        <time>2018-09-07T13:36:19Z</time>
      </trkpt>
      <trkpt lat="47.65028" lon="6.18315">
        <ele>242.57</ele>
        <time>2018-09-07T13:36:21Z</time>
      </trkpt>
      <trkpt lat="47.65034" lon="6.18316">
        <ele>242.58</ele>
        <time>2018-09-07T13:36:23Z</time>
      </trkpt>
      <trkpt lat="47.6504" lon="6.18318">
        <ele>242.59</ele>
        <time>2018-09-07T13:36:25Z</time>
      </trkpt>
      <trkpt lat="47.65045" lon="6.18321">
        <ele>242.59</ele>
        <time>2018-09-07T13:36:27Z</time>
      </trkpt>
      <trkpt lat="47.6505" lon="6.18324">
        <ele>242.6</ele>
        <time>2018-09-07T13:36:29Z</time>
      </trkpt>
      <trkpt lat="47.65056" lon="6.18328">
        <ele>242.61</ele>
        <time>2018-09-07T13:36:31Z</time>
      </trkpt>
      <trkpt lat="47.65061" lon="6.18333">
        <ele>242.62</ele>
        <time>2018-09-07T13:36:33Z</time>
      </trkpt>
      <trkpt lat="47.65065" lon="6.18338">
        <ele>242.64</ele>
        <time>2018-09-07T13:36:35Z</time>
      </trkpt>
      <trkpt lat="47.6507" lon="6.18342">
        <ele>242.66</ele>
        <time>2018-09-07T13:36:37Z</time>
      </trkpt>
      <trkpt lat="47.65074" lon="6.18347">
        <ele>242.68</ele>
        <time>2018-09-07T13:36:39Z</time>
      </trkpt>
      <trkpt lat="47.65078" lon="6.18351">
        <ele>242.71</ele>
        <time>2018-09-07T13:36:41Z</time>
      </trkpt>
      <trkpt lat="47.65083" lon="6.18356">
        <ele>242.75</ele>
        <time>2018-09-07T13:36:44Z</time>
      </trkpt>
      <trkpt lat="47.65088" lon="6.18361">
        <ele>242.79</ele>
        <time>2018-09-07T13:36:47Z</time>
      </trkpt>
      <trkpt lat="47.65092" lon="6.18364">
        <ele>242.82</ele>
        <time>2018-09-07T13:36:49Z</time>
      </trkpt>
      <trkpt lat="47.65096" lon="6.18368">
        <ele>242.86</ele>
        <time>2018-09-07T13:36:51Z</time>
      </trkpt>
      <trkpt lat="47.651" lon="6.18372">
        <ele>242.89</ele>
        <time>2018-09-07T13:36:53Z</time>
      </trkpt>
      <trkpt lat="47.65105" lon="6.18378">
        <ele>242.95</ele>
        <time>2018-09-07T13:36:56Z</time>
      </trkpt>
      <trkpt lat="47.65109" lon="6.18383">
        <ele>243.02</ele>
        <time>2018-09-07T13:36:59Z</time>
      </trkpt>
      <trkpt lat="47.65113" lon="6.18388">
        <ele>243.08</ele>
        <time>2018-09-07T13:37:02Z</time>
      </trkpt>
      <trkpt lat="47.65116" lon="6.18392">
        <ele>243.15</ele>
        <time>2018-09-07T13:37:05Z</time>
      </trkpt>
      <trkpt lat="47.65121" lon="6.18397">
        <ele>243.25</ele>
        <time>2018-09-07T13:37:09Z</time>
      </trkpt>
      <trkpt lat="47.65125" lon="6.184">
        <ele>243.32</ele>
        <time>2018-09-07T13:37:12Z</time>
      </trkpt>
      <trkpt lat="47.6513" lon="6.18404">
        <ele>243.4</ele>
        <time>2018-09-07T13:37:15Z</time>
      </trkpt>
      <trkpt lat="47.65134" lon="6.18407">
        <ele>243.48</ele>
        <time>2018-09-07T13:37:18Z</time>
      </trkpt>
      <trkpt lat="47.65139" lon="6.1841">
        <ele>243.57</ele>
        <time>2018-09-07T13:37:21Z</time>
      </trkpt>
      <trkpt lat="47.65144" lon="6.18414">
        <ele>243.66</ele>
        <time>2018-09-07T13:37:24Z</time>
      </trkpt>
      <trkpt lat="47.65149" lon="6.18417">
        <ele>243.76</ele>
        <time>2018-09-07T13:37:27Z</time>
      </trkpt>
      <trkpt lat="47.65154" lon="6.18421">
        <ele>243.86</ele>
        <time>2018-09-07T13:37:30Z</time>
      </trkpt>
      <trkpt lat="47.65159" lon="6.18424">
        <ele>243.96</ele>
        <time>2018-09-07T13:37:33Z</time>
      </trkpt>
      <trkpt lat="47.65163" lon="6.18429">
        <ele>244.07</ele>
        <time>2018-09-07T13:37:36Z</time>
      </trkpt>
      <trkpt lat="47.65168" lon="6.18434">
        <ele>244.18</ele>
        <time>2018-09-07T13:37:39Z</time>
      </trkpt>
      <trkpt lat="47.65172" lon="6.1844">
        <ele>244.29</ele>
        <time>2018-09-07T13:37:42Z</time>
      </trkpt>
      <trkpt lat="47.65175" lon="6.18445">
        <ele>244.41</ele>
        <time>2018-09-07T13:37:45Z</time>
      </trkpt>
      <trkpt lat="47.65179" lon="6.1845">
        <ele>244.53</ele>
        <time>2018-09-07T13:37:48Z</time>
      </trkpt>
      <trkpt lat="47.65182" lon="6.18455">
        <ele>244.66</ele>
        <time>2018-09-07T13:37:51Z</time>
      </trkpt>
      <trkpt lat="47.65186" lon="6.1846">
        <ele>244.83</ele>
        <time>2018-09-07T13:37:55Z</time>
      </trkpt>
      <trkpt lat="47.6519" lon="6.18466">
        <ele>244.99</ele>
        <time>2018-09-07T13:37:59Z</time>
      </trkpt>
      <trkpt lat="47.65193" lon="6.18471">
        <ele>245.11</ele>
        <time>2018-09-07T13:38:02Z</time>
      </trkpt>
      <trkpt lat="47.65196" lon="6.18477">
        <ele>245.23</ele>
        <time>2018-09-07T13:38:05Z</time>
      </trkpt>
      <trkpt lat="47.65199" lon="6.18484">
        <ele>245.34</ele>
        <time>2018-09-07T13:38:08Z</time>
      </trkpt>
      <trkpt lat="47.65202" lon="6.18489">
        <ele>245.45</ele>
        <time>2018-09-07T13:38:11Z</time>
      </trkpt>
      <trkpt lat="47.65205" lon="6.18495">
        <ele>245.56</ele>
        <time>2018-09-07T13:38:14Z</time>
      </trkpt>
      <trkpt lat="47.65207" lon="6.18502">
        <ele>245.67</ele>
        <time>2018-09-07T13:38:17Z</time>
      </trkpt>
      <trkpt lat="47.6521" lon="6.18508">
        <ele>245.77</ele>
        <time>2018-09-07T13:38:20Z</time>
      </trkpt>
      <trkpt lat="47.65213" lon="6.18514">
        <ele>245.88</ele>
        <time>2018-09-07T13:38:23Z</time>
      </trkpt>
      <trkpt lat="47.65216" lon="6.1852">
        <ele>245.98</ele>
        <time>2018-09-07T13:38:26Z</time>
      </trkpt>
      <trkpt lat="47.65219" lon="6.18527">
        <ele>246.07</ele>
        <time>2018-09-07T13:38:29Z</time>
      </trkpt>
      <trkpt lat="47.65222" lon="6.18533">
        <ele>246.17</ele>
        <time>2018-09-07T13:38:32Z</time>
      </trkpt>
      <trkpt lat="47.65225" lon="6.1854">
        <ele>246.27</ele>
        <time>2018-09-07T13:38:35Z</time>
      </trkpt>
      <trkpt lat="47.65228" lon="6.18547">
        <ele>246.36</ele>
        <time>2018-09-07T13:38:38Z</time>
      </trkpt>
      <trkpt lat="47.65231" lon="6.18553">
        <ele>246.45</ele>
        <time>2018-09-07T13:38:41Z</time>
      </trkpt>
      <trkpt lat="47.65235" lon="6.1856">
        <ele>246.55</ele>
        <time>2018-09-07T13:38:44Z</time>
      </trkpt>
      <trkpt lat="47.65239" lon="6.18567">
        <ele>246.65</ele>
        <time>2018-09-07T13:38:47Z</time>
      </trkpt>
      <trkpt lat="47.65242" lon="6.18573">
        <ele>246.75</ele>
        <time>2018-09-07T13:38:50Z</time>
      </trkpt>
      <trkpt lat="47.65246" lon="6.18578">
        <ele>246.85</ele>
        <time>2018-09-07T13:38:53Z</time>
      </trkpt>
      <trkpt lat="47.6525" lon="6.18585">
        <ele>246.95</ele>
        <time>2018-09-07T13:38:56Z</time>
      </trkpt>
      <trkpt lat="47.65253" lon="6.18592">
        <ele>247.05</ele>
        <time>2018-09-07T13:38:59Z</time>
      </trkpt>
      <trkpt lat="47.65256" lon="6.18599">
        <ele>247.15</ele>
        <time>2018-09-07T13:39:02Z</time>
      </trkpt>
      <trkpt lat="47.65259" lon="6.18605">
        <ele>247.28</ele>
        <time>2018-09-07T13:39:06Z</time>
      </trkpt>
      <trkpt lat="47.65263" lon="6.18611">
        <ele>247.37</ele>
        <time>2018-09-07T13:39:09Z</time>
      </trkpt>
      <trkpt lat="47.65267" lon="6.18616">
        <ele>247.43</ele>
        <time>2018-09-07T13:39:11Z</time>
      </trkpt>
      <trkpt lat="47.65271" lon="6.18621">
        <ele>247.49</ele>
        <time>2018-09-07T13:39:13Z</time>
      </trkpt>
      <trkpt lat="47.65274" lon="6.18625">
        <ele>247.56</ele>
        <time>2018-09-07T13:39:15Z</time>
      </trkpt>
      <trkpt lat="47.65278" lon="6.1863">
        <ele>247.62</ele>
        <time>2018-09-07T13:39:17Z</time>
      </trkpt>
      <trkpt lat="47.65282" lon="6.18635">
        <ele>247.71</ele>
        <time>2018-09-07T13:39:20Z</time>
      </trkpt>
      <trkpt lat="47.65286" lon="6.1864">
        <ele>247.8</ele>
        <time>2018-09-07T13:39:23Z</time>
      </trkpt>
      <trkpt lat="47.65291" lon="6.18646">
        <ele>247.9</ele>
        <time>2018-09-07T13:39:26Z</time>
      </trkpt>
      <trkpt lat="47.65295" lon="6.18652">
        <ele>247.99</ele>
        <time>2018-09-07T13:39:29Z</time>
      </trkpt>
      <trkpt lat="47.653" lon="6.18658">
        <ele>248.09</ele>
        <time>2018-09-07T13:39:32Z</time>
      </trkpt>
      <trkpt lat="47.65305" lon="6.18662">
        <ele>248.21</ele>
        <time>2018-09-07T13:39:35Z</time>
      </trkpt>
      <trkpt lat="47.65308" lon="6.18669">
        <ele>248.33</ele>
        <time>2018-09-07T13:39:38Z</time>
      </trkpt>
      <trkpt lat="47.65309" lon="6.18676">
        <ele>248.45</ele>
        <time>2018-09-07T13:39:41Z</time>
      </trkpt>
      <trkpt lat="47.65308" lon="6.18683">
        <ele>248.59</ele>
        <time>2018-09-07T13:39:44Z</time>
      </trkpt>
      <trkpt lat="47.65303" lon="6.1869">
        <ele>248.77</ele>
        <time>2018-09-07T13:39:48Z</time>
      </trkpt>
      <trkpt lat="47.653" lon="6.18694">
        <ele>248.87</ele>
        <time>2018-09-07T13:39:50Z</time>
      </trkpt>
      <trkpt lat="47.65295" lon="6.18699">
        <ele>248.97</ele>
        <time>2018-09-07T13:39:52Z</time>
      </trkpt>
      <trkpt lat="47.65291" lon="6.18704">
        <ele>249.07</ele>
        <time>2018-09-07T13:39:54Z</time>
      </trkpt>
      <trkpt lat="47.65287" lon="6.18709">
        <ele>249.17</ele>
        <time>2018-09-07T13:39:56Z</time>
      </trkpt>
      <trkpt lat="47.65283" lon="6.18715">
        <ele>249.27</ele>
        <time>2018-09-07T13:39:58Z</time>
      </trkpt>
      <trkpt lat="47.65278" lon="6.18721">
        <ele>250.04</ele>
        <time>2018-09-07T13:40:00Z</time>
      </trkpt>
      <trkpt lat="47.65272" lon="6.18728">
        <ele>250.71</ele>
        <time>2018-09-07T13:40:02Z</time>
      </trkpt>
      <trkpt lat="47.65265" lon="6.18735">
        <ele>251.2</ele>
        <time>2018-09-07T13:40:04Z</time>
      </trkpt>
      <trkpt lat="47.65261" lon="6.1874">
        <ele>251.39</ele>
        <time>2018-09-07T13:40:05Z</time>
      </trkpt>
      <trkpt lat="47.65258" lon="6.18744">
        <ele>251.55</ele>
        <time>2018-09-07T13:40:06Z</time>
      </trkpt>
      <trkpt lat="47.65254" lon="6.18749">
        <ele>251.7</ele>
        <time>2018-09-07T13:40:07Z</time>
      </trkpt>
      <trkpt lat="47.65244" lon="6.18759">
        <ele>251.82</ele>
        <time>2018-09-07T13:40:08Z</time>
      </trkpt>
      <trkpt lat="47.65237" lon="6.18767">
        <ele>252.03</ele>
        <time>2018-09-07T13:40:10Z</time>
      </trkpt>
      <trkpt lat="47.6523" lon="6.18774">
        <ele>252.2</ele>
        <time>2018-09-07T13:40:12Z</time>
      </trkpt>
      <trkpt lat="47.65224" lon="6.18781">
        <ele>252.35</ele>
        <time>2018-09-07T13:40:14Z</time>
      </trkpt>
      <trkpt lat="47.65218" lon="6.18788">
        <ele>252.39</ele>
        <time>2018-09-07T13:40:16Z</time>
      </trkpt>
      <trkpt lat="47.65213" lon="6.18793">
        <ele>252.41</ele>
        <time>2018-09-07T13:40:18Z</time>
      </trkpt>
      <trkpt lat="47.65208" lon="6.18799">
        <ele>252.43</ele>
        <time>2018-09-07T13:40:20Z</time>
      </trkpt>
      <trkpt lat="47.65203" lon="6.18806">
        <ele>252.45</ele>
        <time>2018-09-07T13:40:22Z</time>
      </trkpt>
      <trkpt lat="47.65199" lon="6.18813">
        <ele>252.5</ele>
        <time>2018-09-07T13:40:25Z</time>
      </trkpt>
      <trkpt lat="47.65195" lon="6.1882">
        <ele>252.53</ele>
        <time>2018-09-07T13:40:27Z</time>
      </trkpt>
      <trkpt lat="47.65191" lon="6.18826">
        <ele>252.57</ele>
        <time>2018-09-07T13:40:29Z</time>
      </trkpt>
      <trkpt lat="47.65187" lon="6.18832">
        <ele>252.6</ele>
        <time>2018-09-07T13:40:31Z</time>
      </trkpt>
      <trkpt lat="47.65182" lon="6.18837">
        <ele>252.65</ele>
        <time>2018-09-07T13:40:33Z</time>
      </trkpt>
      <trkpt lat="47.65178" lon="6.18841">
        <ele>252.69</ele>
        <time>2018-09-07T13:40:35Z</time>
      </trkpt>
      <trkpt lat="47.65173" lon="6.18846">
        <ele>252.74</ele>
        <time>2018-09-07T13:40:37Z</time>
      </trkpt>
      <trkpt lat="47.65168" lon="6.1885">
        <ele>252.79</ele>
        <time>2018-09-07T13:40:39Z</time>
      </trkpt>
      <trkpt lat="47.65164" lon="6.18854">
        <ele>252.84</ele>
        <time>2018-09-07T13:40:41Z</time>
      </trkpt>
      <trkpt lat="47.65158" lon="6.1886">
        <ele>252.92</ele>
        <time>2018-09-07T13:40:44Z</time>
      </trkpt>
      <trkpt lat="47.65153" lon="6.18866">
        <ele>253.01</ele>
        <time>2018-09-07T13:40:47Z</time>
      </trkpt>
      <trkpt lat="47.65148" lon="6.18871">
        <ele>253.07</ele>
        <time>2018-09-07T13:40:49Z</time>
      </trkpt>
      <trkpt lat="47.65143" lon="6.18877">
        <ele>253.13</ele>
        <time>2018-09-07T13:40:51Z</time>
      </trkpt>
      <trkpt lat="47.65138" lon="6.18884">
        <ele>253.6</ele>
        <time>2018-09-07T13:40:53Z</time>
      </trkpt>
      <trkpt lat="47.65132" lon="6.18891">
        <ele>254.01</ele>
        <time>2018-09-07T13:40:55Z</time>
      </trkpt>
      <trkpt lat="47.65125" lon="6.18898">
        <ele>254.31</ele>
        <time>2018-09-07T13:40:57Z</time>
      </trkpt>
      <trkpt lat="47.65119" lon="6.18904">
        <ele>254.39</ele>
        <time>2018-09-07T13:40:59Z</time>
      </trkpt>
      <trkpt lat="47.65114" lon="6.1891">
        <ele>254.42</ele>
        <time>2018-09-07T13:41:01Z</time>
      </trkpt>
      <trkpt lat="47.65108" lon="6.18916">
        <ele>254.45</ele>
        <time>2018-09-07T13:41:03Z</time>
      </trkpt>
      <trkpt lat="47.65103" lon="6.18922">
        <ele>254.48</ele>
        <time>2018-09-07T13:41:05Z</time>
      </trkpt>
      <trkpt lat="47.65098" lon="6.18927">
        <ele>254.51</ele>
        <time>2018-09-07T13:41:07Z</time>
      </trkpt>
      <trkpt lat="47.65094" lon="6.18932">
        <ele>254.54</ele>
        <time>2018-09-07T13:41:09Z</time>
      </trkpt>
      <trkpt lat="47.65089" lon="6.18937">
        <ele>254.6</ele>
        <time>2018-09-07T13:41:12Z</time>
      </trkpt>
      <trkpt lat="47.65084" lon="6.18942">
        <ele>254.67</ele>
        <time>2018-09-07T13:41:15Z</time>
      </trkpt>
      <trkpt lat="47.6508" lon="6.18946">
        <ele>254.73</ele>
        <time>2018-09-07T13:41:18Z</time>
      </trkpt>
      <trkpt lat="47.65075" lon="6.18951">
        <ele>254.81</ele>
        <time>2018-09-07T13:41:21Z</time>
      </trkpt>
      <trkpt lat="47.65071" lon="6.18956">
        <ele>254.88</ele>
        <time>2018-09-07T13:41:24Z</time>
      </trkpt>
      <trkpt lat="47.65066" lon="6.18963">
        <ele>254.96</ele>
        <time>2018-09-07T13:41:27Z</time>
      </trkpt>
      <trkpt lat="47.65062" lon="6.18968">
        <ele>255.02</ele>
        <time>2018-09-07T13:41:29Z</time>
      </trkpt>
      <trkpt lat="47.65058" lon="6.18975">
        <ele>255.07</ele>
        <time>2018-09-07T13:41:31Z</time>
      </trkpt>
      <trkpt lat="47.65053" lon="6.18981">
        <ele>255.13</ele>
        <time>2018-09-07T13:41:33Z</time>
      </trkpt>
      <trkpt lat="47.65049" lon="6.18988">
        <ele>255.18</ele>
        <time>2018-09-07T13:41:35Z</time>
      </trkpt>
      <trkpt lat="47.65044" lon="6.18995">
        <ele>255.24</ele>
        <time>2018-09-07T13:41:37Z</time>
      </trkpt>
      <trkpt lat="47.65039" lon="6.19001">
        <ele>255.48</ele>
        <time>2018-09-07T13:41:39Z</time>
      </trkpt>
      <trkpt lat="47.65033" lon="6.19008">
        <ele>255.92</ele>
        <time>2018-09-07T13:41:41Z</time>
      </trkpt>
      <trkpt lat="47.65026" lon="6.19015">
        <ele>256.24</ele>
        <time>2018-09-07T13:41:43Z</time>
      </trkpt>
      <trkpt lat="47.65012" lon="6.1903">
        <ele>256.47</ele>
        <time>2018-09-07T13:41:45Z</time>
      </trkpt>
      <trkpt lat="47.65008" lon="6.19034">
        <ele>256.56</ele>
        <time>2018-09-07T13:41:46Z</time>
      </trkpt>
      <trkpt lat="47.65004" lon="6.19039">
        <ele>256.64</ele>
        <time>2018-09-07T13:41:47Z</time>
      </trkpt>
      <trkpt lat="47.65" lon="6.19044">
        <ele>256.7</ele>
        <time>2018-09-07T13:41:48Z</time>
      </trkpt>
      <trkpt lat="47.64996" lon="6.19049">
        <ele>256.76</ele>
        <time>2018-09-07T13:41:49Z</time>
      </trkpt>
      <trkpt lat="47.64993" lon="6.19054">
        <ele>256.82</ele>
        <time>2018-09-07T13:41:50Z</time>
      </trkpt>
      <trkpt lat="47.6499" lon="6.19061">
        <ele>256.86</ele>
        <time>2018-09-07T13:41:51Z</time>
      </trkpt>
      <trkpt lat="47.6499" lon="6.19068">
        <ele>256.9</ele>
        <time>2018-09-07T13:41:52Z</time>
      </trkpt>
      <trkpt lat="47.64992" lon="6.19079">
        <ele>256.93</ele>
        <time>2018-09-07T13:41:54Z</time>
      </trkpt>
      <trkpt lat="47.64996" lon="6.19085">
        <ele>256.94</ele>
        <time>2018-09-07T13:41:56Z</time>
      </trkpt>
      <trkpt lat="47.65" lon="6.1909">
        <ele>256.95</ele>
        <time>2018-09-07T13:41:58Z</time>
      </trkpt>
      <trkpt lat="47.65004" lon="6.19095">
        <ele>256.98</ele>
        <time>2018-09-07T13:42:02Z</time>
      </trkpt>
      <trkpt lat="47.65008" lon="6.191">
        <ele>257</ele>
        <time>2018-09-07T13:42:05Z</time>
      </trkpt>
      <trkpt lat="47.65013" lon="6.19106">
        <ele>257.03</ele>
        <time>2018-09-07T13:42:08Z</time>
      </trkpt>
      <trkpt lat="47.65016" lon="6.1911">
        <ele>257.05</ele>
        <time>2018-09-07T13:42:10Z</time>
      </trkpt>
      <trkpt lat="47.6502" lon="6.19115">
        <ele>257.08</ele>
        <time>2018-09-07T13:42:12Z</time>
      </trkpt>
      <trkpt lat="47.65025" lon="6.19121">
        <ele>257.13</ele>
        <time>2018-09-07T13:42:15Z</time>
      </trkpt>
      <trkpt lat="47.65029" lon="6.19128">
        <ele>257.17</ele>
        <time>2018-09-07T13:42:18Z</time>
      </trkpt>
      <trkpt lat="47.65032" lon="6.19133">
        <ele>257.22</ele>
        <time>2018-09-07T13:42:21Z</time>
      </trkpt>
      <trkpt lat="47.65036" lon="6.1914">
        <ele>257.27</ele>
        <time>2018-09-07T13:42:24Z</time>
      </trkpt>
      <trkpt lat="47.65041" lon="6.19147">
        <ele>257.32</ele>
        <time>2018-09-07T13:42:27Z</time>
      </trkpt>
      <trkpt lat="47.65044" lon="6.19152">
        <ele>257.36</ele>
        <time>2018-09-07T13:42:29Z</time>
      </trkpt>
      <trkpt lat="47.65047" lon="6.19158">
        <ele>257.39</ele>
        <time>2018-09-07T13:42:31Z</time>
      </trkpt>
      <trkpt lat="47.65051" lon="6.19163">
        <ele>257.43</ele>
        <time>2018-09-07T13:42:33Z</time>
      </trkpt>
      <trkpt lat="47.65054" lon="6.19169">
        <ele>257.46</ele>
        <time>2018-09-07T13:42:35Z</time>
      </trkpt>
      <trkpt lat="47.65057" lon="6.19174">
        <ele>257.49</ele>
        <time>2018-09-07T13:42:37Z</time>
      </trkpt>
      <trkpt lat="47.65061" lon="6.19179">
        <ele>257.53</ele>
        <time>2018-09-07T13:42:39Z</time>
      </trkpt>
      <trkpt lat="47.65064" lon="6.19185">
        <ele>257.56</ele>
        <time>2018-09-07T13:42:41Z</time>
      </trkpt>
      <trkpt lat="47.65067" lon="6.1919">
        <ele>257.6</ele>
        <time>2018-09-07T13:42:43Z</time>
      </trkpt>
      <trkpt lat="47.65071" lon="6.19194">
        <ele>257.63</ele>
        <time>2018-09-07T13:42:45Z</time>
      </trkpt>
      <trkpt lat="47.65074" lon="6.192">
        <ele>257.67</ele>
        <time>2018-09-07T13:42:47Z</time>
      </trkpt>
      <trkpt lat="47.65078" lon="6.19205">
        <ele>257.7</ele>
        <time>2018-09-07T13:42:49Z</time>
      </trkpt>
      <trkpt lat="47.65081" lon="6.19211">
        <ele>257.74</ele>
        <time>2018-09-07T13:42:51Z</time>
      </trkpt>
      <trkpt lat="47.65085" lon="6.19217">
        <ele>257.78</ele>
        <time>2018-09-07T13:42:53Z</time>
      </trkpt>
      <trkpt lat="47.65089" lon="6.19222">
        <ele>257.82</ele>
        <time>2018-09-07T13:42:55Z</time>
      </trkpt>
      <trkpt lat="47.65092" lon="6.19228">
        <ele>257.86</ele>
        <time>2018-09-07T13:42:57Z</time>
      </trkpt>
      <trkpt lat="47.65097" lon="6.19234">
        <ele>257.91</ele>
        <time>2018-09-07T13:42:59Z</time>
      </trkpt>
      <trkpt lat="47.65101" lon="6.1924">
        <ele>257.95</ele>
        <time>2018-09-07T13:43:01Z</time>
      </trkpt>
      <trkpt lat="47.65104" lon="6.19245">
        <ele>258</ele>
        <time>2018-09-07T13:43:03Z</time>
      </trkpt>
      <trkpt lat="47.65108" lon="6.19251">
        <ele>258.05</ele>
        <time>2018-09-07T13:43:05Z</time>
      </trkpt>
      <trkpt lat="47.65111" lon="6.19256">
        <ele>258.11</ele>
        <time>2018-09-07T13:43:07Z</time>
      </trkpt>
      <trkpt lat="47.65115" lon="6.19261">
        <ele>258.16</ele>
        <time>2018-09-07T13:43:09Z</time>
      </trkpt>
      <trkpt lat="47.65118" lon="6.19266">
        <ele>258.22</ele>
        <time>2018-09-07T13:43:11Z</time>
      </trkpt>
      <trkpt lat="47.65122" lon="6.1927">
        <ele>258.28</ele>
        <time>2018-09-07T13:43:13Z</time>
      </trkpt>
      <trkpt lat="47.65126" lon="6.19275">
        <ele>258.34</ele>
        <time>2018-09-07T13:43:15Z</time>
      </trkpt>
      <trkpt lat="47.65129" lon="6.1928">
        <ele>258.4</ele>
        <time>2018-09-07T13:43:17Z</time>
      </trkpt>
      <trkpt lat="47.65133" lon="6.19284">
        <ele>258.46</ele>
        <time>2018-09-07T13:43:19Z</time>
      </trkpt>
      <trkpt lat="47.65137" lon="6.19289">
        <ele>258.53</ele>
        <time>2018-09-07T13:43:21Z</time>
      </trkpt>
      <trkpt lat="47.65143" lon="6.19295">
        <ele>258.63</ele>
        <time>2018-09-07T13:43:24Z</time>
      </trkpt>
      <trkpt lat="47.65148" lon="6.193">
        <ele>258.74</ele>
        <time>2018-09-07T13:43:27Z</time>
      </trkpt>
      <trkpt lat="47.65153" lon="6.19305">
        <ele>258.81</ele>
        <time>2018-09-07T13:43:29Z</time>
      </trkpt>
      <trkpt lat="47.65157" lon="6.19309">
        <ele>258.88</ele>
        <time>2018-09-07T13:43:31Z</time>
      </trkpt>
      <trkpt lat="47.65161" lon="6.19313">
        <ele>258.95</ele>
        <time>2018-09-07T13:43:33Z</time>
      </trkpt>
      <trkpt lat="47.65166" lon="6.19317">
        <ele>259.02</ele>
        <time>2018-09-07T13:43:35Z</time>
      </trkpt>
      <trkpt lat="47.6517" lon="6.19321">
        <ele>259.09</ele>
        <time>2018-09-07T13:43:37Z</time>
      </trkpt>
      <trkpt lat="47.65174" lon="6.19326">
        <ele>259.17</ele>
        <time>2018-09-07T13:43:39Z</time>
      </trkpt>
      <trkpt lat="47.65178" lon="6.19332">
        <ele>259.24</ele>
        <time>2018-09-07T13:43:41Z</time>
      </trkpt>
      <trkpt lat="47.65182" lon="6.19338">
        <ele>259.31</ele>
        <time>2018-09-07T13:43:43Z</time>
      </trkpt>
      <trkpt lat="47.65186" lon="6.19346">
        <ele>259.41</ele>
        <time>2018-09-07T13:43:46Z</time>
      </trkpt>
      <trkpt lat="47.6519" lon="6.19352">
        <ele>259.47</ele>
        <time>2018-09-07T13:43:48Z</time>
      </trkpt>
      <trkpt lat="47.65193" lon="6.19358">
        <ele>259.54</ele>
        <time>2018-09-07T13:43:50Z</time>
      </trkpt>
      <trkpt lat="47.65197" lon="6.19365">
        <ele>259.6</ele>
        <time>2018-09-07T13:43:52Z</time>
      </trkpt>
      <trkpt lat="47.652" lon="6.19371">
        <ele>259.67</ele>
        <time>2018-09-07T13:43:54Z</time>
      </trkpt>
      <trkpt lat="47.65203" lon="6.19377">
        <ele>259.73</ele>
        <time>2018-09-07T13:43:56Z</time>
      </trkpt>
      <trkpt lat="47.65206" lon="6.19383">
        <ele>259.79</ele>
        <time>2018-09-07T13:43:58Z</time>
      </trkpt>
      <trkpt lat="47.65209" lon="6.19388">
        <ele>259.85</ele>
        <time>2018-09-07T13:44:00Z</time>
      </trkpt>
      <trkpt lat="47.65213" lon="6.19395">
        <ele>259.9</ele>
        <time>2018-09-07T13:44:02Z</time>
      </trkpt>
      <trkpt lat="47.65217" lon="6.19401">
        <ele>259.96</ele>
        <time>2018-09-07T13:44:04Z</time>
      </trkpt>
      <trkpt lat="47.65219" lon="6.19407">
        <ele>260.01</ele>
        <time>2018-09-07T13:44:06Z</time>
      </trkpt>
      <trkpt lat="47.65223" lon="6.19412">
        <ele>260.07</ele>
        <time>2018-09-07T13:44:08Z</time>
      </trkpt>
      <trkpt lat="47.65226" lon="6.19418">
        <ele>260.12</ele>
        <time>2018-09-07T13:44:10Z</time>
      </trkpt>
      <trkpt lat="47.65229" lon="6.19425">
        <ele>260.18</ele>
        <time>2018-09-07T13:44:12Z</time>
      </trkpt>
      <trkpt lat="47.65232" lon="6.1943">
        <ele>260.23</ele>
        <time>2018-09-07T13:44:14Z</time>
      </trkpt>
      <trkpt lat="47.65238" lon="6.19437">
        <ele>260.31</ele>
        <time>2018-09-07T13:44:17Z</time>
      </trkpt>
      <trkpt lat="47.65241" lon="6.19441">
        <ele>260.36</ele>
        <time>2018-09-07T13:44:19Z</time>
      </trkpt>
      <trkpt lat="47.65245" lon="6.19445">
        <ele>260.41</ele>
        <time>2018-09-07T13:44:21Z</time>
      </trkpt>
      <trkpt lat="47.65249" lon="6.19449">
        <ele>260.46</ele>
        <time>2018-09-07T13:44:23Z</time>
      </trkpt>
      <trkpt lat="47.65253" lon="6.19455">
        <ele>260.51</ele>
        <time>2018-09-07T13:44:25Z</time>
      </trkpt>
      <trkpt lat="47.65257" lon="6.1946">
        <ele>260.56</ele>
        <time>2018-09-07T13:44:27Z</time>
      </trkpt>
      <trkpt lat="47.65261" lon="6.19465">
        <ele>260.61</ele>
        <time>2018-09-07T13:44:29Z</time>
      </trkpt>
      <trkpt lat="47.65264" lon="6.19471">
        <ele>260.67</ele>
        <time>2018-09-07T13:44:31Z</time>
      </trkpt>
      <trkpt lat="47.65267" lon="6.19477">
        <ele>260.72</ele>
        <time>2018-09-07T13:44:33Z</time>
      </trkpt>
      <trkpt lat="47.6527" lon="6.19483">
        <ele>260.77</ele>
        <time>2018-09-07T13:44:35Z</time>
      </trkpt>
      <trkpt lat="47.65273" lon="6.19489">
        <ele>260.82</ele>
        <time>2018-09-07T13:44:37Z</time>
      </trkpt>
      <trkpt lat="47.65276" lon="6.19496">
        <ele>260.87</ele>
        <time>2018-09-07T13:44:39Z</time>
      </trkpt>
      <trkpt lat="47.65278" lon="6.19503">
        <ele>260.93</ele>
        <time>2018-09-07T13:44:41Z</time>
      </trkpt>
      <trkpt lat="47.6528" lon="6.19509">
        <ele>260.98</ele>
        <time>2018-09-07T13:44:43Z</time>
      </trkpt>
      <trkpt lat="47.6528" lon="6.19517">
        <ele>261.03</ele>
        <time>2018-09-07T13:44:45Z</time>
      </trkpt>
      <trkpt lat="47.65281" lon="6.19524">
        <ele>261.09</ele>
        <time>2018-09-07T13:44:47Z</time>
      </trkpt>
      <trkpt lat="47.65281" lon="6.19531">
        <ele>261.14</ele>
        <time>2018-09-07T13:44:49Z</time>
      </trkpt>
      <trkpt lat="47.65284" lon="6.1954">
        <ele>261.22</ele>
        <time>2018-09-07T13:44:52Z</time>
      </trkpt>
      <trkpt lat="47.65288" lon="6.19548">
        <ele>261.29</ele>
        <time>2018-09-07T13:44:55Z</time>
      </trkpt>
      <trkpt lat="47.65291" lon="6.19556">
        <ele>261.68</ele>
        <time>2018-09-07T13:44:57Z</time>
      </trkpt>
      <trkpt lat="47.65295" lon="6.19564">
        <ele>262.01</ele>
        <time>2018-09-07T13:44:59Z</time>
      </trkpt>
      <trkpt lat="47.65298" lon="6.19574">
        <ele>262.23</ele>
        <time>2018-09-07T13:45:01Z</time>
      </trkpt>
      <trkpt lat="47.65302" lon="6.19586">
        <ele>262.39</ele>
        <time>2018-09-07T13:45:03Z</time>
      </trkpt>
      <trkpt lat="47.65304" lon="6.19592">
        <ele>262.46</ele>
        <time>2018-09-07T13:45:04Z</time>
      </trkpt>
      <trkpt lat="47.65308" lon="6.19604">
        <ele>262.49</ele>
        <time>2018-09-07T13:45:06Z</time>
      </trkpt>
      <trkpt lat="47.6531" lon="6.1961">
        <ele>262.5</ele>
        <time>2018-09-07T13:45:07Z</time>
      </trkpt>
      <trkpt lat="47.65315" lon="6.1962">
        <ele>262.51</ele>
        <time>2018-09-07T13:45:09Z</time>
      </trkpt>
      <trkpt lat="47.65319" lon="6.19629">
        <ele>262.53</ele>
        <time>2018-09-07T13:45:11Z</time>
      </trkpt>
      <trkpt lat="47.65323" lon="6.19637">
        <ele>262.54</ele>
        <time>2018-09-07T13:45:13Z</time>
      </trkpt>
      <trkpt lat="47.65326" lon="6.19644">
        <ele>262.56</ele>
        <time>2018-09-07T13:45:15Z</time>
      </trkpt>
      <trkpt lat="47.6533" lon="6.19651">
        <ele>262.59</ele>
        <time>2018-09-07T13:45:17Z</time>
      </trkpt>
      <trkpt lat="47.65333" lon="6.19657">
        <ele>262.61</ele>
        <time>2018-09-07T13:45:19Z</time>
      </trkpt>
      <trkpt lat="47.65337" lon="6.19663">
        <ele>262.64</ele>
        <time>2018-09-07T13:45:21Z</time>
      </trkpt>
      <trkpt lat="47.65339" lon="6.19669">
        <ele>262.66</ele>
        <time>2018-09-07T13:45:23Z</time>
      </trkpt>
      <trkpt lat="47.65342" lon="6.19676">
        <ele>262.69</ele>
        <time>2018-09-07T13:45:25Z</time>
      </trkpt>
      <trkpt lat="47.65344" lon="6.19684">
        <ele>262.72</ele>
        <time>2018-09-07T13:45:27Z</time>
      </trkpt>
      <trkpt lat="47.65347" lon="6.19692">
        <ele>262.74</ele>
        <time>2018-09-07T13:45:29Z</time>
      </trkpt>
      <trkpt lat="47.65351" lon="6.19701">
        <ele>262.77</ele>
        <time>2018-09-07T13:45:31Z</time>
      </trkpt>
      <trkpt lat="47.65354" lon="6.1971">
        <ele>262.8</ele>
        <time>2018-09-07T13:45:33Z</time>
      </trkpt>
      <trkpt lat="47.65357" lon="6.19718">
        <ele>262.83</ele>
        <time>2018-09-07T13:45:35Z</time>
      </trkpt>
      <trkpt lat="47.6536" lon="6.19726">
        <ele>262.87</ele>
        <time>2018-09-07T13:45:37Z</time>
      </trkpt>
      <trkpt lat="47.65362" lon="6.19733">
        <ele>262.9</ele>
        <time>2018-09-07T13:45:39Z</time>
      </trkpt>
      <trkpt lat="47.65366" lon="6.19741">
        <ele>262.95</ele>
        <time>2018-09-07T13:45:42Z</time>
      </trkpt>
      <trkpt lat="47.65369" lon="6.19748">
        <ele>263</ele>
        <time>2018-09-07T13:45:45Z</time>
      </trkpt>
      <trkpt lat="47.65373" lon="6.19756">
        <ele>263.05</ele>
        <time>2018-09-07T13:45:48Z</time>
      </trkpt>
      <trkpt lat="47.65377" lon="6.19765">
        <ele>263.1</ele>
        <time>2018-09-07T13:45:51Z</time>
      </trkpt>
      <trkpt lat="47.6538" lon="6.19771">
        <ele>263.14</ele>
        <time>2018-09-07T13:45:53Z</time>
      </trkpt>
      <trkpt lat="47.65383" lon="6.19778">
        <ele>263.17</ele>
        <time>2018-09-07T13:45:55Z</time>
      </trkpt>
      <trkpt lat="47.65387" lon="6.19785">
        <ele>263.2</ele>
        <time>2018-09-07T13:45:57Z</time>
      </trkpt>
      <trkpt lat="47.65391" lon="6.19792">
        <ele>263.23</ele>
        <time>2018-09-07T13:45:59Z</time>
      </trkpt>
      <trkpt lat="47.65395" lon="6.19798">
        <ele>263.26</ele>
        <time>2018-09-07T13:46:01Z</time>
      </trkpt>
      <trkpt lat="47.65399" lon="6.19804">
        <ele>263.29</ele>
        <time>2018-09-07T13:46:03Z</time>
      </trkpt>
      <trkpt lat="47.65402" lon="6.19809">
        <ele>263.32</ele>
        <time>2018-09-07T13:46:05Z</time>
      </trkpt>
      <trkpt lat="47.65406" lon="6.19815">
        <ele>263.34</ele>
        <time>2018-09-07T13:46:07Z</time>
      </trkpt>
      <trkpt lat="47.65409" lon="6.1982">
        <ele>263.36</ele>
        <time>2018-09-07T13:46:09Z</time>
      </trkpt>
      <trkpt lat="47.65412" lon="6.19824">
        <ele>263.38</ele>
        <time>2018-09-07T13:46:11Z</time>
      </trkpt>
      <trkpt lat="47.65417" lon="6.19832">
        <ele>263.4</ele>
        <time>2018-09-07T13:46:14Z</time>
      </trkpt>
      <trkpt lat="47.65421" lon="6.19839">
        <ele>263.41</ele>
        <time>2018-09-07T13:46:17Z</time>
      </trkpt>
      <trkpt lat="47.65425" lon="6.19847">
        <ele>263.43</ele>
        <time>2018-09-07T13:46:20Z</time>
      </trkpt>
      <trkpt lat="47.65427" lon="6.19853">
        <ele>263.43</ele>
        <time>2018-09-07T13:46:22Z</time>
      </trkpt>
      <trkpt lat="47.6543" lon="6.19861">
        <ele>263.44</ele>
        <time>2018-09-07T13:46:25Z</time>
      </trkpt>
      <trkpt lat="47.65432" lon="6.1987">
        <ele>263.44</ele>
        <time>2018-09-07T13:46:28Z</time>
      </trkpt>
      <trkpt lat="47.65434" lon="6.19877">
        <ele>263.45</ele>
        <time>2018-09-07T13:46:30Z</time>
      </trkpt>
      <trkpt lat="47.65437" lon="6.19885">
        <ele>263.45</ele>
        <time>2018-09-07T13:46:32Z</time>
      </trkpt>
      <trkpt lat="47.6544" lon="6.19894">
        <ele>263.45</ele>
        <time>2018-09-07T13:46:34Z</time>
      </trkpt>
      <trkpt lat="47.65443" lon="6.19903">
        <ele>263.44</ele>
        <time>2018-09-07T13:46:36Z</time>
      </trkpt>
      <trkpt lat="47.65447" lon="6.19913">
        <ele>263.44</ele>
        <time>2018-09-07T13:46:38Z</time>
      </trkpt>
      <trkpt lat="47.65451" lon="6.19922">
        <ele>263.44</ele>
        <time>2018-09-07T13:46:40Z</time>
      </trkpt>
      <trkpt lat="47.65454" lon="6.19931">
        <ele>263.44</ele>
        <time>2018-09-07T13:46:42Z</time>
      </trkpt>
      <trkpt lat="47.65458" lon="6.19938">
        <ele>263.45</ele>
        <time>2018-09-07T13:46:44Z</time>
      </trkpt>
      <trkpt lat="47.65462" lon="6.19946">
        <ele>263.45</ele>
        <time>2018-09-07T13:46:46Z</time>
      </trkpt>
      <trkpt lat="47.65466" lon="6.19953">
        <ele>263.46</ele>
        <time>2018-09-07T13:46:48Z</time>
      </trkpt>
      <trkpt lat="47.6547" lon="6.1996">
        <ele>263.47</ele>
        <time>2018-09-07T13:46:50Z</time>
      </trkpt>
      <trkpt lat="47.65475" lon="6.19966">
        <ele>263.48</ele>
        <time>2018-09-07T13:46:52Z</time>
      </trkpt>
      <trkpt lat="47.65479" lon="6.19972">
        <ele>263.49</ele>
        <time>2018-09-07T13:46:54Z</time>
      </trkpt>
      <trkpt lat="47.65483" lon="6.19978">
        <ele>263.5</ele>
        <time>2018-09-07T13:46:56Z</time>
      </trkpt>
      <trkpt lat="47.65487" lon="6.19984">
        <ele>263.52</ele>
        <time>2018-09-07T13:46:58Z</time>
      </trkpt>
      <trkpt lat="47.6549" lon="6.19989">
        <ele>263.53</ele>
        <time>2018-09-07T13:47:00Z</time>
      </trkpt>
      <trkpt lat="47.65494" lon="6.19994">
        <ele>263.55</ele>
        <time>2018-09-07T13:47:02Z</time>
      </trkpt>
      <trkpt lat="47.65498" lon="6.19999">
        <ele>263.57</ele>
        <time>2018-09-07T13:47:04Z</time>
      </trkpt>
      <trkpt lat="47.65502" lon="6.20005">
        <ele>263.59</ele>
        <time>2018-09-07T13:47:06Z</time>
      </trkpt>
      <trkpt lat="47.65506" lon="6.20011">
        <ele>263.61</ele>
        <time>2018-09-07T13:47:08Z</time>
      </trkpt>
      <trkpt lat="47.6551" lon="6.20018">
        <ele>263.63</ele>
        <time>2018-09-07T13:47:10Z</time>
      </trkpt>
      <trkpt lat="47.65515" lon="6.20024">
        <ele>263.65</ele>
        <time>2018-09-07T13:47:12Z</time>
      </trkpt>
      <trkpt lat="47.6552" lon="6.2003">
        <ele>263.68</ele>
        <time>2018-09-07T13:47:14Z</time>
      </trkpt>
      <trkpt lat="47.65524" lon="6.20035">
        <ele>263.7</ele>
        <time>2018-09-07T13:47:16Z</time>
      </trkpt>
      <trkpt lat="47.65527" lon="6.20041">
        <ele>263.73</ele>
        <time>2018-09-07T13:47:18Z</time>
      </trkpt>
      <trkpt lat="47.65531" lon="6.20045">
        <ele>263.76</ele>
        <time>2018-09-07T13:47:20Z</time>
      </trkpt>
      <trkpt lat="47.65534" lon="6.2005">
        <ele>263.79</ele>
        <time>2018-09-07T13:47:22Z</time>
      </trkpt>
      <trkpt lat="47.65538" lon="6.20055">
        <ele>263.82</ele>
        <time>2018-09-07T13:47:24Z</time>
      </trkpt>
      <trkpt lat="47.65542" lon="6.20059">
        <ele>263.84</ele>
        <time>2018-09-07T13:47:26Z</time>
      </trkpt>
      <trkpt lat="47.65546" lon="6.20063">
        <ele>263.88</ele>
        <time>2018-09-07T13:47:28Z</time>
      </trkpt>
      <trkpt lat="47.6555" lon="6.20068">
        <ele>263.91</ele>
        <time>2018-09-07T13:47:30Z</time>
      </trkpt>
      <trkpt lat="47.65555" lon="6.20073">
        <ele>263.96</ele>
        <time>2018-09-07T13:47:33Z</time>
      </trkpt>
      <trkpt lat="47.6556" lon="6.20078">
        <ele>264</ele>
        <time>2018-09-07T13:47:36Z</time>
      </trkpt>
      <trkpt lat="47.65565" lon="6.20084">
        <ele>264.05</ele>
        <time>2018-09-07T13:47:39Z</time>
      </trkpt>
      <trkpt lat="47.65569" lon="6.20088">
        <ele>264.09</ele>
        <time>2018-09-07T13:47:41Z</time>
      </trkpt>
      <trkpt lat="47.65573" lon="6.20092">
        <ele>264.12</ele>
        <time>2018-09-07T13:47:43Z</time>
      </trkpt>
      <trkpt lat="47.65577" lon="6.20097">
        <ele>264.16</ele>
        <time>2018-09-07T13:47:45Z</time>
      </trkpt>
      <trkpt lat="47.65581" lon="6.20101">
        <ele>264.2</ele>
        <time>2018-09-07T13:47:47Z</time>
      </trkpt>
      <trkpt lat="47.65585" lon="6.20104">
        <ele>264.24</ele>
        <time>2018-09-07T13:47:49Z</time>
      </trkpt>
      <trkpt lat="47.65591" lon="6.2011">
        <ele>264.3</ele>
        <time>2018-09-07T13:47:52Z</time>
      </trkpt>
      <trkpt lat="47.65594" lon="6.20114">
        <ele>264.35</ele>
        <time>2018-09-07T13:47:54Z</time>
      </trkpt>
      <trkpt lat="47.65598" lon="6.20118">
        <ele>264.39</ele>
        <time>2018-09-07T13:47:56Z</time>
      </trkpt>
      <trkpt lat="47.65602" lon="6.20122">
        <ele>264.44</ele>
        <time>2018-09-07T13:47:58Z</time>
      </trkpt>
      <trkpt lat="47.65606" lon="6.20126">
        <ele>264.48</ele>
        <time>2018-09-07T13:48:00Z</time>
      </trkpt>
      <trkpt lat="47.65611" lon="6.20131">
        <ele>264.55</ele>
        <time>2018-09-07T13:48:03Z</time>
      </trkpt>
      <trkpt lat="47.65615" lon="6.20135">
        <ele>264.6</ele>
        <time>2018-09-07T13:48:05Z</time>
      </trkpt>
      <trkpt lat="47.65619" lon="6.20139">
        <ele>264.65</ele>
        <time>2018-09-07T13:48:07Z</time>
      </trkpt>
      <trkpt lat="47.65623" lon="6.20141">
        <ele>264.7</ele>
        <time>2018-09-07T13:48:09Z</time>
      </trkpt>
      <trkpt lat="47.65629" lon="6.20143">
        <ele>264.77</ele>
        <time>2018-09-07T13:48:12Z</time>
      </trkpt>
      <trkpt lat="47.65634" lon="6.20148">
        <ele>264.85</ele>
        <time>2018-09-07T13:48:15Z</time>
      </trkpt>
      <trkpt lat="47.65638" lon="6.20153">
        <ele>264.91</ele>
        <time>2018-09-07T13:48:17Z</time>
      </trkpt>
      <trkpt lat="47.65641" lon="6.20161">
        <ele>264.96</ele>
        <time>2018-09-07T13:48:19Z</time>
      </trkpt>
      <trkpt lat="47.65644" lon="6.20168">
        <ele>265.18</ele>
        <time>2018-09-07T13:48:21Z</time>
      </trkpt>
      <trkpt lat="47.65649" lon="6.20176">
        <ele>265.58</ele>
        <time>2018-09-07T13:48:23Z</time>
      </trkpt>
      <trkpt lat="47.65655" lon="6.20184">
        <ele>265.87</ele>
        <time>2018-09-07T13:48:25Z</time>
      </trkpt>
      <trkpt lat="47.65661" lon="6.20193">
        <ele>266.07</ele>
        <time>2018-09-07T13:48:27Z</time>
      </trkpt>
      <trkpt lat="47.65675" lon="6.2021">
        <ele>266.21</ele>
        <time>2018-09-07T13:48:29Z</time>
      </trkpt>
      <trkpt lat="47.65679" lon="6.20215">
        <ele>266.27</ele>
        <time>2018-09-07T13:48:30Z</time>
      </trkpt>
      <trkpt lat="47.65682" lon="6.20219">
        <ele>266.32</ele>
        <time>2018-09-07T13:48:31Z</time>
      </trkpt>
      <trkpt lat="47.65686" lon="6.20223">
        <ele>266.36</ele>
        <time>2018-09-07T13:48:32Z</time>
      </trkpt>
      <trkpt lat="47.65692" lon="6.20232">
        <ele>266.43</ele>
        <time>2018-09-07T13:48:34Z</time>
      </trkpt>
      <trkpt lat="47.65698" lon="6.2024">
        <ele>266.49</ele>
        <time>2018-09-07T13:48:36Z</time>
      </trkpt>
      <trkpt lat="47.65704" lon="6.20248">
        <ele>266.53</ele>
        <time>2018-09-07T13:48:38Z</time>
      </trkpt>
      <trkpt lat="47.6571" lon="6.20255">
        <ele>266.56</ele>
        <time>2018-09-07T13:48:40Z</time>
      </trkpt>
      <trkpt lat="47.65716" lon="6.20263">
        <ele>266.62</ele>
        <time>2018-09-07T13:48:42Z</time>
      </trkpt>
      <trkpt lat="47.6572" lon="6.20268">
        <ele>266.65</ele>
        <time>2018-09-07T13:48:43Z</time>
      </trkpt>
      <trkpt lat="47.65724" lon="6.20273">
        <ele>266.68</ele>
        <time>2018-09-07T13:48:44Z</time>
      </trkpt>
      <trkpt lat="47.65729" lon="6.20278">
        <ele>266.7</ele>
        <time>2018-09-07T13:48:45Z</time>
      </trkpt>
      <trkpt lat="47.65733" lon="6.20282">
        <ele>266.72</ele>
        <time>2018-09-07T13:48:46Z</time>
      </trkpt>
      <trkpt lat="47.65738" lon="6.20288">
        <ele>266.74</ele>
        <time>2018-09-07T13:48:47Z</time>
      </trkpt>
      <trkpt lat="47.65743" lon="6.20294">
        <ele>266.76</ele>
        <time>2018-09-07T13:48:48Z</time>
      </trkpt>
      <trkpt lat="47.6575" lon="6.20301">
        <ele>266.78</ele>
        <time>2018-09-07T13:48:49Z</time>
      </trkpt>
      <trkpt lat="47.65756" lon="6.20307">
        <ele>266.79</ele>
        <time>2018-09-07T13:48:50Z</time>
      </trkpt>
      <trkpt lat="47.65762" lon="6.20314">
        <ele>266.79</ele>
        <time>2018-09-07T13:48:51Z</time>
      </trkpt>
      <trkpt lat="47.65768" lon="6.2032">
        <ele>266.8</ele>
        <time>2018-09-07T13:48:52Z</time>
      </trkpt>
      <trkpt lat="47.65774" lon="6.20325">
        <ele>266.8</ele>
        <time>2018-09-07T13:48:53Z</time>
      </trkpt>
      <trkpt lat="47.6578" lon="6.20331">
        <ele>266.77</ele>
        <time>2018-09-07T13:48:54Z</time>
      </trkpt>
      <trkpt lat="47.65786" lon="6.20336">
        <ele>266.73</ele>
        <time>2018-09-07T13:48:55Z</time>
      </trkpt>
      <trkpt lat="47.65791" lon="6.20342">
        <ele>266.69</ele>
        <time>2018-09-07T13:48:56Z</time>
      </trkpt>
      <trkpt lat="47.65797" lon="6.20347">
        <ele>266.6</ele>
        <time>2018-09-07T13:48:57Z</time>
      </trkpt>
      <trkpt lat="47.65803" lon="6.20352">
        <ele>266.55</ele>
        <time>2018-09-07T13:48:58Z</time>
      </trkpt>
      <trkpt lat="47.65809" lon="6.20358">
        <ele>266.55</ele>
        <time>2018-09-07T13:48:59Z</time>
      </trkpt>
      <trkpt lat="47.65815" lon="6.20365">
        <ele>266.57</ele>
        <time>2018-09-07T13:49:00Z</time>
      </trkpt>
      <trkpt lat="47.6582" lon="6.20371">
        <ele>266.59</ele>
        <time>2018-09-07T13:49:01Z</time>
      </trkpt>
      <trkpt lat="47.65826" lon="6.20378">
        <ele>266.6</ele>
        <time>2018-09-07T13:49:02Z</time>
      </trkpt>
      <trkpt lat="47.65831" lon="6.20384">
        <ele>266.63</ele>
        <time>2018-09-07T13:49:03Z</time>
      </trkpt>
      <trkpt lat="47.65836" lon="6.20389">
        <ele>266.66</ele>
        <time>2018-09-07T13:49:04Z</time>
      </trkpt>
      <trkpt lat="47.65841" lon="6.20394">
        <ele>266.69</ele>
        <time>2018-09-07T13:49:05Z</time>
      </trkpt>
      <trkpt lat="47.65846" lon="6.204">
        <ele>266.74</ele>
        <time>2018-09-07T13:49:06Z</time>
      </trkpt>
      <trkpt lat="47.65851" lon="6.20404">
        <ele>266.81</ele>
        <time>2018-09-07T13:49:07Z</time>
      </trkpt>
      <trkpt lat="47.65855" lon="6.20408">
        <ele>266.88</ele>
        <time>2018-09-07T13:49:08Z</time>
      </trkpt>
      <trkpt lat="47.65859" lon="6.20411">
        <ele>266.95</ele>
        <time>2018-09-07T13:49:09Z</time>
      </trkpt>
      <trkpt lat="47.65863" lon="6.20415">
        <ele>267.06</ele>
        <time>2018-09-07T13:49:10Z</time>
      </trkpt>
      <trkpt lat="47.6587" lon="6.20421">
        <ele>267.28</ele>
        <time>2018-09-07T13:49:12Z</time>
      </trkpt>
      <trkpt lat="47.65877" lon="6.20426">
        <ele>267.56</ele>
        <time>2018-09-07T13:49:14Z</time>
      </trkpt>
      <trkpt lat="47.65883" lon="6.20432">
        <ele>267.62</ele>
        <time>2018-09-07T13:49:16Z</time>
      </trkpt>
      <trkpt lat="47.65889" lon="6.20437">
        <ele>267.65</ele>
        <time>2018-09-07T13:49:18Z</time>
      </trkpt>
      <trkpt lat="47.65894" lon="6.20443">
        <ele>267.58</ele>
        <time>2018-09-07T13:49:20Z</time>
      </trkpt>
      <trkpt lat="47.659" lon="6.2045">
        <ele>267.26</ele>
        <time>2018-09-07T13:49:22Z</time>
      </trkpt>
      <trkpt lat="47.65907" lon="6.20457">
        <ele>266.99</ele>
        <time>2018-09-07T13:49:24Z</time>
      </trkpt>
      <trkpt lat="47.65914" lon="6.20463">
        <ele>266.92</ele>
        <time>2018-09-07T13:49:26Z</time>
      </trkpt>
      <trkpt lat="47.6592" lon="6.20468">
        <ele>266.85</ele>
        <time>2018-09-07T13:49:29Z</time>
      </trkpt>
      <trkpt lat="47.65926" lon="6.20472">
        <ele>266.8</ele>
        <time>2018-09-07T13:49:31Z</time>
      </trkpt>
      <trkpt lat="47.65932" lon="6.20477">
        <ele>266.74</ele>
        <time>2018-09-07T13:49:33Z</time>
      </trkpt>
      <trkpt lat="47.65939" lon="6.20482">
        <ele>266.51</ele>
        <time>2018-09-07T13:49:34Z</time>
      </trkpt>
      <trkpt lat="47.65946" lon="6.20488">
        <ele>266.02</ele>
        <time>2018-09-07T13:49:36Z</time>
      </trkpt>
      <trkpt lat="47.65954" lon="6.20493">
        <ele>265.71</ele>
        <time>2018-09-07T13:49:38Z</time>
      </trkpt>
      <trkpt lat="47.65962" lon="6.20499">
        <ele>265.48</ele>
        <time>2018-09-07T13:49:40Z</time>
      </trkpt>
      <trkpt lat="47.6597" lon="6.20504">
        <ele>265.31</ele>
        <time>2018-09-07T13:49:42Z</time>
      </trkpt>
      <trkpt lat="47.65977" lon="6.2051">
        <ele>265.14</ele>
        <time>2018-09-07T13:49:44Z</time>
      </trkpt>
      <trkpt lat="47.65985" lon="6.20515">
        <ele>264.94</ele>
        <time>2018-09-07T13:49:46Z</time>
      </trkpt>
      <trkpt lat="47.65993" lon="6.20519">
        <ele>264.67</ele>
        <time>2018-09-07T13:49:48Z</time>
      </trkpt>
      <trkpt lat="47.66001" lon="6.20521">
        <ele>264.42</ele>
        <time>2018-09-07T13:49:50Z</time>
      </trkpt>
      <trkpt lat="47.6601" lon="6.20526">
        <ele>264.22</ele>
        <time>2018-09-07T13:49:52Z</time>
      </trkpt>
      <trkpt lat="47.66014" lon="6.20528">
        <ele>264.14</ele>
        <time>2018-09-07T13:49:53Z</time>
      </trkpt>
      <trkpt lat="47.66019" lon="6.20531">
        <ele>264.07</ele>
        <time>2018-09-07T13:49:54Z</time>
      </trkpt>
      <trkpt lat="47.66023" lon="6.20533">
        <ele>264</ele>
        <time>2018-09-07T13:49:55Z</time>
      </trkpt>
      <trkpt lat="47.66028" lon="6.20536">
        <ele>263.95</ele>
        <time>2018-09-07T13:49:56Z</time>
      </trkpt>
      <trkpt lat="47.66032" lon="6.20538">
        <ele>263.9</ele>
        <time>2018-09-07T13:49:57Z</time>
      </trkpt>
      <trkpt lat="47.66039" lon="6.20543">
        <ele>263.83</ele>
        <time>2018-09-07T13:49:59Z</time>
      </trkpt>
      <trkpt lat="47.66046" lon="6.20547">
        <ele>263.81</ele>
        <time>2018-09-07T13:50:01Z</time>
      </trkpt>
      <trkpt lat="47.66053" lon="6.20551">
        <ele>263.8</ele>
        <time>2018-09-07T13:50:03Z</time>
      </trkpt>
      <trkpt lat="47.66058" lon="6.20555">
        <ele>263.8</ele>
        <time>2018-09-07T13:50:05Z</time>
      </trkpt>
      <trkpt lat="47.66065" lon="6.20558">
        <ele>263.79</ele>
        <time>2018-09-07T13:50:07Z</time>
      </trkpt>
      <trkpt lat="47.66072" lon="6.20562">
        <ele>263.77</ele>
        <time>2018-09-07T13:50:09Z</time>
      </trkpt>
      <trkpt lat="47.6608" lon="6.20566">
        <ele>263.74</ele>
        <time>2018-09-07T13:50:11Z</time>
      </trkpt>
      <trkpt lat="47.66087" lon="6.2057">
        <ele>263.71</ele>
        <time>2018-09-07T13:50:13Z</time>
      </trkpt>
      <trkpt lat="47.66094" lon="6.20574">
        <ele>263.7</ele>
        <time>2018-09-07T13:50:15Z</time>
      </trkpt>
      <trkpt lat="47.66101" lon="6.20577">
        <ele>263.7</ele>
        <time>2018-09-07T13:50:17Z</time>
      </trkpt>
      <trkpt lat="47.66107" lon="6.20581">
        <ele>263.7</ele>
        <time>2018-09-07T13:50:19Z</time>
      </trkpt>
      <trkpt lat="47.66114" lon="6.20584">
        <ele>263.7</ele>
        <time>2018-09-07T13:50:21Z</time>
      </trkpt>
      <trkpt lat="47.6612" lon="6.20588">
        <ele>263.7</ele>
        <time>2018-09-07T13:50:24Z</time>
      </trkpt>
      <trkpt lat="47.66126" lon="6.20591">
        <ele>263.71</ele>
        <time>2018-09-07T13:50:26Z</time>
      </trkpt>
      <trkpt lat="47.66131" lon="6.20593">
        <ele>263.71</ele>
        <time>2018-09-07T13:50:28Z</time>
      </trkpt>
      <trkpt lat="47.66136" lon="6.20596">
        <ele>263.72</ele>
        <time>2018-09-07T13:50:30Z</time>
      </trkpt>
      <trkpt lat="47.66142" lon="6.20598">
        <ele>263.73</ele>
        <time>2018-09-07T13:50:32Z</time>
      </trkpt>
      <trkpt lat="47.66147" lon="6.20601">
        <ele>263.73</ele>
        <time>2018-09-07T13:50:34Z</time>
      </trkpt>
      <trkpt lat="47.66152" lon="6.20604">
        <ele>263.74</ele>
        <time>2018-09-07T13:50:36Z</time>
      </trkpt>
      <trkpt lat="47.66158" lon="6.20607">
        <ele>263.75</ele>
        <time>2018-09-07T13:50:38Z</time>
      </trkpt>
      <trkpt lat="47.66164" lon="6.2061">
        <ele>263.76</ele>
        <time>2018-09-07T13:50:40Z</time>
      </trkpt>
      <trkpt lat="47.6617" lon="6.20613">
        <ele>263.77</ele>
        <time>2018-09-07T13:50:42Z</time>
      </trkpt>
      <trkpt lat="47.66175" lon="6.20617">
        <ele>263.77</ele>
        <time>2018-09-07T13:50:44Z</time>
      </trkpt>
      <trkpt lat="47.66179" lon="6.20621">
        <ele>263.78</ele>
        <time>2018-09-07T13:50:46Z</time>
      </trkpt>
      <trkpt lat="47.66183" lon="6.20627">
        <ele>263.78</ele>
        <time>2018-09-07T13:50:48Z</time>
      </trkpt>
      <trkpt lat="47.66185" lon="6.20633">
        <ele>263.78</ele>
        <time>2018-09-07T13:50:50Z</time>
      </trkpt>
      <trkpt lat="47.66184" lon="6.20642">
        <ele>263.78</ele>
        <time>2018-09-07T13:50:53Z</time>
      </trkpt>
      <trkpt lat="47.6618" lon="6.20648">
        <ele>263.75</ele>
        <time>2018-09-07T13:50:55Z</time>
      </trkpt>
      <trkpt lat="47.66175" lon="6.20655">
        <ele>263.72</ele>
        <time>2018-09-07T13:50:57Z</time>
      </trkpt>
      <trkpt lat="47.66169" lon="6.20664">
        <ele>263.69</ele>
        <time>2018-09-07T13:50:59Z</time>
      </trkpt>
      <trkpt lat="47.66165" lon="6.20673">
        <ele>263.65</ele>
        <time>2018-09-07T13:51:01Z</time>
      </trkpt>
      <trkpt lat="47.66163" lon="6.20684">
        <ele>263.59</ele>
        <time>2018-09-07T13:51:03Z</time>
      </trkpt>
      <trkpt lat="47.66164" lon="6.20695">
        <ele>263.46</ele>
        <time>2018-09-07T13:51:05Z</time>
      </trkpt>
      <trkpt lat="47.66166" lon="6.2071">
        <ele>263.39</ele>
        <time>2018-09-07T13:51:06Z</time>
      </trkpt>
      <trkpt lat="47.66168" lon="6.20723">
        <ele>263.25</ele>
        <time>2018-09-07T13:51:08Z</time>
      </trkpt>
      <trkpt lat="47.66168" lon="6.2073">
        <ele>263.17</ele>
        <time>2018-09-07T13:51:09Z</time>
      </trkpt>
      <trkpt lat="47.66166" lon="6.20738">
        <ele>263.08</ele>
        <time>2018-09-07T13:51:10Z</time>
      </trkpt>
      <trkpt lat="47.66164" lon="6.20745">
        <ele>263</ele>
        <time>2018-09-07T13:51:11Z</time>
      </trkpt>
      <trkpt lat="47.66161" lon="6.20753">
        <ele>262.91</ele>
        <time>2018-09-07T13:51:12Z</time>
      </trkpt>
      <trkpt lat="47.66156" lon="6.20761">
        <ele>262.76</ele>
        <time>2018-09-07T13:51:13Z</time>
      </trkpt>
      <trkpt lat="47.6615" lon="6.20768">
        <ele>262.57</ele>
        <time>2018-09-07T13:51:14Z</time>
      </trkpt>
      <trkpt lat="47.66144" lon="6.20776">
        <ele>262.33</ele>
        <time>2018-09-07T13:51:15Z</time>
      </trkpt>
      <trkpt lat="47.66138" lon="6.20784">
        <ele>262.07</ele>
        <time>2018-09-07T13:51:16Z</time>
      </trkpt>
      <trkpt lat="47.66131" lon="6.20792">
        <ele>261.79</ele>
        <time>2018-09-07T13:51:17Z</time>
      </trkpt>
      <trkpt lat="47.66124" lon="6.20798">
        <ele>261.47</ele>
        <time>2018-09-07T13:51:18Z</time>
      </trkpt>
      <trkpt lat="47.66117" lon="6.20802">
        <ele>261.12</ele>
        <time>2018-09-07T13:51:19Z</time>
      </trkpt>
      <trkpt lat="47.6611" lon="6.20805">
        <ele>260.74</ele>
        <time>2018-09-07T13:51:20Z</time>
      </trkpt>
      <trkpt lat="47.66102" lon="6.2081">
        <ele>260.35</ele>
        <time>2018-09-07T13:51:21Z</time>
      </trkpt>
      <trkpt lat="47.66095" lon="6.20813">
        <ele>259.98</ele>
        <time>2018-09-07T13:51:22Z</time>
      </trkpt>
      <trkpt lat="47.66087" lon="6.20816">
        <ele>259.62</ele>
        <time>2018-09-07T13:51:23Z</time>
      </trkpt>
      <trkpt lat="47.6608" lon="6.20817">
        <ele>259.25</ele>
        <time>2018-09-07T13:51:24Z</time>
      </trkpt>
      <trkpt lat="47.66073" lon="6.20817">
        <ele>258.88</ele>
        <time>2018-09-07T13:51:25Z</time>
      </trkpt>
      <trkpt lat="47.66067" lon="6.20816">
        <ele>258.52</ele>
        <time>2018-09-07T13:51:26Z</time>
      </trkpt>
      <trkpt lat="47.66061" lon="6.20814">
        <ele>258.2</ele>
        <time>2018-09-07T13:51:27Z</time>
      </trkpt>
      <trkpt lat="47.66056" lon="6.20813">
        <ele>257.88</ele>
        <time>2018-09-07T13:51:28Z</time>
      </trkpt>
      <trkpt lat="47.66051" lon="6.20812">
        <ele>257.69</ele>
        <time>2018-09-07T13:51:30Z</time>
      </trkpt>
      <trkpt lat="47.66046" lon="6.20813">
        <ele>257.55</ele>
        <time>2018-09-07T13:51:34Z</time>
      </trkpt>
      <trkpt lat="47.66042" lon="6.20819">
        <ele>257.31</ele>
        <time>2018-09-07T13:51:38Z</time>
      </trkpt>
      <trkpt lat="47.66039" lon="6.20826">
        <ele>257.07</ele>
        <time>2018-09-07T13:51:41Z</time>
      </trkpt>
      <trkpt lat="47.66036" lon="6.20835">
        <ele>256.8</ele>
        <time>2018-09-07T13:51:44Z</time>
      </trkpt>
      <trkpt lat="47.66034" lon="6.20841">
        <ele>256.61</ele>
        <time>2018-09-07T13:51:46Z</time>
      </trkpt>
      <trkpt lat="47.66031" lon="6.20847">
        <ele>256.42</ele>
        <time>2018-09-07T13:51:48Z</time>
      </trkpt>
      <trkpt lat="47.66029" lon="6.20854">
        <ele>256.21</ele>
        <time>2018-09-07T13:51:50Z</time>
      </trkpt>
      <trkpt lat="47.66026" lon="6.20862">
        <ele>255.99</ele>
        <time>2018-09-07T13:51:52Z</time>
      </trkpt>
      <trkpt lat="47.66024" lon="6.20873">
        <ele>255.75</ele>
        <time>2018-09-07T13:51:54Z</time>
      </trkpt>
      <trkpt lat="47.66021" lon="6.20882">
        <ele>255.52</ele>
        <time>2018-09-07T13:51:56Z</time>
      </trkpt>
      <trkpt lat="47.66019" lon="6.20891">
        <ele>255.27</ele>
        <time>2018-09-07T13:51:58Z</time>
      </trkpt>
      <trkpt lat="47.66017" lon="6.20899">
        <ele>255</ele>
        <time>2018-09-07T13:52:00Z</time>
      </trkpt>
      <trkpt lat="47.66017" lon="6.20906">
        <ele>254.75</ele>
        <time>2018-09-07T13:52:02Z</time>
      </trkpt>
      <trkpt lat="47.6602" lon="6.20911">
        <ele>254.5</ele>
        <time>2018-09-07T13:52:04Z</time>
      </trkpt>
      <trkpt lat="47.66025" lon="6.20913">
        <ele>254.28</ele>
        <time>2018-09-07T13:52:06Z</time>
      </trkpt>
      <trkpt lat="47.6603" lon="6.20914">
        <ele>254.07</ele>
        <time>2018-09-07T13:52:08Z</time>
      </trkpt>
      <trkpt lat="47.66036" lon="6.20913">
        <ele>253.87</ele>
        <time>2018-09-07T13:52:10Z</time>
      </trkpt>
      <trkpt lat="47.66041" lon="6.20913">
        <ele>253.68</ele>
        <time>2018-09-07T13:52:12Z</time>
      </trkpt>
      <trkpt lat="47.66046" lon="6.20912">
        <ele>253.48</ele>
        <time>2018-09-07T13:52:14Z</time>
      </trkpt>
      <trkpt lat="47.66052" lon="6.20912">
        <ele>253.3</ele>
        <time>2018-09-07T13:52:16Z</time>
      </trkpt>
      <trkpt lat="47.66057" lon="6.20912">
        <ele>253.14</ele>
        <time>2018-09-07T13:52:18Z</time>
      </trkpt>
      <trkpt lat="47.66062" lon="6.20911">
        <ele>252.98</ele>
        <time>2018-09-07T13:52:20Z</time>
      </trkpt>
      <trkpt lat="47.66067" lon="6.20911">
        <ele>252.81</ele>
        <time>2018-09-07T13:52:22Z</time>
      </trkpt>
      <trkpt lat="47.66072" lon="6.20911">
        <ele>252.64</ele>
        <time>2018-09-07T13:52:24Z</time>
      </trkpt>
      <trkpt lat="47.66076" lon="6.2091">
        <ele>252.46</ele>
        <time>2018-09-07T13:52:26Z</time>
      </trkpt>
      <trkpt lat="47.66081" lon="6.2091">
        <ele>252.28</ele>
        <time>2018-09-07T13:52:28Z</time>
      </trkpt>
      <trkpt lat="47.66088" lon="6.20909">
        <ele>251.99</ele>
        <time>2018-09-07T13:52:31Z</time>
      </trkpt>
      <trkpt lat="47.66092" lon="6.20908">
        <ele>251.78</ele>
        <time>2018-09-07T13:52:33Z</time>
      </trkpt>
      <trkpt lat="47.66097" lon="6.20907">
        <ele>251.58</ele>
        <time>2018-09-07T13:52:35Z</time>
      </trkpt>
      <trkpt lat="47.66102" lon="6.20906">
        <ele>251.37</ele>
        <time>2018-09-07T13:52:37Z</time>
      </trkpt>
      <trkpt lat="47.66108" lon="6.20905">
        <ele>251.18</ele>
        <time>2018-09-07T13:52:39Z</time>
      </trkpt>
      <trkpt lat="47.66114" lon="6.20904">
        <ele>251</ele>
        <time>2018-09-07T13:52:41Z</time>
      </trkpt>
      <trkpt lat="47.66119" lon="6.20903">
        <ele>250.83</ele>
        <time>2018-09-07T13:52:43Z</time>
      </trkpt>
      <trkpt lat="47.66125" lon="6.20902">
        <ele>250.66</ele>
        <time>2018-09-07T13:52:45Z</time>
      </trkpt>
      <trkpt lat="47.6613" lon="6.20901">
        <ele>250.5</ele>
        <time>2018-09-07T13:52:47Z</time>
      </trkpt>
      <trkpt lat="47.66136" lon="6.209">
        <ele>250.35</ele>
        <time>2018-09-07T13:52:49Z</time>
      </trkpt>
      <trkpt lat="47.66144" lon="6.20899">
        <ele>249.8</ele>
        <time>2018-09-07T13:52:50Z</time>
      </trkpt>
      <trkpt lat="47.66152" lon="6.20898">
        <ele>248.63</ele>
        <time>2018-09-07T13:52:52Z</time>
      </trkpt>
      <trkpt lat="47.6616" lon="6.20895">
        <ele>247.73</ele>
        <time>2018-09-07T13:52:54Z</time>
      </trkpt>
      <trkpt lat="47.66164" lon="6.20893">
        <ele>247.39</ele>
        <time>2018-09-07T13:52:55Z</time>
      </trkpt>
      <trkpt lat="47.66172" lon="6.20888">
        <ele>246.84</ele>
        <time>2018-09-07T13:52:57Z</time>
      </trkpt>
      <trkpt lat="47.6618" lon="6.20882">
        <ele>246.41</ele>
        <time>2018-09-07T13:52:59Z</time>
      </trkpt>
      <trkpt lat="47.66185" lon="6.2088">
        <ele>246.23</ele>
        <time>2018-09-07T13:53:00Z</time>
      </trkpt>
      <trkpt lat="47.6619" lon="6.20877">
        <ele>246.09</ele>
        <time>2018-09-07T13:53:01Z</time>
      </trkpt>
      <trkpt lat="47.66195" lon="6.20874">
        <ele>245.96</ele>
        <time>2018-09-07T13:53:02Z</time>
      </trkpt>
      <trkpt lat="47.66202" lon="6.20868">
        <ele>245.71</ele>
        <time>2018-09-07T13:53:04Z</time>
      </trkpt>
      <trkpt lat="47.66208" lon="6.20863">
        <ele>245.64</ele>
        <time>2018-09-07T13:53:06Z</time>
      </trkpt>
      <trkpt lat="47.66214" lon="6.20859">
        <ele>245.62</ele>
        <time>2018-09-07T13:53:08Z</time>
      </trkpt>
      <trkpt lat="47.6622" lon="6.20856">
        <ele>245.6</ele>
        <time>2018-09-07T13:53:10Z</time>
      </trkpt>
      <trkpt lat="47.66224" lon="6.20854">
        <ele>245.57</ele>
        <time>2018-09-07T13:53:12Z</time>
      </trkpt>
      <trkpt lat="47.66229" lon="6.20852">
        <ele>245.52</ele>
        <time>2018-09-07T13:53:15Z</time>
      </trkpt>
      <trkpt lat="47.66235" lon="6.20851">
        <ele>245.46</ele>
        <time>2018-09-07T13:53:18Z</time>
      </trkpt>
      <trkpt lat="47.6624" lon="6.2085">
        <ele>245.42</ele>
        <time>2018-09-07T13:53:20Z</time>
      </trkpt>
      <trkpt lat="47.66245" lon="6.20851">
        <ele>245.38</ele>
        <time>2018-09-07T13:53:22Z</time>
      </trkpt>
      <trkpt lat="47.66251" lon="6.20852">
        <ele>245.34</ele>
        <time>2018-09-07T13:53:24Z</time>
      </trkpt>
      <trkpt lat="47.66256" lon="6.20855">
        <ele>245.3</ele>
        <time>2018-09-07T13:53:26Z</time>
      </trkpt>
      <trkpt lat="47.66263" lon="6.20859">
        <ele>245.07</ele>
        <time>2018-09-07T13:53:28Z</time>
      </trkpt>
      <trkpt lat="47.6627" lon="6.20862">
        <ele>244.75</ele>
        <time>2018-09-07T13:53:30Z</time>
      </trkpt>
      <trkpt lat="47.66277" lon="6.20867">
        <ele>244.47</ele>
        <time>2018-09-07T13:53:32Z</time>
      </trkpt>
      <trkpt lat="47.66283" lon="6.20875">
        <ele>244.24</ele>
        <time>2018-09-07T13:53:34Z</time>
      </trkpt>
      <trkpt lat="47.6629" lon="6.20889">
        <ele>244.14</ele>
        <time>2018-09-07T13:53:35Z</time>
      </trkpt>
      <trkpt lat="47.66295" lon="6.20899">
        <ele>243.95</ele>
        <time>2018-09-07T13:53:37Z</time>
      </trkpt>
      <trkpt lat="47.66301" lon="6.20905">
        <ele>243.85</ele>
        <time>2018-09-07T13:53:39Z</time>
      </trkpt>
      <trkpt lat="47.66306" lon="6.20908">
        <ele>243.8</ele>
        <time>2018-09-07T13:53:41Z</time>
      </trkpt>
      <trkpt lat="47.66311" lon="6.20907">
        <ele>243.78</ele>
        <time>2018-09-07T13:53:43Z</time>
      </trkpt>
      <trkpt lat="47.66317" lon="6.20908">
        <ele>243.75</ele>
        <time>2018-09-07T13:53:46Z</time>
      </trkpt>
      <trkpt lat="47.66322" lon="6.2091">
        <ele>243.72</ele>
        <time>2018-09-07T13:53:48Z</time>
      </trkpt>
      <trkpt lat="47.66327" lon="6.20913">
        <ele>243.69</ele>
        <time>2018-09-07T13:53:50Z</time>
      </trkpt>
      <trkpt lat="47.66332" lon="6.20917">
        <ele>243.65</ele>
        <time>2018-09-07T13:53:52Z</time>
      </trkpt>
      <trkpt lat="47.66337" lon="6.2092">
        <ele>243.61</ele>
        <time>2018-09-07T13:53:54Z</time>
      </trkpt>
      <trkpt lat="47.66342" lon="6.20923">
        <ele>243.57</ele>
        <time>2018-09-07T13:53:56Z</time>
      </trkpt>
      <trkpt lat="47.66346" lon="6.20926">
        <ele>243.53</ele>
        <time>2018-09-07T13:53:58Z</time>
      </trkpt>
      <trkpt lat="47.66352" lon="6.20931">
        <ele>243.47</ele>
        <time>2018-09-07T13:54:01Z</time>
      </trkpt>
      <trkpt lat="47.66357" lon="6.20936">
        <ele>243.41</ele>
        <time>2018-09-07T13:54:04Z</time>
      </trkpt>
      <trkpt lat="47.66362" lon="6.20941">
        <ele>243.34</ele>
        <time>2018-09-07T13:54:07Z</time>
      </trkpt>
      <trkpt lat="47.66368" lon="6.20946">
        <ele>243.28</ele>
        <time>2018-09-07T13:54:10Z</time>
      </trkpt>
      <trkpt lat="47.66373" lon="6.20952">
        <ele>243.21</ele>
        <time>2018-09-07T13:54:13Z</time>
      </trkpt>
      <trkpt lat="47.66378" lon="6.20959">
        <ele>243.14</ele>
        <time>2018-09-07T13:54:16Z</time>
      </trkpt>
      <trkpt lat="47.66382" lon="6.20966">
        <ele>243.08</ele>
        <time>2018-09-07T13:54:19Z</time>
      </trkpt>
      <trkpt lat="47.66386" lon="6.20974">
        <ele>243.01</ele>
        <time>2018-09-07T13:54:22Z</time>
      </trkpt>
      <trkpt lat="47.66389" lon="6.20983">
        <ele>242.95</ele>
        <time>2018-09-07T13:54:25Z</time>
      </trkpt>
      <trkpt lat="47.6639" lon="6.20992">
        <ele>242.6</ele>
        <time>2018-09-07T13:54:27Z</time>
      </trkpt>
      <trkpt lat="47.66391" lon="6.21003">
        <ele>242.3</ele>
        <time>2018-09-07T13:54:29Z</time>
      </trkpt>
      <trkpt lat="47.66392" lon="6.21016">
        <ele>242.07</ele>
        <time>2018-09-07T13:54:31Z</time>
      </trkpt>
      <trkpt lat="47.66392" lon="6.21023">
        <ele>241.98</ele>
        <time>2018-09-07T13:54:32Z</time>
      </trkpt>
      <trkpt lat="47.66393" lon="6.21048">
        <ele>241.9</ele>
        <time>2018-09-07T13:54:33Z</time>
      </trkpt>
      <trkpt lat="47.66393" lon="6.21056">
        <ele>241.82</ele>
        <time>2018-09-07T13:54:34Z</time>
      </trkpt>
      <trkpt lat="47.66393" lon="6.21064">
        <ele>241.75</ele>
        <time>2018-09-07T13:54:35Z</time>
      </trkpt>
      <trkpt lat="47.66394" lon="6.21072">
        <ele>241.69</ele>
        <time>2018-09-07T13:54:36Z</time>
      </trkpt>
      <trkpt lat="47.66394" lon="6.2108">
        <ele>241.62</ele>
        <time>2018-09-07T13:54:37Z</time>
      </trkpt>
      <trkpt lat="47.66395" lon="6.21089">
        <ele>241.57</ele>
        <time>2018-09-07T13:54:38Z</time>
      </trkpt>
      <trkpt lat="47.66396" lon="6.21098">
        <ele>241.51</ele>
        <time>2018-09-07T13:54:39Z</time>
      </trkpt>
      <trkpt lat="47.66397" lon="6.21108">
        <ele>241.46</ele>
        <time>2018-09-07T13:54:40Z</time>
      </trkpt>
      <trkpt lat="47.66398" lon="6.21117">
        <ele>241.4</ele>
        <time>2018-09-07T13:54:41Z</time>
      </trkpt>
      <trkpt lat="47.66399" lon="6.21126">
        <ele>241.35</ele>
        <time>2018-09-07T13:54:42Z</time>
      </trkpt>
      <trkpt lat="47.66399" lon="6.21134">
        <ele>241.3</ele>
        <time>2018-09-07T13:54:43Z</time>
      </trkpt>
      <trkpt lat="47.66399" lon="6.21143">
        <ele>241.24</ele>
        <time>2018-09-07T13:54:44Z</time>
      </trkpt>
      <trkpt lat="47.66397" lon="6.21153">
        <ele>241.18</ele>
        <time>2018-09-07T13:54:45Z</time>
      </trkpt>
      <trkpt lat="47.66394" lon="6.21162">
        <ele>241.12</ele>
        <time>2018-09-07T13:54:46Z</time>
      </trkpt>
      <trkpt lat="47.66389" lon="6.21172">
        <ele>241.06</ele>
        <time>2018-09-07T13:54:47Z</time>
      </trkpt>
      <trkpt lat="47.66385" lon="6.21182">
        <ele>241</ele>
        <time>2018-09-07T13:54:48Z</time>
      </trkpt>
      <trkpt lat="47.66381" lon="6.21192">
        <ele>240.96</ele>
        <time>2018-09-07T13:54:49Z</time>
      </trkpt>
      <trkpt lat="47.66377" lon="6.21202">
        <ele>240.9</ele>
        <time>2018-09-07T13:54:50Z</time>
      </trkpt>
      <trkpt lat="47.66372" lon="6.21211">
        <ele>240.84</ele>
        <time>2018-09-07T13:54:51Z</time>
      </trkpt>
      <trkpt lat="47.66368" lon="6.2122">
        <ele>240.78</ele>
        <time>2018-09-07T13:54:52Z</time>
      </trkpt>
      <trkpt lat="47.66363" lon="6.21229">
        <ele>240.73</ele>
        <time>2018-09-07T13:54:53Z</time>
      </trkpt>
      <trkpt lat="47.66359" lon="6.21238">
        <ele>240.67</ele>
        <time>2018-09-07T13:54:54Z</time>
      </trkpt>
      <trkpt lat="47.66355" lon="6.21248">
        <ele>240.55</ele>
        <time>2018-09-07T13:54:55Z</time>
      </trkpt>
      <trkpt lat="47.66351" lon="6.21257">
        <ele>240.43</ele>
        <time>2018-09-07T13:54:56Z</time>
      </trkpt>
      <trkpt lat="47.66346" lon="6.21265">
        <ele>240.28</ele>
        <time>2018-09-07T13:54:57Z</time>
      </trkpt>
      <trkpt lat="47.66342" lon="6.21274">
        <ele>240.13</ele>
        <time>2018-09-07T13:54:58Z</time>
      </trkpt>
      <trkpt lat="47.66339" lon="6.21283">
        <ele>239.99</ele>
        <time>2018-09-07T13:54:59Z</time>
      </trkpt>
      <trkpt lat="47.66337" lon="6.21291">
        <ele>239.95</ele>
        <time>2018-09-07T13:55:00Z</time>
      </trkpt>
      <trkpt lat="47.66334" lon="6.213">
        <ele>239.89</ele>
        <time>2018-09-07T13:55:01Z</time>
      </trkpt>
      <trkpt lat="47.66333" lon="6.21308">
        <ele>239.8</ele>
        <time>2018-09-07T13:55:02Z</time>
      </trkpt>
      <trkpt lat="47.6633" lon="6.21317">
        <ele>239.68</ele>
        <time>2018-09-07T13:55:03Z</time>
      </trkpt>
      <trkpt lat="47.66329" lon="6.21325">
        <ele>239.57</ele>
        <time>2018-09-07T13:55:04Z</time>
      </trkpt>
      <trkpt lat="47.66327" lon="6.21332">
        <ele>239.48</ele>
        <time>2018-09-07T13:55:05Z</time>
      </trkpt>
      <trkpt lat="47.66326" lon="6.2134">
        <ele>239.39</ele>
        <time>2018-09-07T13:55:06Z</time>
      </trkpt>
      <trkpt lat="47.66325" lon="6.21347">
        <ele>239.29</ele>
        <time>2018-09-07T13:55:07Z</time>
      </trkpt>
      <trkpt lat="47.66322" lon="6.21358">
        <ele>239.15</ele>
        <time>2018-09-07T13:55:09Z</time>
      </trkpt>
      <trkpt lat="47.6632" lon="6.21366">
        <ele>239.1</ele>
        <time>2018-09-07T13:55:12Z</time>
      </trkpt>
      <trkpt lat="47.66316" lon="6.21374">
        <ele>239.05</ele>
        <time>2018-09-07T13:55:15Z</time>
      </trkpt>
      <trkpt lat="47.66312" lon="6.21383">
        <ele>238.97</ele>
        <time>2018-09-07T13:55:18Z</time>
      </trkpt>
      <trkpt lat="47.66306" lon="6.21397">
        <ele>238.68</ele>
        <time>2018-09-07T13:55:20Z</time>
      </trkpt>
      <trkpt lat="47.66304" lon="6.21403">
        <ele>238.38</ele>
        <time>2018-09-07T13:55:21Z</time>
      </trkpt>
      <trkpt lat="47.66303" lon="6.2141">
        <ele>238.1</ele>
        <time>2018-09-07T13:55:22Z</time>
      </trkpt>
      <trkpt lat="47.66303" lon="6.21418">
        <ele>237.85</ele>
        <time>2018-09-07T13:55:23Z</time>
      </trkpt>
      <trkpt lat="47.66303" lon="6.21425">
        <ele>237.62</ele>
        <time>2018-09-07T13:55:24Z</time>
      </trkpt>
      <trkpt lat="47.66303" lon="6.21432">
        <ele>237.41</ele>
        <time>2018-09-07T13:55:25Z</time>
      </trkpt>
      <trkpt lat="47.66303" lon="6.21445">
        <ele>237.1</ele>
        <time>2018-09-07T13:55:27Z</time>
      </trkpt>
      <trkpt lat="47.66302" lon="6.21457">
        <ele>236.8</ele>
        <time>2018-09-07T13:55:29Z</time>
      </trkpt>
      <trkpt lat="47.663" lon="6.21469">
        <ele>236.61</ele>
        <time>2018-09-07T13:55:31Z</time>
      </trkpt>
      <trkpt lat="47.66299" lon="6.21482">
        <ele>236.46</ele>
        <time>2018-09-07T13:55:33Z</time>
      </trkpt>
      <trkpt lat="47.66298" lon="6.21493">
        <ele>236.33</ele>
        <time>2018-09-07T13:55:35Z</time>
      </trkpt>
      <trkpt lat="47.66298" lon="6.21505">
        <ele>236.26</ele>
        <time>2018-09-07T13:55:37Z</time>
      </trkpt>
      <trkpt lat="47.66298" lon="6.21515">
        <ele>236.25</ele>
        <time>2018-09-07T13:55:39Z</time>
      </trkpt>
      <trkpt lat="47.66299" lon="6.21526">
        <ele>236.27</ele>
        <time>2018-09-07T13:55:41Z</time>
      </trkpt>
      <trkpt lat="47.66299" lon="6.21535">
        <ele>236.29</ele>
        <time>2018-09-07T13:55:44Z</time>
      </trkpt>
      <trkpt lat="47.663" lon="6.21542">
        <ele>236.3</ele>
        <time>2018-09-07T13:55:46Z</time>
      </trkpt>
      <trkpt lat="47.66301" lon="6.2155">
        <ele>236.3</ele>
        <time>2018-09-07T13:55:48Z</time>
      </trkpt>
      <trkpt lat="47.66302" lon="6.21558">
        <ele>236.31</ele>
        <time>2018-09-07T13:55:50Z</time>
      </trkpt>
      <trkpt lat="47.66303" lon="6.21566">
        <ele>236.31</ele>
        <time>2018-09-07T13:55:52Z</time>
      </trkpt>
      <trkpt lat="47.66304" lon="6.21573">
        <ele>236.3</ele>
        <time>2018-09-07T13:55:54Z</time>
      </trkpt>
      <trkpt lat="47.66305" lon="6.21581">
        <ele>236.28</ele>
        <time>2018-09-07T13:55:56Z</time>
      </trkpt>
      <trkpt lat="47.66306" lon="6.21589">
        <ele>236.27</ele>
        <time>2018-09-07T13:55:58Z</time>
      </trkpt>
      <trkpt lat="47.66307" lon="6.21597">
        <ele>236.26</ele>
        <time>2018-09-07T13:56:00Z</time>
      </trkpt>
      <trkpt lat="47.66309" lon="6.21605">
        <ele>236.26</ele>
        <time>2018-09-07T13:56:02Z</time>
      </trkpt>
      <trkpt lat="47.66311" lon="6.21614">
        <ele>236.26</ele>
        <time>2018-09-07T13:56:04Z</time>
      </trkpt>
      <trkpt lat="47.66312" lon="6.21622">
        <ele>236.27</ele>
        <time>2018-09-07T13:56:06Z</time>
      </trkpt>
      <trkpt lat="47.66313" lon="6.21629">
        <ele>236.27</ele>
        <time>2018-09-07T13:56:08Z</time>
      </trkpt>
      <trkpt lat="47.66313" lon="6.21636">
        <ele>236.28</ele>
        <time>2018-09-07T13:56:10Z</time>
      </trkpt>
      <trkpt lat="47.66314" lon="6.21643">
        <ele>236.29</ele>
        <time>2018-09-07T13:56:12Z</time>
      </trkpt>
      <trkpt lat="47.66314" lon="6.21651">
        <ele>236.3</ele>
        <time>2018-09-07T13:56:14Z</time>
      </trkpt>
      <trkpt lat="47.66315" lon="6.21659">
        <ele>236.31</ele>
        <time>2018-09-07T13:56:16Z</time>
      </trkpt>
      <trkpt lat="47.66315" lon="6.21666">
        <ele>236.33</ele>
        <time>2018-09-07T13:56:18Z</time>
      </trkpt>
      <trkpt lat="47.66316" lon="6.21675">
        <ele>236.34</ele>
        <time>2018-09-07T13:56:20Z</time>
      </trkpt>
      <trkpt lat="47.66316" lon="6.21682">
        <ele>236.36</ele>
        <time>2018-09-07T13:56:22Z</time>
      </trkpt>
      <trkpt lat="47.66316" lon="6.21691">
        <ele>236.39</ele>
        <time>2018-09-07T13:56:24Z</time>
      </trkpt>
      <trkpt lat="47.66316" lon="6.21697">
        <ele>236.42</ele>
        <time>2018-09-07T13:56:26Z</time>
      </trkpt>
      <trkpt lat="47.66315" lon="6.21705">
        <ele>236.45</ele>
        <time>2018-09-07T13:56:28Z</time>
      </trkpt>
      <trkpt lat="47.66315" lon="6.21713">
        <ele>236.49</ele>
        <time>2018-09-07T13:56:30Z</time>
      </trkpt>
      <trkpt lat="47.66314" lon="6.21721">
        <ele>236.55</ele>
        <time>2018-09-07T13:56:32Z</time>
      </trkpt>
      <trkpt lat="47.66313" lon="6.2173">
        <ele>236.61</ele>
        <time>2018-09-07T13:56:34Z</time>
      </trkpt>
      <trkpt lat="47.66312" lon="6.21738">
        <ele>236.68</ele>
        <time>2018-09-07T13:56:36Z</time>
      </trkpt>
      <trkpt lat="47.66311" lon="6.21747">
        <ele>236.75</ele>
        <time>2018-09-07T13:56:38Z</time>
      </trkpt>
      <trkpt lat="47.66309" lon="6.21754">
        <ele>236.82</ele>
        <time>2018-09-07T13:56:40Z</time>
      </trkpt>
      <trkpt lat="47.66307" lon="6.21762">
        <ele>236.89</ele>
        <time>2018-09-07T13:56:42Z</time>
      </trkpt>
      <trkpt lat="47.66305" lon="6.2177">
        <ele>236.96</ele>
        <time>2018-09-07T13:56:44Z</time>
      </trkpt>
      <trkpt lat="47.66303" lon="6.21776">
        <ele>237.04</ele>
        <time>2018-09-07T13:56:46Z</time>
      </trkpt>
      <trkpt lat="47.663" lon="6.21785">
        <ele>237.15</ele>
        <time>2018-09-07T13:56:49Z</time>
      </trkpt>
      <trkpt lat="47.66297" lon="6.21792">
        <ele>237.28</ele>
        <time>2018-09-07T13:56:52Z</time>
      </trkpt>
      <trkpt lat="47.66295" lon="6.21799">
        <ele>237.41</ele>
        <time>2018-09-07T13:56:55Z</time>
      </trkpt>
      <trkpt lat="47.66293" lon="6.21805">
        <ele>237.51</ele>
        <time>2018-09-07T13:56:57Z</time>
      </trkpt>
      <trkpt lat="47.66289" lon="6.21815">
        <ele>237.67</ele>
        <time>2018-09-07T13:57:00Z</time>
      </trkpt>
      <trkpt lat="47.66285" lon="6.2182">
        <ele>237.78</ele>
        <time>2018-09-07T13:57:02Z</time>
      </trkpt>
      <trkpt lat="47.66279" lon="6.21827">
        <ele>237.9</ele>
        <time>2018-09-07T13:57:04Z</time>
      </trkpt>
      <trkpt lat="47.66275" lon="6.21832">
        <ele>238.02</ele>
        <time>2018-09-07T13:57:06Z</time>
      </trkpt>
      <trkpt lat="47.66271" lon="6.21838">
        <ele>238.14</ele>
        <time>2018-09-07T13:57:08Z</time>
      </trkpt>
      <trkpt lat="47.66269" lon="6.21845">
        <ele>238.26</ele>
        <time>2018-09-07T13:57:10Z</time>
      </trkpt>
      <trkpt lat="47.66267" lon="6.21852">
        <ele>238.45</ele>
        <time>2018-09-07T13:57:13Z</time>
      </trkpt>
      <trkpt lat="47.66266" lon="6.21861">
        <ele>238.64</ele>
        <time>2018-09-07T13:57:16Z</time>
      </trkpt>
      <trkpt lat="47.66265" lon="6.21871">
        <ele>238.83</ele>
        <time>2018-09-07T13:57:19Z</time>
      </trkpt>
      <trkpt lat="47.66264" lon="6.21878">
        <ele>239.02</ele>
        <time>2018-09-07T13:57:22Z</time>
      </trkpt>
      <trkpt lat="47.66262" lon="6.21885">
        <ele>239.19</ele>
        <time>2018-09-07T13:57:25Z</time>
      </trkpt>
      <trkpt lat="47.66259" lon="6.21891">
        <ele>239.41</ele>
        <time>2018-09-07T13:57:29Z</time>
      </trkpt>
      <trkpt lat="47.66254" lon="6.21897">
        <ele>239.64</ele>
        <time>2018-09-07T13:57:34Z</time>
      </trkpt>
      <trkpt lat="47.6625" lon="6.21901">
        <ele>239.82</ele>
        <time>2018-09-07T13:57:38Z</time>
      </trkpt>
      <trkpt lat="47.66246" lon="6.21905">
        <ele>239.9</ele>
        <time>2018-09-07T13:57:40Z</time>
      </trkpt>
      <trkpt lat="47.66242" lon="6.2191">
        <ele>239.98</ele>
        <time>2018-09-07T13:57:42Z</time>
      </trkpt>
      <trkpt lat="47.66238" lon="6.21914">
        <ele>240.09</ele>
        <time>2018-09-07T13:57:45Z</time>
      </trkpt>
      <trkpt lat="47.66233" lon="6.21918">
        <ele>240.2</ele>
        <time>2018-09-07T13:57:48Z</time>
      </trkpt>
      <trkpt lat="47.66229" lon="6.21923">
        <ele>240.3</ele>
        <time>2018-09-07T13:57:51Z</time>
      </trkpt>
      <trkpt lat="47.66224" lon="6.21928">
        <ele>240.42</ele>
        <time>2018-09-07T13:57:55Z</time>
      </trkpt>
      <trkpt lat="47.6622" lon="6.21932">
        <ele>240.51</ele>
        <time>2018-09-07T13:57:58Z</time>
      </trkpt>
      <trkpt lat="47.66216" lon="6.21937">
        <ele>240.63</ele>
        <time>2018-09-07T13:58:02Z</time>
      </trkpt>
      <trkpt lat="47.66212" lon="6.21941">
        <ele>240.74</ele>
        <time>2018-09-07T13:58:06Z</time>
      </trkpt>
      <trkpt lat="47.66208" lon="6.21945">
        <ele>240.85</ele>
        <time>2018-09-07T13:58:10Z</time>
      </trkpt>
      <trkpt lat="47.66203" lon="6.21949">
        <ele>240.95</ele>
        <time>2018-09-07T13:58:14Z</time>
      </trkpt>
      <trkpt lat="47.66199" lon="6.21953">
        <ele>241.05</ele>
        <time>2018-09-07T13:58:18Z</time>
      </trkpt>
      <trkpt lat="47.66195" lon="6.21957">
        <ele>241.15</ele>
        <time>2018-09-07T13:58:22Z</time>
      </trkpt>
      <trkpt lat="47.66191" lon="6.21961">
        <ele>241.26</ele>
        <time>2018-09-07T13:58:26Z</time>
      </trkpt>
      <trkpt lat="47.66185" lon="6.21963">
        <ele>241.37</ele>
        <time>2018-09-07T13:58:30Z</time>
      </trkpt>
      <trkpt lat="47.6618" lon="6.21964">
        <ele>241.5</ele>
        <time>2018-09-07T13:58:34Z</time>
      </trkpt>
      <trkpt lat="47.66174" lon="6.21964">
        <ele>241.63</ele>
        <time>2018-09-07T13:58:38Z</time>
      </trkpt>
      <trkpt lat="47.66169" lon="6.21962">
        <ele>241.77</ele>
        <time>2018-09-07T13:58:42Z</time>
      </trkpt>
      <trkpt lat="47.66164" lon="6.21959">
        <ele>241.92</ele>
        <time>2018-09-07T13:58:46Z</time>
      </trkpt>
      <trkpt lat="47.6616" lon="6.21955">
        <ele>242.07</ele>
        <time>2018-09-07T13:58:50Z</time>
      </trkpt>
      <trkpt lat="47.66156" lon="6.21951">
        <ele>242.23</ele>
        <time>2018-09-07T13:58:54Z</time>
      </trkpt>
      <trkpt lat="47.66153" lon="6.21947">
        <ele>242.4</ele>
        <time>2018-09-07T13:58:58Z</time>
      </trkpt>
      <trkpt lat="47.66149" lon="6.21941">
        <ele>242.61</ele>
        <time>2018-09-07T13:59:03Z</time>
      </trkpt>
      <trkpt lat="47.66145" lon="6.21937">
        <ele>242.78</ele>
        <time>2018-09-07T13:59:07Z</time>
      </trkpt>
      <trkpt lat="47.66141" lon="6.21932">
        <ele>242.96</ele>
        <time>2018-09-07T13:59:11Z</time>
      </trkpt>
      <trkpt lat="47.66137" lon="6.21927">
        <ele>243.18</ele>
        <time>2018-09-07T13:59:16Z</time>
      </trkpt>
      <trkpt lat="47.66134" lon="6.21922">
        <ele>243.36</ele>
        <time>2018-09-07T13:59:20Z</time>
      </trkpt>
      <trkpt lat="47.66133" lon="6.21914">
        <ele>243.59</ele>
        <time>2018-09-07T13:59:25Z</time>
      </trkpt>
      <trkpt lat="47.6613" lon="6.21908">
        <ele>243.81</ele>
        <time>2018-09-07T13:59:30Z</time>
      </trkpt>
      <trkpt lat="47.66126" lon="6.21902">
        <ele>244.04</ele>
        <time>2018-09-07T13:59:35Z</time>
      </trkpt>
      <trkpt lat="47.66121" lon="6.21898">
        <ele>244.23</ele>
        <time>2018-09-07T13:59:39Z</time>
      </trkpt>
      <trkpt lat="47.66117" lon="6.21894">
        <ele>244.37</ele>
        <time>2018-09-07T13:59:42Z</time>
      </trkpt>
      <trkpt lat="47.66114" lon="6.21889">
        <ele>244.56</ele>
        <time>2018-09-07T13:59:46Z</time>
      </trkpt>
      <trkpt lat="47.6611" lon="6.21884">
        <ele>244.75</ele>
        <time>2018-09-07T13:59:50Z</time>
      </trkpt>
      <trkpt lat="47.66106" lon="6.21881">
        <ele>244.95</ele>
        <time>2018-09-07T13:59:54Z</time>
      </trkpt>
      <trkpt lat="47.66104" lon="6.21874">
        <ele>245.14</ele>
        <time>2018-09-07T13:59:58Z</time>
      </trkpt>
      <trkpt lat="47.661" lon="6.21868">
        <ele>245.39</ele>
        <time>2018-09-07T14:00:03Z</time>
      </trkpt>
      <trkpt lat="47.66095" lon="6.21866">
        <ele>245.59</ele>
        <time>2018-09-07T14:00:07Z</time>
      </trkpt>
      <trkpt lat="47.66093" lon="6.21859">
        <ele>245.83</ele>
        <time>2018-09-07T14:00:12Z</time>
      </trkpt>
      <trkpt lat="47.66091" lon="6.21853">
        <ele>246.08</ele>
        <time>2018-09-07T14:00:17Z</time>
      </trkpt>
      <trkpt lat="47.66086" lon="6.2185">
        <ele>246.34</ele>
        <time>2018-09-07T14:00:22Z</time>
      </trkpt>
      <trkpt lat="47.66082" lon="6.21846">
        <ele>246.6</ele>
        <time>2018-09-07T14:00:27Z</time>
      </trkpt>
      <trkpt lat="47.6608" lon="6.21839">
        <ele>246.8</ele>
        <time>2018-09-07T14:00:31Z</time>
      </trkpt>
      <trkpt lat="47.66077" lon="6.21833">
        <ele>247.07</ele>
        <time>2018-09-07T14:00:36Z</time>
      </trkpt>
      <trkpt lat="47.66073" lon="6.21827">
        <ele>247.33</ele>
        <time>2018-09-07T14:00:41Z</time>
      </trkpt>
      <trkpt lat="47.66069" lon="6.21823">
        <ele>247.55</ele>
        <time>2018-09-07T14:00:45Z</time>
      </trkpt>
      <trkpt lat="47.66066" lon="6.21817">
        <ele>247.81</ele>
        <time>2018-09-07T14:00:50Z</time>
      </trkpt>
      <trkpt lat="47.66062" lon="6.21813">
        <ele>248.07</ele>
        <time>2018-09-07T14:00:55Z</time>
      </trkpt>
      <trkpt lat="47.66059" lon="6.21808">
        <ele>248.29</ele>
        <time>2018-09-07T14:00:59Z</time>
      </trkpt>
      <trkpt lat="47.66055" lon="6.21803">
        <ele>248.55</ele>
        <time>2018-09-07T14:01:04Z</time>
      </trkpt>
      <trkpt lat="47.66051" lon="6.21798">
        <ele>248.82</ele>
        <time>2018-09-07T14:01:09Z</time>
      </trkpt>
      <trkpt lat="47.66047" lon="6.21792">
        <ele>249.03</ele>
        <time>2018-09-07T14:01:13Z</time>
      </trkpt>
      <trkpt lat="47.66043" lon="6.21787">
        <ele>249.3</ele>
        <time>2018-09-07T14:01:18Z</time>
      </trkpt>
      <trkpt lat="47.66039" lon="6.21782">
        <ele>249.52</ele>
        <time>2018-09-07T14:01:22Z</time>
      </trkpt>
      <trkpt lat="47.66035" lon="6.21776">
        <ele>249.73</ele>
        <time>2018-09-07T14:01:26Z</time>
      </trkpt>
      <trkpt lat="47.66031" lon="6.21771">
        <ele>250.01</ele>
        <time>2018-09-07T14:01:31Z</time>
      </trkpt>
      <trkpt lat="47.66027" lon="6.21765">
        <ele>250.23</ele>
        <time>2018-09-07T14:01:35Z</time>
      </trkpt>
      <trkpt lat="47.66024" lon="6.2176">
        <ele>250.45</ele>
        <time>2018-09-07T14:01:39Z</time>
      </trkpt>
      <trkpt lat="47.66019" lon="6.21757">
        <ele>250.66</ele>
        <time>2018-09-07T14:01:43Z</time>
      </trkpt>
      <trkpt lat="47.66016" lon="6.21753">
        <ele>250.94</ele>
        <time>2018-09-07T14:01:48Z</time>
      </trkpt>
      <trkpt lat="47.66012" lon="6.21747">
        <ele>251.16</ele>
        <time>2018-09-07T14:01:52Z</time>
      </trkpt>
      <trkpt lat="47.66007" lon="6.21746">
        <ele>251.44</ele>
        <time>2018-09-07T14:01:57Z</time>
      </trkpt>
      <trkpt lat="47.66002" lon="6.21745">
        <ele>251.66</ele>
        <time>2018-09-07T14:02:01Z</time>
      </trkpt>
      <trkpt lat="47.65998" lon="6.21741">
        <ele>251.94</ele>
        <time>2018-09-07T14:02:06Z</time>
      </trkpt>
      <trkpt lat="47.65994" lon="6.21739">
        <ele>252.16</ele>
        <time>2018-09-07T14:02:10Z</time>
      </trkpt>
      <trkpt lat="47.65988" lon="6.21739">
        <ele>252.38</ele>
        <time>2018-09-07T14:02:14Z</time>
      </trkpt>
      <trkpt lat="47.65982" lon="6.21738">
        <ele>252.61</ele>
        <time>2018-09-07T14:02:18Z</time>
      </trkpt>
      <trkpt lat="47.65978" lon="6.21738">
        <ele>252.84</ele>
        <time>2018-09-07T14:02:22Z</time>
      </trkpt>
      <trkpt lat="47.65972" lon="6.21739">
        <ele>253.07</ele>
        <time>2018-09-07T14:02:26Z</time>
      </trkpt>
      <trkpt lat="47.65967" lon="6.21741">
        <ele>253.3</ele>
        <time>2018-09-07T14:02:30Z</time>
      </trkpt>
      <trkpt lat="47.65963" lon="6.21742">
        <ele>253.48</ele>
        <time>2018-09-07T14:02:33Z</time>
      </trkpt>
      <trkpt lat="47.65957" lon="6.21743">
        <ele>253.65</ele>
        <time>2018-09-07T14:02:36Z</time>
      </trkpt>
      <trkpt lat="47.65952" lon="6.21744">
        <ele>253.89</ele>
        <time>2018-09-07T14:02:40Z</time>
      </trkpt>
      <trkpt lat="47.65947" lon="6.21745">
        <ele>254.13</ele>
        <time>2018-09-07T14:02:44Z</time>
      </trkpt>
      <trkpt lat="47.65942" lon="6.21748">
        <ele>254.31</ele>
        <time>2018-09-07T14:02:47Z</time>
      </trkpt>
      <trkpt lat="47.65939" lon="6.21753">
        <ele>254.6</ele>
        <time>2018-09-07T14:02:52Z</time>
      </trkpt>
      <trkpt lat="47.65937" lon="6.2176">
        <ele>254.77</ele>
        <time>2018-09-07T14:02:55Z</time>
      </trkpt>
      <trkpt lat="47.65935" lon="6.21768">
        <ele>255.06</ele>
        <time>2018-09-07T14:03:00Z</time>
      </trkpt>
      <trkpt lat="47.6593" lon="6.21771">
        <ele>255.34</ele>
        <time>2018-09-07T14:03:05Z</time>
      </trkpt>
      <trkpt lat="47.65926" lon="6.21774">
        <ele>255.51</ele>
        <time>2018-09-07T14:03:08Z</time>
      </trkpt>
      <trkpt lat="47.65921" lon="6.21777">
        <ele>255.8</ele>
        <time>2018-09-07T14:03:13Z</time>
      </trkpt>
      <trkpt lat="47.65917" lon="6.21781">
        <ele>256.13</ele>
        <time>2018-09-07T14:03:19Z</time>
      </trkpt>
      <trkpt lat="47.65913" lon="6.21784">
        <ele>256.3</ele>
        <time>2018-09-07T14:03:22Z</time>
      </trkpt>
      <trkpt lat="47.65908" lon="6.21787">
        <ele>256.47</ele>
        <time>2018-09-07T14:03:25Z</time>
      </trkpt>
      <trkpt lat="47.65904" lon="6.2179">
        <ele>256.75</ele>
        <time>2018-09-07T14:03:30Z</time>
      </trkpt>
      <trkpt lat="47.65899" lon="6.21794">
        <ele>257.08</ele>
        <time>2018-09-07T14:03:36Z</time>
      </trkpt>
      <trkpt lat="47.65895" lon="6.21797">
        <ele>257.24</ele>
        <time>2018-09-07T14:03:39Z</time>
      </trkpt>
      <trkpt lat="47.65891" lon="6.218">
        <ele>257.41</ele>
        <time>2018-09-07T14:03:42Z</time>
      </trkpt>
      <trkpt lat="47.65885" lon="6.21803">
        <ele>257.64</ele>
        <time>2018-09-07T14:03:45Z</time>
      </trkpt>
      <trkpt lat="47.65882" lon="6.21807">
        <ele>257.94</ele>
        <time>2018-09-07T14:03:50Z</time>
      </trkpt>
      <trkpt lat="47.65881" lon="6.21814">
        <ele>259.22</ele>
        <time>2018-09-07T14:04:55Z</time>
      </trkpt>
      <trkpt lat="47.65881" lon="6.21821">
        <ele>259.82</ele>
        <time>2018-09-07T14:05:08Z</time>
      </trkpt>
      <trkpt lat="47.6588" lon="6.2183">
        <ele>260.25</ele>
        <time>2018-09-07T14:05:12Z</time>
      </trkpt>
      <trkpt lat="47.65879" lon="6.21837">
        <ele>260.57</ele>
        <time>2018-09-07T14:05:15Z</time>
      </trkpt>
      <trkpt lat="47.65877" lon="6.21846">
        <ele>260.87</ele>
        <time>2018-09-07T14:05:18Z</time>
      </trkpt>
      <trkpt lat="47.65875" lon="6.21853">
        <ele>261.07</ele>
        <time>2018-09-07T14:05:20Z</time>
      </trkpt>
      <trkpt lat="47.65874" lon="6.21861">
        <ele>261.37</ele>
        <time>2018-09-07T14:05:23Z</time>
      </trkpt>
      <trkpt lat="47.65872" lon="6.21868">
        <ele>261.65</ele>
        <time>2018-09-07T14:05:26Z</time>
      </trkpt>
      <trkpt lat="47.65871" lon="6.21877">
        <ele>262.03</ele>
        <time>2018-09-07T14:05:30Z</time>
      </trkpt>
      <trkpt lat="47.6587" lon="6.21885">
        <ele>262.3</ele>
        <time>2018-09-07T14:05:33Z</time>
      </trkpt>
      <trkpt lat="47.65868" lon="6.21892">
        <ele>262.58</ele>
        <time>2018-09-07T14:05:36Z</time>
      </trkpt>
      <trkpt lat="47.65867" lon="6.21899">
        <ele>262.84</ele>
        <time>2018-09-07T14:05:39Z</time>
      </trkpt>
      <trkpt lat="47.65865" lon="6.21907">
        <ele>263.19</ele>
        <time>2018-09-07T14:05:43Z</time>
      </trkpt>
      <trkpt lat="47.65865" lon="6.21914">
        <ele>263.45</ele>
        <time>2018-09-07T14:05:46Z</time>
      </trkpt>
      <trkpt lat="47.65864" lon="6.21921">
        <ele>263.7</ele>
        <time>2018-09-07T14:05:49Z</time>
      </trkpt>
      <trkpt lat="47.65863" lon="6.21931">
        <ele>263.94</ele>
        <time>2018-09-07T14:05:52Z</time>
      </trkpt>
      <trkpt lat="47.65862" lon="6.21941">
        <ele>264.18</ele>
        <time>2018-09-07T14:05:55Z</time>
      </trkpt>
      <trkpt lat="47.65861" lon="6.21951">
        <ele>264.41</ele>
        <time>2018-09-07T14:05:58Z</time>
      </trkpt>
      <trkpt lat="47.6586" lon="6.21959">
        <ele>264.57</ele>
        <time>2018-09-07T14:06:00Z</time>
      </trkpt>
      <trkpt lat="47.65859" lon="6.21966">
        <ele>264.73</ele>
        <time>2018-09-07T14:06:02Z</time>
      </trkpt>
      <trkpt lat="47.65857" lon="6.21974">
        <ele>264.88</ele>
        <time>2018-09-07T14:06:04Z</time>
      </trkpt>
      <trkpt lat="47.65855" lon="6.21982">
        <ele>265.04</ele>
        <time>2018-09-07T14:06:06Z</time>
      </trkpt>
      <trkpt lat="47.65854" lon="6.21989">
        <ele>265.2</ele>
        <time>2018-09-07T14:06:08Z</time>
      </trkpt>
      <trkpt lat="47.65853" lon="6.21997">
        <ele>265.35</ele>
        <time>2018-09-07T14:06:10Z</time>
      </trkpt>
      <trkpt lat="47.65851" lon="6.22005">
        <ele>265.59</ele>
        <time>2018-09-07T14:06:13Z</time>
      </trkpt>
      <trkpt lat="47.6585" lon="6.22014">
        <ele>265.82</ele>
        <time>2018-09-07T14:06:16Z</time>
      </trkpt>
      <trkpt lat="47.65849" lon="6.22021">
        <ele>265.97</ele>
        <time>2018-09-07T14:06:18Z</time>
      </trkpt>
      <trkpt lat="47.65849" lon="6.22028">
        <ele>266.13</ele>
        <time>2018-09-07T14:06:20Z</time>
      </trkpt>
      <trkpt lat="47.65848" lon="6.22036">
        <ele>266.28</ele>
        <time>2018-09-07T14:06:22Z</time>
      </trkpt>
      <trkpt lat="47.65847" lon="6.22043">
        <ele>266.42</ele>
        <time>2018-09-07T14:06:24Z</time>
      </trkpt>
      <trkpt lat="47.65846" lon="6.22052">
        <ele>266.65</ele>
        <time>2018-09-07T14:06:27Z</time>
      </trkpt>
      <trkpt lat="47.65845" lon="6.22059">
        <ele>266.8</ele>
        <time>2018-09-07T14:06:29Z</time>
      </trkpt>
      <trkpt lat="47.65843" lon="6.22069">
        <ele>267.02</ele>
        <time>2018-09-07T14:06:32Z</time>
      </trkpt>
      <trkpt lat="47.65843" lon="6.22077">
        <ele>267.25</ele>
        <time>2018-09-07T14:06:35Z</time>
      </trkpt>
      <trkpt lat="47.65842" lon="6.22086">
        <ele>267.61</ele>
        <time>2018-09-07T14:06:40Z</time>
      </trkpt>
      <trkpt lat="47.6584" lon="6.22094">
        <ele>267.83</ele>
        <time>2018-09-07T14:06:43Z</time>
      </trkpt>
      <trkpt lat="47.65838" lon="6.22101">
        <ele>267.97</ele>
        <time>2018-09-07T14:06:45Z</time>
      </trkpt>
      <trkpt lat="47.65836" lon="6.22108">
        <ele>268.18</ele>
        <time>2018-09-07T14:06:48Z</time>
      </trkpt>
      <trkpt lat="47.65834" lon="6.22116">
        <ele>268.46</ele>
        <time>2018-09-07T14:06:52Z</time>
      </trkpt>
      <trkpt lat="47.65831" lon="6.22123">
        <ele>268.65</ele>
        <time>2018-09-07T14:06:55Z</time>
      </trkpt>
      <trkpt lat="47.65828" lon="6.2213">
        <ele>268.84</ele>
        <time>2018-09-07T14:06:58Z</time>
      </trkpt>
      <trkpt lat="47.65826" lon="6.22136">
        <ele>268.97</ele>
        <time>2018-09-07T14:07:00Z</time>
      </trkpt>
      <trkpt lat="47.65822" lon="6.22146">
        <ele>269.09</ele>
        <time>2018-09-07T14:07:02Z</time>
      </trkpt>
      <trkpt lat="47.65819" lon="6.22155">
        <ele>269.22</ele>
        <time>2018-09-07T14:07:04Z</time>
      </trkpt>
      <trkpt lat="47.65817" lon="6.22165">
        <ele>269.35</ele>
        <time>2018-09-07T14:07:06Z</time>
      </trkpt>
      <trkpt lat="47.65814" lon="6.22174">
        <ele>269.49</ele>
        <time>2018-09-07T14:07:08Z</time>
      </trkpt>
      <trkpt lat="47.65813" lon="6.22181">
        <ele>269.63</ele>
        <time>2018-09-07T14:07:10Z</time>
      </trkpt>
      <trkpt lat="47.65811" lon="6.22188">
        <ele>269.77</ele>
        <time>2018-09-07T14:07:12Z</time>
      </trkpt>
      <trkpt lat="47.65811" lon="6.22195">
        <ele>269.91</ele>
        <time>2018-09-07T14:07:14Z</time>
      </trkpt>
      <trkpt lat="47.6581" lon="6.22204">
        <ele>270.05</ele>
        <time>2018-09-07T14:07:16Z</time>
      </trkpt>
      <trkpt lat="47.65809" lon="6.22212">
        <ele>270.2</ele>
        <time>2018-09-07T14:07:18Z</time>
      </trkpt>
      <trkpt lat="47.65807" lon="6.22221">
        <ele>270.35</ele>
        <time>2018-09-07T14:07:20Z</time>
      </trkpt>
      <trkpt lat="47.65806" lon="6.22228">
        <ele>270.5</ele>
        <time>2018-09-07T14:07:22Z</time>
      </trkpt>
      <trkpt lat="47.65806" lon="6.22236">
        <ele>270.66</ele>
        <time>2018-09-07T14:07:24Z</time>
      </trkpt>
      <trkpt lat="47.65805" lon="6.22244">
        <ele>270.9</ele>
        <time>2018-09-07T14:07:27Z</time>
      </trkpt>
      <trkpt lat="47.65805" lon="6.22252">
        <ele>271.13</ele>
        <time>2018-09-07T14:07:30Z</time>
      </trkpt>
      <trkpt lat="47.65804" lon="6.22261">
        <ele>271.35</ele>
        <time>2018-09-07T14:07:33Z</time>
      </trkpt>
      <trkpt lat="47.65803" lon="6.2227">
        <ele>271.58</ele>
        <time>2018-09-07T14:07:36Z</time>
      </trkpt>
      <trkpt lat="47.65802" lon="6.2228">
        <ele>271.82</ele>
        <time>2018-09-07T14:07:39Z</time>
      </trkpt>
      <trkpt lat="47.65802" lon="6.22288">
        <ele>271.98</ele>
        <time>2018-09-07T14:07:41Z</time>
      </trkpt>
      <trkpt lat="47.65802" lon="6.22295">
        <ele>272.14</ele>
        <time>2018-09-07T14:07:43Z</time>
      </trkpt>
      <trkpt lat="47.65801" lon="6.22303">
        <ele>272.3</ele>
        <time>2018-09-07T14:07:45Z</time>
      </trkpt>
      <trkpt lat="47.65801" lon="6.22312">
        <ele>272.47</ele>
        <time>2018-09-07T14:07:47Z</time>
      </trkpt>
      <trkpt lat="47.65801" lon="6.22322">
        <ele>272.64</ele>
        <time>2018-09-07T14:07:49Z</time>
      </trkpt>
      <trkpt lat="47.65801" lon="6.22332">
        <ele>273.95</ele>
        <time>2018-09-07T14:07:51Z</time>
      </trkpt>
      <trkpt lat="47.65801" lon="6.22343">
        <ele>275.1</ele>
        <time>2018-09-07T14:07:53Z</time>
      </trkpt>
      <trkpt lat="47.65801" lon="6.22355">
        <ele>275.37</ele>
        <time>2018-09-07T14:07:55Z</time>
      </trkpt>
      <trkpt lat="47.65801" lon="6.22366">
        <ele>275.47</ele>
        <time>2018-09-07T14:07:57Z</time>
      </trkpt>
      <trkpt lat="47.65801" lon="6.22376">
        <ele>275.92</ele>
        <time>2018-09-07T14:07:59Z</time>
      </trkpt>
      <trkpt lat="47.658" lon="6.22384">
        <ele>276.02</ele>
        <time>2018-09-07T14:08:01Z</time>
      </trkpt>
      <trkpt lat="47.658" lon="6.22392">
        <ele>276.1</ele>
        <time>2018-09-07T14:08:03Z</time>
      </trkpt>
      <trkpt lat="47.65799" lon="6.22399">
        <ele>276.18</ele>
        <time>2018-09-07T14:08:05Z</time>
      </trkpt>
      <trkpt lat="47.65797" lon="6.22407">
        <ele>276.26</ele>
        <time>2018-09-07T14:08:07Z</time>
      </trkpt>
      <trkpt lat="47.65795" lon="6.22416">
        <ele>276.38</ele>
        <time>2018-09-07T14:08:10Z</time>
      </trkpt>
      <trkpt lat="47.65795" lon="6.22424">
        <ele>276.52</ele>
        <time>2018-09-07T14:08:13Z</time>
      </trkpt>
      <trkpt lat="47.65795" lon="6.22432">
        <ele>276.66</ele>
        <time>2018-09-07T14:08:16Z</time>
      </trkpt>
      <trkpt lat="47.65794" lon="6.22439">
        <ele>276.82</ele>
        <time>2018-09-07T14:08:19Z</time>
      </trkpt>
      <trkpt lat="47.65793" lon="6.22447">
        <ele>276.98</ele>
        <time>2018-09-07T14:08:22Z</time>
      </trkpt>
      <trkpt lat="47.65792" lon="6.22457">
        <ele>277.15</ele>
        <time>2018-09-07T14:08:25Z</time>
      </trkpt>
      <trkpt lat="47.65792" lon="6.22466">
        <ele>277.32</ele>
        <time>2018-09-07T14:08:28Z</time>
      </trkpt>
      <trkpt lat="47.65791" lon="6.22475">
        <ele>277.5</ele>
        <time>2018-09-07T14:08:31Z</time>
      </trkpt>
      <trkpt lat="47.65791" lon="6.22484">
        <ele>277.69</ele>
        <time>2018-09-07T14:08:34Z</time>
      </trkpt>
      <trkpt lat="47.6579" lon="6.22493">
        <ele>277.89</ele>
        <time>2018-09-07T14:08:37Z</time>
      </trkpt>
      <trkpt lat="47.65789" lon="6.22503">
        <ele>278.09</ele>
        <time>2018-09-07T14:08:40Z</time>
      </trkpt>
      <trkpt lat="47.65789" lon="6.22513">
        <ele>278.3</ele>
        <time>2018-09-07T14:08:43Z</time>
      </trkpt>
      <trkpt lat="47.65789" lon="6.22523">
        <ele>278.51</ele>
        <time>2018-09-07T14:08:46Z</time>
      </trkpt>
      <trkpt lat="47.65787" lon="6.22531">
        <ele>278.73</ele>
        <time>2018-09-07T14:08:49Z</time>
      </trkpt>
      <trkpt lat="47.65786" lon="6.2254">
        <ele>278.95</ele>
        <time>2018-09-07T14:08:52Z</time>
      </trkpt>
      <trkpt lat="47.65784" lon="6.22548">
        <ele>279.18</ele>
        <time>2018-09-07T14:08:55Z</time>
      </trkpt>
      <trkpt lat="47.65783" lon="6.22557">
        <ele>279.42</ele>
        <time>2018-09-07T14:08:58Z</time>
      </trkpt>
      <trkpt lat="47.65782" lon="6.22566">
        <ele>279.65</ele>
        <time>2018-09-07T14:09:01Z</time>
      </trkpt>
      <trkpt lat="47.6578" lon="6.22574">
        <ele>279.89</ele>
        <time>2018-09-07T14:09:04Z</time>
      </trkpt>
      <trkpt lat="47.65779" lon="6.22581">
        <ele>280.12</ele>
        <time>2018-09-07T14:09:07Z</time>
      </trkpt>
      <trkpt lat="47.65777" lon="6.2259">
        <ele>280.36</ele>
        <time>2018-09-07T14:09:10Z</time>
      </trkpt>
      <trkpt lat="47.65775" lon="6.22597">
        <ele>280.53</ele>
        <time>2018-09-07T14:09:12Z</time>
      </trkpt>
      <trkpt lat="47.65773" lon="6.22604">
        <ele>280.77</ele>
        <time>2018-09-07T14:09:15Z</time>
      </trkpt>
      <trkpt lat="47.6577" lon="6.22612">
        <ele>281.02</ele>
        <time>2018-09-07T14:09:18Z</time>
      </trkpt>
      <trkpt lat="47.65767" lon="6.22618">
        <ele>281.27</ele>
        <time>2018-09-07T14:09:21Z</time>
      </trkpt>
      <trkpt lat="47.65765" lon="6.22624">
        <ele>281.53</ele>
        <time>2018-09-07T14:09:24Z</time>
      </trkpt>
      <trkpt lat="47.65763" lon="6.22632">
        <ele>281.87</ele>
        <time>2018-09-07T14:09:28Z</time>
      </trkpt>
      <trkpt lat="47.65759" lon="6.22638">
        <ele>282.27</ele>
        <time>2018-09-07T14:09:33Z</time>
      </trkpt>
      <trkpt lat="47.65755" lon="6.22644">
        <ele>282.65</ele>
        <time>2018-09-07T14:09:38Z</time>
      </trkpt>
      <trkpt lat="47.65751" lon="6.22649">
        <ele>282.95</ele>
        <time>2018-09-07T14:09:42Z</time>
      </trkpt>
      <trkpt lat="47.65746" lon="6.22654">
        <ele>283.23</ele>
        <time>2018-09-07T14:09:46Z</time>
      </trkpt>
      <trkpt lat="47.65741" lon="6.22656">
        <ele>283.43</ele>
        <time>2018-09-07T14:09:49Z</time>
      </trkpt>
      <trkpt lat="47.65735" lon="6.2266">
        <ele>283.64</ele>
        <time>2018-09-07T14:09:52Z</time>
      </trkpt>
      <trkpt lat="47.6573" lon="6.22663">
        <ele>283.92</ele>
        <time>2018-09-07T14:09:56Z</time>
      </trkpt>
      <trkpt lat="47.65725" lon="6.22665">
        <ele>284.26</ele>
        <time>2018-09-07T14:10:01Z</time>
      </trkpt>
      <trkpt lat="47.65719" lon="6.22666">
        <ele>284.52</ele>
        <time>2018-09-07T14:10:05Z</time>
      </trkpt>
      <trkpt lat="47.65714" lon="6.22668">
        <ele>284.77</ele>
        <time>2018-09-07T14:10:09Z</time>
      </trkpt>
      <trkpt lat="47.6571" lon="6.2267">
        <ele>284.95</ele>
        <time>2018-09-07T14:10:12Z</time>
      </trkpt>
      <trkpt lat="47.65705" lon="6.22672">
        <ele>285.13</ele>
        <time>2018-09-07T14:10:15Z</time>
      </trkpt>
      <trkpt lat="47.65699" lon="6.22676">
        <ele>285.37</ele>
        <time>2018-09-07T14:10:19Z</time>
      </trkpt>
      <trkpt lat="47.65695" lon="6.22679">
        <ele>285.54</ele>
        <time>2018-09-07T14:10:22Z</time>
      </trkpt>
      <trkpt lat="47.65691" lon="6.22684">
        <ele>285.76</ele>
        <time>2018-09-07T14:10:26Z</time>
      </trkpt>
      <trkpt lat="47.65686" lon="6.2269">
        <ele>285.98</ele>
        <time>2018-09-07T14:10:30Z</time>
      </trkpt>
      <trkpt lat="47.65683" lon="6.22696">
        <ele>286.2</ele>
        <time>2018-09-07T14:10:34Z</time>
      </trkpt>
      <trkpt lat="47.6568" lon="6.22702">
        <ele>286.36</ele>
        <time>2018-09-07T14:10:37Z</time>
      </trkpt>
      <trkpt lat="47.65677" lon="6.22709">
        <ele>286.58</ele>
        <time>2018-09-07T14:10:41Z</time>
      </trkpt>
      <trkpt lat="47.65674" lon="6.22715">
        <ele>286.8</ele>
        <time>2018-09-07T14:10:45Z</time>
      </trkpt>
      <trkpt lat="47.65671" lon="6.22722">
        <ele>286.97</ele>
        <time>2018-09-07T14:10:48Z</time>
      </trkpt>
      <trkpt lat="47.65669" lon="6.22729">
        <ele>287.13</ele>
        <time>2018-09-07T14:10:51Z</time>
      </trkpt>
      <trkpt lat="47.65667" lon="6.22739">
        <ele>287.3</ele>
        <time>2018-09-07T14:10:54Z</time>
      </trkpt>
      <trkpt lat="47.65666" lon="6.22746">
        <ele>287.42</ele>
        <time>2018-09-07T14:10:56Z</time>
      </trkpt>
      <trkpt lat="47.65665" lon="6.22753">
        <ele>287.54</ele>
        <time>2018-09-07T14:10:58Z</time>
      </trkpt>
      <trkpt lat="47.65665" lon="6.22763">
        <ele>287.73</ele>
        <time>2018-09-07T14:11:01Z</time>
      </trkpt>
      <trkpt lat="47.65666" lon="6.22771">
        <ele>287.93</ele>
        <time>2018-09-07T14:11:04Z</time>
      </trkpt>
      <trkpt lat="47.65666" lon="6.22779">
        <ele>288.14</ele>
        <time>2018-09-07T14:11:07Z</time>
      </trkpt>
      <trkpt lat="47.65668" lon="6.22786">
        <ele>288.35</ele>
        <time>2018-09-07T14:11:10Z</time>
      </trkpt>
      <trkpt lat="47.6567" lon="6.22793">
        <ele>288.57</ele>
        <time>2018-09-07T14:11:13Z</time>
      </trkpt>
      <trkpt lat="47.65671" lon="6.228">
        <ele>288.79</ele>
        <time>2018-09-07T14:11:16Z</time>
      </trkpt>
      <trkpt lat="47.65673" lon="6.22807">
        <ele>289.02</ele>
        <time>2018-09-07T14:11:19Z</time>
      </trkpt>
      <trkpt lat="47.65676" lon="6.22814">
        <ele>289.25</ele>
        <time>2018-09-07T14:11:22Z</time>
      </trkpt>
      <trkpt lat="47.65679" lon="6.2282">
        <ele>289.49</ele>
        <time>2018-09-07T14:11:25Z</time>
      </trkpt>
      <trkpt lat="47.65681" lon="6.22827">
        <ele>289.73</ele>
        <time>2018-09-07T14:11:28Z</time>
      </trkpt>
      <trkpt lat="47.65683" lon="6.22835">
        <ele>289.97</ele>
        <time>2018-09-07T14:11:31Z</time>
      </trkpt>
      <trkpt lat="47.65685" lon="6.22842">
        <ele>290.22</ele>
        <time>2018-09-07T14:11:34Z</time>
      </trkpt>
      <trkpt lat="47.65687" lon="6.2285">
        <ele>290.48</ele>
        <time>2018-09-07T14:11:37Z</time>
      </trkpt>
      <trkpt lat="47.65689" lon="6.22857">
        <ele>290.73</ele>
        <time>2018-09-07T14:11:40Z</time>
      </trkpt>
      <trkpt lat="47.65693" lon="6.22864">
        <ele>290.99</ele>
        <time>2018-09-07T14:11:43Z</time>
      </trkpt>
      <trkpt lat="47.65696" lon="6.22873">
        <ele>291.24</ele>
        <time>2018-09-07T14:11:46Z</time>
      </trkpt>
      <trkpt lat="47.65698" lon="6.22879">
        <ele>291.42</ele>
        <time>2018-09-07T14:11:48Z</time>
      </trkpt>
      <trkpt lat="47.657" lon="6.22886">
        <ele>291.59</ele>
        <time>2018-09-07T14:11:50Z</time>
      </trkpt>
      <trkpt lat="47.65701" lon="6.22893">
        <ele>291.76</ele>
        <time>2018-09-07T14:11:52Z</time>
      </trkpt>
      <trkpt lat="47.65702" lon="6.229">
        <ele>291.93</ele>
        <time>2018-09-07T14:11:54Z</time>
      </trkpt>
      <trkpt lat="47.65703" lon="6.22908">
        <ele>292.11</ele>
        <time>2018-09-07T14:11:56Z</time>
      </trkpt>
      <trkpt lat="47.65705" lon="6.22916">
        <ele>292.28</ele>
        <time>2018-09-07T14:11:58Z</time>
      </trkpt>
      <trkpt lat="47.65706" lon="6.22924">
        <ele>292.45</ele>
        <time>2018-09-07T14:12:00Z</time>
      </trkpt>
      <trkpt lat="47.65707" lon="6.22931">
        <ele>292.63</ele>
        <time>2018-09-07T14:12:02Z</time>
      </trkpt>
      <trkpt lat="47.65707" lon="6.22939">
        <ele>292.8</ele>
        <time>2018-09-07T14:12:04Z</time>
      </trkpt>
      <trkpt lat="47.65708" lon="6.22947">
        <ele>292.97</ele>
        <time>2018-09-07T14:12:06Z</time>
      </trkpt>
      <trkpt lat="47.65709" lon="6.22956">
        <ele>293.14</ele>
        <time>2018-09-07T14:12:08Z</time>
      </trkpt>
      <trkpt lat="47.65709" lon="6.22964">
        <ele>293.31</ele>
        <time>2018-09-07T14:12:10Z</time>
      </trkpt>
      <trkpt lat="47.65709" lon="6.22973">
        <ele>293.48</ele>
        <time>2018-09-07T14:12:12Z</time>
      </trkpt>
      <trkpt lat="47.65709" lon="6.22981">
        <ele>293.65</ele>
        <time>2018-09-07T14:12:14Z</time>
      </trkpt>
      <trkpt lat="47.65709" lon="6.2299">
        <ele>293.81</ele>
        <time>2018-09-07T14:12:16Z</time>
      </trkpt>
      <trkpt lat="47.65709" lon="6.22999">
        <ele>293.97</ele>
        <time>2018-09-07T14:12:18Z</time>
      </trkpt>
      <trkpt lat="47.65709" lon="6.23009">
        <ele>294.14</ele>
        <time>2018-09-07T14:12:20Z</time>
      </trkpt>
      <trkpt lat="47.65708" lon="6.23018">
        <ele>294.3</ele>
        <time>2018-09-07T14:12:22Z</time>
      </trkpt>
      <trkpt lat="47.65707" lon="6.23028">
        <ele>294.46</ele>
        <time>2018-09-07T14:12:24Z</time>
      </trkpt>
      <trkpt lat="47.65706" lon="6.23038">
        <ele>294.62</ele>
        <time>2018-09-07T14:12:26Z</time>
      </trkpt>
      <trkpt lat="47.65705" lon="6.23047">
        <ele>294.78</ele>
        <time>2018-09-07T14:12:28Z</time>
      </trkpt>
      <trkpt lat="47.65704" lon="6.23057">
        <ele>294.93</ele>
        <time>2018-09-07T14:12:30Z</time>
      </trkpt>
      <trkpt lat="47.65703" lon="6.23065">
        <ele>295.09</ele>
        <time>2018-09-07T14:12:32Z</time>
      </trkpt>
      <trkpt lat="47.65702" lon="6.23073">
        <ele>295.25</ele>
        <time>2018-09-07T14:12:34Z</time>
      </trkpt>
      <trkpt lat="47.65701" lon="6.23082">
        <ele>295.4</ele>
        <time>2018-09-07T14:12:36Z</time>
      </trkpt>
      <trkpt lat="47.657" lon="6.2309">
        <ele>295.54</ele>
        <time>2018-09-07T14:12:38Z</time>
      </trkpt>
      <trkpt lat="47.65699" lon="6.23098">
        <ele>295.69</ele>
        <time>2018-09-07T14:12:40Z</time>
      </trkpt>
      <trkpt lat="47.65699" lon="6.23107">
        <ele>295.83</ele>
        <time>2018-09-07T14:12:42Z</time>
      </trkpt>
      <trkpt lat="47.65698" lon="6.23116">
        <ele>295.97</ele>
        <time>2018-09-07T14:12:44Z</time>
      </trkpt>
      <trkpt lat="47.65697" lon="6.23125">
        <ele>296.11</ele>
        <time>2018-09-07T14:12:46Z</time>
      </trkpt>
      <trkpt lat="47.65696" lon="6.23135">
        <ele>296.24</ele>
        <time>2018-09-07T14:12:48Z</time>
      </trkpt>
      <trkpt lat="47.65694" lon="6.23145">
        <ele>296.38</ele>
        <time>2018-09-07T14:12:50Z</time>
      </trkpt>
      <trkpt lat="47.65693" lon="6.23155">
        <ele>296.52</ele>
        <time>2018-09-07T14:12:52Z</time>
      </trkpt>
      <trkpt lat="47.65692" lon="6.23164">
        <ele>296.65</ele>
        <time>2018-09-07T14:12:54Z</time>
      </trkpt>
      <trkpt lat="47.65692" lon="6.23173">
        <ele>296.78</ele>
        <time>2018-09-07T14:12:56Z</time>
      </trkpt>
      <trkpt lat="47.65691" lon="6.23182">
        <ele>296.92</ele>
        <time>2018-09-07T14:12:58Z</time>
      </trkpt>
      <trkpt lat="47.6569" lon="6.23191">
        <ele>297.05</ele>
        <time>2018-09-07T14:13:00Z</time>
      </trkpt>
      <trkpt lat="47.65689" lon="6.232">
        <ele>297.17</ele>
        <time>2018-09-07T14:13:02Z</time>
      </trkpt>
      <trkpt lat="47.65689" lon="6.23209">
        <ele>297.3</ele>
        <time>2018-09-07T14:13:04Z</time>
      </trkpt>
      <trkpt lat="47.65688" lon="6.23218">
        <ele>297.42</ele>
        <time>2018-09-07T14:13:06Z</time>
      </trkpt>
      <trkpt lat="47.65687" lon="6.23226">
        <ele>297.54</ele>
        <time>2018-09-07T14:13:08Z</time>
      </trkpt>
      <trkpt lat="47.65686" lon="6.23235">
        <ele>297.66</ele>
        <time>2018-09-07T14:13:10Z</time>
      </trkpt>
      <trkpt lat="47.65684" lon="6.23244">
        <ele>297.78</ele>
        <time>2018-09-07T14:13:12Z</time>
      </trkpt>
      <trkpt lat="47.65684" lon="6.23253">
        <ele>297.9</ele>
        <time>2018-09-07T14:13:14Z</time>
      </trkpt>
      <trkpt lat="47.65683" lon="6.23261">
        <ele>298.01</ele>
        <time>2018-09-07T14:13:16Z</time>
      </trkpt>
      <trkpt lat="47.65682" lon="6.23268">
        <ele>298.13</ele>
        <time>2018-09-07T14:13:18Z</time>
      </trkpt>
      <trkpt lat="47.65681" lon="6.23276">
        <ele>298.24</ele>
        <time>2018-09-07T14:13:20Z</time>
      </trkpt>
      <trkpt lat="47.6568" lon="6.23283">
        <ele>298.35</ele>
        <time>2018-09-07T14:13:22Z</time>
      </trkpt>
      <trkpt lat="47.65679" lon="6.23291">
        <ele>298.46</ele>
        <time>2018-09-07T14:13:24Z</time>
      </trkpt>
      <trkpt lat="47.65678" lon="6.23299">
        <ele>298.56</ele>
        <time>2018-09-07T14:13:26Z</time>
      </trkpt>
      <trkpt lat="47.65676" lon="6.23306">
        <ele>298.67</ele>
        <time>2018-09-07T14:13:28Z</time>
      </trkpt>
      <trkpt lat="47.65675" lon="6.23315">
        <ele>298.78</ele>
        <time>2018-09-07T14:13:30Z</time>
      </trkpt>
      <trkpt lat="47.65673" lon="6.23325">
        <ele>298.89</ele>
        <time>2018-09-07T14:13:32Z</time>
      </trkpt>
      <trkpt lat="47.65672" lon="6.23334">
        <ele>299</ele>
        <time>2018-09-07T14:13:34Z</time>
      </trkpt>
      <trkpt lat="47.65671" lon="6.23341">
        <ele>299.1</ele>
        <time>2018-09-07T14:13:36Z</time>
      </trkpt>
      <trkpt lat="47.65671" lon="6.23348">
        <ele>299.21</ele>
        <time>2018-09-07T14:13:38Z</time>
      </trkpt>
      <trkpt lat="47.6567" lon="6.23356">
        <ele>299.32</ele>
        <time>2018-09-07T14:13:40Z</time>
      </trkpt>
      <trkpt lat="47.65669" lon="6.23363">
        <ele>299.42</ele>
        <time>2018-09-07T14:13:42Z</time>
      </trkpt>
      <trkpt lat="47.65667" lon="6.2337">
        <ele>299.52</ele>
        <time>2018-09-07T14:13:44Z</time>
      </trkpt>
      <trkpt lat="47.65665" lon="6.23377">
        <ele>299.62</ele>
        <time>2018-09-07T14:13:46Z</time>
      </trkpt>
      <trkpt lat="47.65662" lon="6.23385">
        <ele>299.73</ele>
        <time>2018-09-07T14:13:48Z</time>
      </trkpt>
      <trkpt lat="47.65659" lon="6.23392">
        <ele>299.83</ele>
        <time>2018-09-07T14:13:50Z</time>
      </trkpt>
      <trkpt lat="47.65655" lon="6.23398">
        <ele>299.93</ele>
        <time>2018-09-07T14:13:52Z</time>
      </trkpt>
      <trkpt lat="47.65651" lon="6.23404">
        <ele>300.04</ele>
        <time>2018-09-07T14:13:54Z</time>
      </trkpt>
      <trkpt lat="47.65647" lon="6.2341">
        <ele>300.14</ele>
        <time>2018-09-07T14:13:56Z</time>
      </trkpt>
      <trkpt lat="47.65642" lon="6.23414">
        <ele>300.29</ele>
        <time>2018-09-07T14:13:59Z</time>
      </trkpt>
      <trkpt lat="47.65636" lon="6.23415">
        <ele>300.45</ele>
        <time>2018-09-07T14:14:02Z</time>
      </trkpt>
      <trkpt lat="47.65633" lon="6.23411">
        <ele>300.61</ele>
        <time>2018-09-07T14:14:05Z</time>
      </trkpt>
      <trkpt lat="47.6563" lon="6.23405">
        <ele>300.77</ele>
        <time>2018-09-07T14:14:08Z</time>
      </trkpt>
      <trkpt lat="47.65627" lon="6.23398">
        <ele>300.87</ele>
        <time>2018-09-07T14:14:10Z</time>
      </trkpt>
      <trkpt lat="47.65624" lon="6.23391">
        <ele>300.98</ele>
        <time>2018-09-07T14:14:12Z</time>
      </trkpt>
      <trkpt lat="47.6562" lon="6.23385">
        <ele>301.08</ele>
        <time>2018-09-07T14:14:14Z</time>
      </trkpt>
      <trkpt lat="47.65616" lon="6.23379">
        <ele>301.19</ele>
        <time>2018-09-07T14:14:16Z</time>
      </trkpt>
      <trkpt lat="47.65612" lon="6.23372">
        <ele>301.31</ele>
        <time>2018-09-07T14:14:18Z</time>
      </trkpt>
      <trkpt lat="47.65608" lon="6.23367">
        <ele>301.43</ele>
        <time>2018-09-07T14:14:20Z</time>
      </trkpt>
      <trkpt lat="47.65604" lon="6.2336">
        <ele>301.55</ele>
        <time>2018-09-07T14:14:22Z</time>
      </trkpt>
      <trkpt lat="47.65601" lon="6.23355">
        <ele>301.67</ele>
        <time>2018-09-07T14:14:24Z</time>
      </trkpt>
      <trkpt lat="47.65598" lon="6.2335">
        <ele>301.8</ele>
        <time>2018-09-07T14:14:26Z</time>
      </trkpt>
      <trkpt lat="47.65594" lon="6.23343">
        <ele>301.93</ele>
        <time>2018-09-07T14:14:28Z</time>
      </trkpt>
      <trkpt lat="47.6559" lon="6.23337">
        <ele>302.06</ele>
        <time>2018-09-07T14:14:30Z</time>
      </trkpt>
      <trkpt lat="47.65585" lon="6.23331">
        <ele>302.19</ele>
        <time>2018-09-07T14:14:32Z</time>
      </trkpt>
      <trkpt lat="47.65581" lon="6.23325">
        <ele>302.32</ele>
        <time>2018-09-07T14:14:34Z</time>
      </trkpt>
      <trkpt lat="47.65577" lon="6.23319">
        <ele>302.45</ele>
        <time>2018-09-07T14:14:36Z</time>
      </trkpt>
      <trkpt lat="47.65573" lon="6.23314">
        <ele>302.58</ele>
        <time>2018-09-07T14:14:38Z</time>
      </trkpt>
      <trkpt lat="47.65569" lon="6.23309">
        <ele>302.72</ele>
        <time>2018-09-07T14:14:40Z</time>
      </trkpt>
      <trkpt lat="47.65565" lon="6.23304">
        <ele>302.85</ele>
        <time>2018-09-07T14:14:42Z</time>
      </trkpt>
      <trkpt lat="47.65561" lon="6.23298">
        <ele>302.98</ele>
        <time>2018-09-07T14:14:44Z</time>
      </trkpt>
      <trkpt lat="47.65555" lon="6.23291">
        <ele>303.12</ele>
        <time>2018-09-07T14:14:46Z</time>
      </trkpt>
      <trkpt lat="47.65551" lon="6.23285">
        <ele>303.26</ele>
        <time>2018-09-07T14:14:48Z</time>
      </trkpt>
      <trkpt lat="47.65547" lon="6.23279">
        <ele>303.39</ele>
        <time>2018-09-07T14:14:50Z</time>
      </trkpt>
      <trkpt lat="47.65542" lon="6.23273">
        <ele>303.53</ele>
        <time>2018-09-07T14:14:52Z</time>
      </trkpt>
      <trkpt lat="47.65538" lon="6.23268">
        <ele>303.67</ele>
        <time>2018-09-07T14:14:54Z</time>
      </trkpt>
      <trkpt lat="47.65534" lon="6.23262">
        <ele>303.81</ele>
        <time>2018-09-07T14:14:56Z</time>
      </trkpt>
      <trkpt lat="47.6553" lon="6.23258">
        <ele>303.95</ele>
        <time>2018-09-07T14:14:58Z</time>
      </trkpt>
      <trkpt lat="47.65527" lon="6.23253">
        <ele>304.09</ele>
        <time>2018-09-07T14:15:00Z</time>
      </trkpt>
      <trkpt lat="47.65523" lon="6.23249">
        <ele>304.3</ele>
        <time>2018-09-07T14:15:03Z</time>
      </trkpt>
      <trkpt lat="47.65517" lon="6.23248">
        <ele>304.52</ele>
        <time>2018-09-07T14:15:06Z</time>
      </trkpt>
      <trkpt lat="47.65512" lon="6.23252">
        <ele>304.73</ele>
        <time>2018-09-07T14:15:09Z</time>
      </trkpt>
      <trkpt lat="47.65507" lon="6.23253">
        <ele>304.94</ele>
        <time>2018-09-07T14:15:12Z</time>
      </trkpt>
      <trkpt lat="47.655" lon="6.23253">
        <ele>305.16</ele>
        <time>2018-09-07T14:15:15Z</time>
      </trkpt>
      <trkpt lat="47.65495" lon="6.23255">
        <ele>305.3</ele>
        <time>2018-09-07T14:15:17Z</time>
      </trkpt>
      <trkpt lat="47.6549" lon="6.23257">
        <ele>305.44</ele>
        <time>2018-09-07T14:15:19Z</time>
      </trkpt>
      <trkpt lat="47.65484" lon="6.23259">
        <ele>305.59</ele>
        <time>2018-09-07T14:15:21Z</time>
      </trkpt>
      <trkpt lat="47.65478" lon="6.23261">
        <ele>305.73</ele>
        <time>2018-09-07T14:15:23Z</time>
      </trkpt>
      <trkpt lat="47.65472" lon="6.23264">
        <ele>305.87</ele>
        <time>2018-09-07T14:15:25Z</time>
      </trkpt>
      <trkpt lat="47.65465" lon="6.23266">
        <ele>306.02</ele>
        <time>2018-09-07T14:15:27Z</time>
      </trkpt>
      <trkpt lat="47.6546" lon="6.23268">
        <ele>306.16</ele>
        <time>2018-09-07T14:15:29Z</time>
      </trkpt>
      <trkpt lat="47.65454" lon="6.23271">
        <ele>306.3</ele>
        <time>2018-09-07T14:15:31Z</time>
      </trkpt>
      <trkpt lat="47.65449" lon="6.23273">
        <ele>306.44</ele>
        <time>2018-09-07T14:15:33Z</time>
      </trkpt>
      <trkpt lat="47.65444" lon="6.23274">
        <ele>306.58</ele>
        <time>2018-09-07T14:15:35Z</time>
      </trkpt>
      <trkpt lat="47.65439" lon="6.23275">
        <ele>306.73</ele>
        <time>2018-09-07T14:15:37Z</time>
      </trkpt>
      <trkpt lat="47.65433" lon="6.23277">
        <ele>306.94</ele>
        <time>2018-09-07T14:15:40Z</time>
      </trkpt>
      <trkpt lat="47.65427" lon="6.23278">
        <ele>307.16</ele>
        <time>2018-09-07T14:15:43Z</time>
      </trkpt>
      <trkpt lat="47.65421" lon="6.23278">
        <ele>307.38</ele>
        <time>2018-09-07T14:15:46Z</time>
      </trkpt>
      <trkpt lat="47.65416" lon="6.23276">
        <ele>307.53</ele>
        <time>2018-09-07T14:15:48Z</time>
      </trkpt>
      <trkpt lat="47.6541" lon="6.23274">
        <ele>308.66</ele>
        <time>2018-09-07T14:15:50Z</time>
      </trkpt>
      <trkpt lat="47.65404" lon="6.23271">
        <ele>309.38</ele>
        <time>2018-09-07T14:15:52Z</time>
      </trkpt>
      <trkpt lat="47.65396" lon="6.23267">
        <ele>309.52</ele>
        <time>2018-09-07T14:15:54Z</time>
      </trkpt>
      <trkpt lat="47.65388" lon="6.23264">
        <ele>310.2</ele>
        <time>2018-09-07T14:15:56Z</time>
      </trkpt>
      <trkpt lat="47.6538" lon="6.23261">
        <ele>310.39</ele>
        <time>2018-09-07T14:15:58Z</time>
      </trkpt>
      <trkpt lat="47.65372" lon="6.23257">
        <ele>310.66</ele>
        <time>2018-09-07T14:16:00Z</time>
      </trkpt>
      <trkpt lat="47.65366" lon="6.23253">
        <ele>311.12</ele>
        <time>2018-09-07T14:16:02Z</time>
      </trkpt>
      <trkpt lat="47.65358" lon="6.23249">
        <ele>311.48</ele>
        <time>2018-09-07T14:16:04Z</time>
      </trkpt>
      <trkpt lat="47.65346" lon="6.23241">
        <ele>311.63</ele>
        <time>2018-09-07T14:16:05Z</time>
      </trkpt>
      <trkpt lat="47.65342" lon="6.23237">
        <ele>311.77</ele>
        <time>2018-09-07T14:16:06Z</time>
      </trkpt>
      <trkpt lat="47.65338" lon="6.23233">
        <ele>311.9</ele>
        <time>2018-09-07T14:16:07Z</time>
      </trkpt>
      <trkpt lat="47.65332" lon="6.23222">
        <ele>312.12</ele>
        <time>2018-09-07T14:16:09Z</time>
      </trkpt>
      <trkpt lat="47.65329" lon="6.23217">
        <ele>312.21</ele>
        <time>2018-09-07T14:16:10Z</time>
      </trkpt>
      <trkpt lat="47.65327" lon="6.23211">
        <ele>312.3</ele>
        <time>2018-09-07T14:16:11Z</time>
      </trkpt>
      <trkpt lat="47.65321" lon="6.23202">
        <ele>312.48</ele>
        <time>2018-09-07T14:16:13Z</time>
      </trkpt>
      <trkpt lat="47.65315" lon="6.23195">
        <ele>312.52</ele>
        <time>2018-09-07T14:16:15Z</time>
      </trkpt>
      <trkpt lat="47.6531" lon="6.23188">
        <ele>312.55</ele>
        <time>2018-09-07T14:16:17Z</time>
      </trkpt>
      <trkpt lat="47.65304" lon="6.23182">
        <ele>312.58</ele>
        <time>2018-09-07T14:16:19Z</time>
      </trkpt>
      <trkpt lat="47.65301" lon="6.23174">
        <ele>312.7</ele>
        <time>2018-09-07T14:16:21Z</time>
      </trkpt>
      <trkpt lat="47.65294" lon="6.23167">
        <ele>312.95</ele>
        <time>2018-09-07T14:16:23Z</time>
      </trkpt>
      <trkpt lat="47.65289" lon="6.23164">
        <ele>313.06</ele>
        <time>2018-09-07T14:16:24Z</time>
      </trkpt>
      <trkpt lat="47.65284" lon="6.23161">
        <ele>313.17</ele>
        <time>2018-09-07T14:16:25Z</time>
      </trkpt>
      <trkpt lat="47.65278" lon="6.23159">
        <ele>313.28</ele>
        <time>2018-09-07T14:16:26Z</time>
      </trkpt>
      <trkpt lat="47.65273" lon="6.23157">
        <ele>313.38</ele>
        <time>2018-09-07T14:16:27Z</time>
      </trkpt>
      <trkpt lat="47.65268" lon="6.23154">
        <ele>313.47</ele>
        <time>2018-09-07T14:16:28Z</time>
      </trkpt>
      <trkpt lat="47.65263" lon="6.23152">
        <ele>313.55</ele>
        <time>2018-09-07T14:16:29Z</time>
      </trkpt>
      <trkpt lat="47.65258" lon="6.2315">
        <ele>313.62</ele>
        <time>2018-09-07T14:16:30Z</time>
      </trkpt>
      <trkpt lat="47.65253" lon="6.23148">
        <ele>313.68</ele>
        <time>2018-09-07T14:16:31Z</time>
      </trkpt>
      <trkpt lat="47.65247" lon="6.23146">
        <ele>313.74</ele>
        <time>2018-09-07T14:16:32Z</time>
      </trkpt>
      <trkpt lat="47.65241" lon="6.23144">
        <ele>313.81</ele>
        <time>2018-09-07T14:16:33Z</time>
      </trkpt>
      <trkpt lat="47.65236" lon="6.23142">
        <ele>313.87</ele>
        <time>2018-09-07T14:16:34Z</time>
      </trkpt>
      <trkpt lat="47.65231" lon="6.2314">
        <ele>313.93</ele>
        <time>2018-09-07T14:16:35Z</time>
      </trkpt>
      <trkpt lat="47.65227" lon="6.23139">
        <ele>313.98</ele>
        <time>2018-09-07T14:16:36Z</time>
      </trkpt>
      <trkpt lat="47.65222" lon="6.23137">
        <ele>314.03</ele>
        <time>2018-09-07T14:16:37Z</time>
      </trkpt>
      <trkpt lat="47.65217" lon="6.23135">
        <ele>314.07</ele>
        <time>2018-09-07T14:16:38Z</time>
      </trkpt>
      <trkpt lat="47.65212" lon="6.23133">
        <ele>314.11</ele>
        <time>2018-09-07T14:16:39Z</time>
      </trkpt>
      <trkpt lat="47.65207" lon="6.23131">
        <ele>314.15</ele>
        <time>2018-09-07T14:16:40Z</time>
      </trkpt>
      <trkpt lat="47.65202" lon="6.23128">
        <ele>314.19</ele>
        <time>2018-09-07T14:16:41Z</time>
      </trkpt>
      <trkpt lat="47.65197" lon="6.23125">
        <ele>314.23</ele>
        <time>2018-09-07T14:16:42Z</time>
      </trkpt>
      <trkpt lat="47.65192" lon="6.23121">
        <ele>314.27</ele>
        <time>2018-09-07T14:16:43Z</time>
      </trkpt>
      <trkpt lat="47.65187" lon="6.23118">
        <ele>314.31</ele>
        <time>2018-09-07T14:16:44Z</time>
      </trkpt>
      <trkpt lat="47.65182" lon="6.23114">
        <ele>314.35</ele>
        <time>2018-09-07T14:16:45Z</time>
      </trkpt>
      <trkpt lat="47.65177" lon="6.2311">
        <ele>314.38</ele>
        <time>2018-09-07T14:16:46Z</time>
      </trkpt>
      <trkpt lat="47.65172" lon="6.23105">
        <ele>314.42</ele>
        <time>2018-09-07T14:16:47Z</time>
      </trkpt>
      <trkpt lat="47.65167" lon="6.23101">
        <ele>314.46</ele>
        <time>2018-09-07T14:16:48Z</time>
      </trkpt>
      <trkpt lat="47.65162" lon="6.23097">
        <ele>314.5</ele>
        <time>2018-09-07T14:16:49Z</time>
      </trkpt>
      <trkpt lat="47.65156" lon="6.23092">
        <ele>314.54</ele>
        <time>2018-09-07T14:16:50Z</time>
      </trkpt>
      <trkpt lat="47.65152" lon="6.23087">
        <ele>314.59</ele>
        <time>2018-09-07T14:16:51Z</time>
      </trkpt>
      <trkpt lat="47.65147" lon="6.23083">
        <ele>314.63</ele>
        <time>2018-09-07T14:16:52Z</time>
      </trkpt>
      <trkpt lat="47.65143" lon="6.23078">
        <ele>314.68</ele>
        <time>2018-09-07T14:16:53Z</time>
      </trkpt>
      <trkpt lat="47.65138" lon="6.23074">
        <ele>314.73</ele>
        <time>2018-09-07T14:16:54Z</time>
      </trkpt>
      <trkpt lat="47.65133" lon="6.2307">
        <ele>314.77</ele>
        <time>2018-09-07T14:16:55Z</time>
      </trkpt>
      <trkpt lat="47.65129" lon="6.23065">
        <ele>314.82</ele>
        <time>2018-09-07T14:16:56Z</time>
      </trkpt>
      <trkpt lat="47.65125" lon="6.23061">
        <ele>314.86</ele>
        <time>2018-09-07T14:16:57Z</time>
      </trkpt>
      <trkpt lat="47.6512" lon="6.23057">
        <ele>314.9</ele>
        <time>2018-09-07T14:16:58Z</time>
      </trkpt>
      <trkpt lat="47.65116" lon="6.23053">
        <ele>314.94</ele>
        <time>2018-09-07T14:16:59Z</time>
      </trkpt>
      <trkpt lat="47.65112" lon="6.23048">
        <ele>314.98</ele>
        <time>2018-09-07T14:17:00Z</time>
      </trkpt>
      <trkpt lat="47.65108" lon="6.23044">
        <ele>315.02</ele>
        <time>2018-09-07T14:17:01Z</time>
      </trkpt>
      <trkpt lat="47.65103" lon="6.23038">
        <ele>315.07</ele>
        <time>2018-09-07T14:17:02Z</time>
      </trkpt>
      <trkpt lat="47.65097" lon="6.2303">
        <ele>315.16</ele>
        <time>2018-09-07T14:17:04Z</time>
      </trkpt>
      <trkpt lat="47.65091" lon="6.23024">
        <ele>315.18</ele>
        <time>2018-09-07T14:17:06Z</time>
      </trkpt>
      <trkpt lat="47.65086" lon="6.23018">
        <ele>315.2</ele>
        <time>2018-09-07T14:17:08Z</time>
      </trkpt>
      <trkpt lat="47.65083" lon="6.23012">
        <ele>315.21</ele>
        <time>2018-09-07T14:17:10Z</time>
      </trkpt>
      <trkpt lat="47.65079" lon="6.23005">
        <ele>315.23</ele>
        <time>2018-09-07T14:17:12Z</time>
      </trkpt>
      <trkpt lat="47.65076" lon="6.23">
        <ele>315.27</ele>
        <time>2018-09-07T14:17:15Z</time>
      </trkpt>
      <trkpt lat="47.65073" lon="6.22994">
        <ele>315.32</ele>
        <time>2018-09-07T14:17:18Z</time>
      </trkpt>
      <trkpt lat="47.65069" lon="6.22988">
        <ele>315.37</ele>
        <time>2018-09-07T14:17:21Z</time>
      </trkpt>
      <trkpt lat="47.65065" lon="6.2298">
        <ele>315.43</ele>
        <time>2018-09-07T14:17:24Z</time>
      </trkpt>
      <trkpt lat="47.65062" lon="6.22974">
        <ele>315.48</ele>
        <time>2018-09-07T14:17:26Z</time>
      </trkpt>
      <trkpt lat="47.65059" lon="6.22968">
        <ele>315.52</ele>
        <time>2018-09-07T14:17:28Z</time>
      </trkpt>
      <trkpt lat="47.65056" lon="6.22961">
        <ele>315.57</ele>
        <time>2018-09-07T14:17:30Z</time>
      </trkpt>
      <trkpt lat="47.65053" lon="6.22955">
        <ele>315.63</ele>
        <time>2018-09-07T14:17:32Z</time>
      </trkpt>
      <trkpt lat="47.65051" lon="6.2295">
        <ele>315.68</ele>
        <time>2018-09-07T14:17:34Z</time>
      </trkpt>
      <trkpt lat="47.65048" lon="6.22944">
        <ele>315.74</ele>
        <time>2018-09-07T14:17:36Z</time>
      </trkpt>
      <trkpt lat="47.65046" lon="6.22938">
        <ele>315.8</ele>
        <time>2018-09-07T14:17:38Z</time>
      </trkpt>
      <trkpt lat="47.65044" lon="6.22932">
        <ele>315.85</ele>
        <time>2018-09-07T14:17:40Z</time>
      </trkpt>
      <trkpt lat="47.65042" lon="6.22925">
        <ele>315.91</ele>
        <time>2018-09-07T14:17:42Z</time>
      </trkpt>
      <trkpt lat="47.6504" lon="6.22919">
        <ele>315.97</ele>
        <time>2018-09-07T14:17:44Z</time>
      </trkpt>
      <trkpt lat="47.65037" lon="6.22913">
        <ele>316.03</ele>
        <time>2018-09-07T14:17:46Z</time>
      </trkpt>
      <trkpt lat="47.65035" lon="6.22906">
        <ele>316.1</ele>
        <time>2018-09-07T14:17:48Z</time>
      </trkpt>
      <trkpt lat="47.65033" lon="6.22899">
        <ele>316.16</ele>
        <time>2018-09-07T14:17:50Z</time>
      </trkpt>
      <trkpt lat="47.65031" lon="6.22892">
        <ele>316.22</ele>
        <time>2018-09-07T14:17:52Z</time>
      </trkpt>
      <trkpt lat="47.65029" lon="6.22884">
        <ele>316.29</ele>
        <time>2018-09-07T14:17:54Z</time>
      </trkpt>
      <trkpt lat="47.65027" lon="6.22877">
        <ele>316.35</ele>
        <time>2018-09-07T14:17:56Z</time>
      </trkpt>
      <trkpt lat="47.65026" lon="6.22871">
        <ele>316.42</ele>
        <time>2018-09-07T14:17:58Z</time>
      </trkpt>
      <trkpt lat="47.65024" lon="6.22863">
        <ele>316.49</ele>
        <time>2018-09-07T14:18:00Z</time>
      </trkpt>
      <trkpt lat="47.65022" lon="6.22857">
        <ele>316.55</ele>
        <time>2018-09-07T14:18:02Z</time>
      </trkpt>
      <trkpt lat="47.6502" lon="6.22849">
        <ele>316.62</ele>
        <time>2018-09-07T14:18:04Z</time>
      </trkpt>
      <trkpt lat="47.65018" lon="6.2284">
        <ele>316.73</ele>
        <time>2018-09-07T14:18:07Z</time>
      </trkpt>
      <trkpt lat="47.65016" lon="6.22832">
        <ele>316.83</ele>
        <time>2018-09-07T14:18:10Z</time>
      </trkpt>
      <trkpt lat="47.65014" lon="6.22822">
        <ele>316.95</ele>
        <time>2018-09-07T14:18:13Z</time>
      </trkpt>
      <trkpt lat="47.65012" lon="6.22814">
        <ele>317.02</ele>
        <time>2018-09-07T14:18:15Z</time>
      </trkpt>
      <trkpt lat="47.6501" lon="6.22806">
        <ele>317.1</ele>
        <time>2018-09-07T14:18:17Z</time>
      </trkpt>
      <trkpt lat="47.65007" lon="6.22799">
        <ele>317.18</ele>
        <time>2018-09-07T14:18:19Z</time>
      </trkpt>
      <trkpt lat="47.65005" lon="6.2279">
        <ele>317.26</ele>
        <time>2018-09-07T14:18:21Z</time>
      </trkpt>
      <trkpt lat="47.65003" lon="6.22781">
        <ele>317.33</ele>
        <time>2018-09-07T14:18:23Z</time>
      </trkpt>
      <trkpt lat="47.65" lon="6.22773">
        <ele>317.42</ele>
        <time>2018-09-07T14:18:25Z</time>
      </trkpt>
      <trkpt lat="47.64998" lon="6.22764">
        <ele>317.5</ele>
        <time>2018-09-07T14:18:27Z</time>
      </trkpt>
      <trkpt lat="47.64995" lon="6.22756">
        <ele>317.58</ele>
        <time>2018-09-07T14:18:29Z</time>
      </trkpt>
      <trkpt lat="47.64993" lon="6.22747">
        <ele>317.67</ele>
        <time>2018-09-07T14:18:31Z</time>
      </trkpt>
      <trkpt lat="47.6499" lon="6.22737">
        <ele>317.75</ele>
        <time>2018-09-07T14:18:33Z</time>
      </trkpt>
      <trkpt lat="47.64987" lon="6.22729">
        <ele>317.84</ele>
        <time>2018-09-07T14:18:35Z</time>
      </trkpt>
      <trkpt lat="47.64986" lon="6.22721">
        <ele>317.93</ele>
        <time>2018-09-07T14:18:37Z</time>
      </trkpt>
      <trkpt lat="47.64984" lon="6.22714">
        <ele>318.01</ele>
        <time>2018-09-07T14:18:39Z</time>
      </trkpt>
      <trkpt lat="47.64981" lon="6.22706">
        <ele>318.14</ele>
        <time>2018-09-07T14:18:42Z</time>
      </trkpt>
      <trkpt lat="47.64979" lon="6.227">
        <ele>318.23</ele>
        <time>2018-09-07T14:18:44Z</time>
      </trkpt>
      <trkpt lat="47.64977" lon="6.22691">
        <ele>318.36</ele>
        <time>2018-09-07T14:18:47Z</time>
      </trkpt>
      <trkpt lat="47.64974" lon="6.22684">
        <ele>318.44</ele>
        <time>2018-09-07T14:18:49Z</time>
      </trkpt>
      <trkpt lat="47.64972" lon="6.22677">
        <ele>318.52</ele>
        <time>2018-09-07T14:18:51Z</time>
      </trkpt>
      <trkpt lat="47.6497" lon="6.2267">
        <ele>318.61</ele>
        <time>2018-09-07T14:18:53Z</time>
      </trkpt>
      <trkpt lat="47.64968" lon="6.22664">
        <ele>318.69</ele>
        <time>2018-09-07T14:18:55Z</time>
      </trkpt>
      <trkpt lat="47.64966" lon="6.22655">
        <ele>318.81</ele>
        <time>2018-09-07T14:18:58Z</time>
      </trkpt>
      <trkpt lat="47.64963" lon="6.22646">
        <ele>318.93</ele>
        <time>2018-09-07T14:19:01Z</time>
      </trkpt>
      <trkpt lat="47.64961" lon="6.22637">
        <ele>319.05</ele>
        <time>2018-09-07T14:19:04Z</time>
      </trkpt>
      <trkpt lat="47.64959" lon="6.2263">
        <ele>319.17</ele>
        <time>2018-09-07T14:19:07Z</time>
      </trkpt>
      <trkpt lat="47.64957" lon="6.22623">
        <ele>319.44</ele>
        <time>2018-09-07T14:19:27Z</time>
      </trkpt>
      <trkpt lat="47.6496" lon="6.22615">
        <ele>319.65</ele>
        <time>2018-09-07T14:19:31Z</time>
      </trkpt>
      <trkpt lat="47.6496" lon="6.22608">
        <ele>319.93</ele>
        <time>2018-09-07T14:19:39Z</time>
      </trkpt>
      <trkpt lat="47.64962" lon="6.22602">
        <ele>320.41</ele>
        <time>2018-09-07T14:20:16Z</time>
      </trkpt>
      <trkpt lat="47.64966" lon="6.22597">
        <ele>320.7</ele>
        <time>2018-09-07T14:20:21Z</time>
      </trkpt>
      <trkpt lat="47.6497" lon="6.22592">
        <ele>320.93</ele>
        <time>2018-09-07T14:20:25Z</time>
      </trkpt>
      <trkpt lat="47.64973" lon="6.22587">
        <ele>321.09</ele>
        <time>2018-09-07T14:20:28Z</time>
      </trkpt>
      <trkpt lat="47.64977" lon="6.22582">
        <ele>321.3</ele>
        <time>2018-09-07T14:20:32Z</time>
      </trkpt>
      <trkpt lat="47.64982" lon="6.22578">
        <ele>321.45</ele>
        <time>2018-09-07T14:20:35Z</time>
      </trkpt>
      <trkpt lat="47.64985" lon="6.22573">
        <ele>321.65</ele>
        <time>2018-09-07T14:20:39Z</time>
      </trkpt>
      <trkpt lat="47.6499" lon="6.22568">
        <ele>321.84</ele>
        <time>2018-09-07T14:20:43Z</time>
      </trkpt>
      <trkpt lat="47.64994" lon="6.22564">
        <ele>321.98</ele>
        <time>2018-09-07T14:20:46Z</time>
      </trkpt>
      <trkpt lat="47.64998" lon="6.2256">
        <ele>322.12</ele>
        <time>2018-09-07T14:20:49Z</time>
      </trkpt>
      <trkpt lat="47.65002" lon="6.22557">
        <ele>322.3</ele>
        <time>2018-09-07T14:20:53Z</time>
      </trkpt>
      <trkpt lat="47.65007" lon="6.22552">
        <ele>322.48</ele>
        <time>2018-09-07T14:20:57Z</time>
      </trkpt>
      <trkpt lat="47.6501" lon="6.22546">
        <ele>322.66</ele>
        <time>2018-09-07T14:21:01Z</time>
      </trkpt>
      <trkpt lat="47.65014" lon="6.22542">
        <ele>322.83</ele>
        <time>2018-09-07T14:21:05Z</time>
      </trkpt>
      <trkpt lat="47.65019" lon="6.22537">
        <ele>323</ele>
        <time>2018-09-07T14:21:09Z</time>
      </trkpt>
      <trkpt lat="47.65023" lon="6.22531">
        <ele>323.16</ele>
        <time>2018-09-07T14:21:13Z</time>
      </trkpt>
      <trkpt lat="47.65027" lon="6.22525">
        <ele>323.33</ele>
        <time>2018-09-07T14:21:17Z</time>
      </trkpt>
      <trkpt lat="47.6503" lon="6.2252">
        <ele>323.44</ele>
        <time>2018-09-07T14:21:20Z</time>
      </trkpt>
      <trkpt lat="47.65034" lon="6.22514">
        <ele>323.6</ele>
        <time>2018-09-07T14:21:24Z</time>
      </trkpt>
      <trkpt lat="47.65038" lon="6.22508">
        <ele>323.75</ele>
        <time>2018-09-07T14:21:28Z</time>
      </trkpt>
      <trkpt lat="47.65041" lon="6.22502">
        <ele>323.9</ele>
        <time>2018-09-07T14:21:32Z</time>
      </trkpt>
      <trkpt lat="47.65043" lon="6.22495">
        <ele>324.04</ele>
        <time>2018-09-07T14:21:36Z</time>
      </trkpt>
      <trkpt lat="47.65046" lon="6.22489">
        <ele>324.15</ele>
        <time>2018-09-07T14:21:39Z</time>
      </trkpt>
      <trkpt lat="47.65049" lon="6.22484">
        <ele>324.25</ele>
        <time>2018-09-07T14:21:42Z</time>
      </trkpt>
      <trkpt lat="47.65053" lon="6.22478">
        <ele>324.35</ele>
        <time>2018-09-07T14:21:45Z</time>
      </trkpt>
      <trkpt lat="47.65056" lon="6.22471">
        <ele>324.45</ele>
        <time>2018-09-07T14:21:48Z</time>
      </trkpt>
      <trkpt lat="47.6506" lon="6.22464">
        <ele>324.55</ele>
        <time>2018-09-07T14:21:51Z</time>
      </trkpt>
      <trkpt lat="47.65062" lon="6.22458">
        <ele>324.62</ele>
        <time>2018-09-07T14:21:53Z</time>
      </trkpt>
      <trkpt lat="47.65065" lon="6.22452">
        <ele>324.72</ele>
        <time>2018-09-07T14:21:56Z</time>
      </trkpt>
      <trkpt lat="47.65068" lon="6.22445">
        <ele>324.85</ele>
        <time>2018-09-07T14:22:00Z</time>
      </trkpt>
      <trkpt lat="47.65073" lon="6.22441">
        <ele>324.98</ele>
        <time>2018-09-07T14:22:04Z</time>
      </trkpt>
      <trkpt lat="47.65078" lon="6.2244">
        <ele>325.07</ele>
        <time>2018-09-07T14:22:07Z</time>
      </trkpt>
      <trkpt lat="47.65082" lon="6.22436">
        <ele>325.17</ele>
        <time>2018-09-07T14:22:10Z</time>
      </trkpt>
      <trkpt lat="47.65085" lon="6.22429">
        <ele>325.27</ele>
        <time>2018-09-07T14:22:13Z</time>
      </trkpt>
      <trkpt lat="47.65088" lon="6.22423">
        <ele>325.36</ele>
        <time>2018-09-07T14:22:16Z</time>
      </trkpt>
      <trkpt lat="47.65092" lon="6.22416">
        <ele>325.5</ele>
        <time>2018-09-07T14:22:20Z</time>
      </trkpt>
      <trkpt lat="47.65096" lon="6.22413">
        <ele>325.61</ele>
        <time>2018-09-07T14:22:23Z</time>
      </trkpt>
      <trkpt lat="47.65101" lon="6.22409">
        <ele>325.76</ele>
        <time>2018-09-07T14:22:27Z</time>
      </trkpt>
      <trkpt lat="47.65107" lon="6.22405">
        <ele>325.91</ele>
        <time>2018-09-07T14:22:31Z</time>
      </trkpt>
      <trkpt lat="47.65111" lon="6.22403">
        <ele>326.1</ele>
        <time>2018-09-07T14:22:36Z</time>
      </trkpt>
      <trkpt lat="47.65116" lon="6.22402">
        <ele>326.22</ele>
        <time>2018-09-07T14:22:39Z</time>
      </trkpt>
      <trkpt lat="47.65122" lon="6.224">
        <ele>326.38</ele>
        <time>2018-09-07T14:22:43Z</time>
      </trkpt>
      <trkpt lat="47.65126" lon="6.22397">
        <ele>326.5</ele>
        <time>2018-09-07T14:22:46Z</time>
      </trkpt>
      <trkpt lat="47.65131" lon="6.22394">
        <ele>326.62</ele>
        <time>2018-09-07T14:22:49Z</time>
      </trkpt>
      <trkpt lat="47.65134" lon="6.2239">
        <ele>326.74</ele>
        <time>2018-09-07T14:22:52Z</time>
      </trkpt>
      <trkpt lat="47.65138" lon="6.22385">
        <ele>326.85</ele>
        <time>2018-09-07T14:22:55Z</time>
      </trkpt>
      <trkpt lat="47.65143" lon="6.22379">
        <ele>326.97</ele>
        <time>2018-09-07T14:22:58Z</time>
      </trkpt>
      <trkpt lat="47.65146" lon="6.22373">
        <ele>327.09</ele>
        <time>2018-09-07T14:23:01Z</time>
      </trkpt>
      <trkpt lat="47.6515" lon="6.22367">
        <ele>327.2</ele>
        <time>2018-09-07T14:23:04Z</time>
      </trkpt>
      <trkpt lat="47.65154" lon="6.22363">
        <ele>327.28</ele>
        <time>2018-09-07T14:23:06Z</time>
      </trkpt>
      <trkpt lat="47.65158" lon="6.22357">
        <ele>327.4</ele>
        <time>2018-09-07T14:23:09Z</time>
      </trkpt>
      <trkpt lat="47.65163" lon="6.22351">
        <ele>327.52</ele>
        <time>2018-09-07T14:23:12Z</time>
      </trkpt>
      <trkpt lat="47.65167" lon="6.22345">
        <ele>327.64</ele>
        <time>2018-09-07T14:23:15Z</time>
      </trkpt>
      <trkpt lat="47.65171" lon="6.22339">
        <ele>327.76</ele>
        <time>2018-09-07T14:23:18Z</time>
      </trkpt>
      <trkpt lat="47.65175" lon="6.22333">
        <ele>327.88</ele>
        <time>2018-09-07T14:23:21Z</time>
      </trkpt>
      <trkpt lat="47.65179" lon="6.22329">
        <ele>327.96</ele>
        <time>2018-09-07T14:23:23Z</time>
      </trkpt>
      <trkpt lat="47.65185" lon="6.22326">
        <ele>328.08</ele>
        <time>2018-09-07T14:23:26Z</time>
      </trkpt>
      <trkpt lat="47.6519" lon="6.22323">
        <ele>328.2</ele>
        <time>2018-09-07T14:23:29Z</time>
      </trkpt>
      <trkpt lat="47.65196" lon="6.22322">
        <ele>328.32</ele>
        <time>2018-09-07T14:23:32Z</time>
      </trkpt>
      <trkpt lat="47.65201" lon="6.22319">
        <ele>328.4</ele>
        <time>2018-09-07T14:23:34Z</time>
      </trkpt>
      <trkpt lat="47.65207" lon="6.22315">
        <ele>328.52</ele>
        <time>2018-09-07T14:23:37Z</time>
      </trkpt>
      <trkpt lat="47.65212" lon="6.22312">
        <ele>328.6</ele>
        <time>2018-09-07T14:23:39Z</time>
      </trkpt>
      <trkpt lat="47.65217" lon="6.22308">
        <ele>328.68</ele>
        <time>2018-09-07T14:23:41Z</time>
      </trkpt>
      <trkpt lat="47.65221" lon="6.22302">
        <ele>328.77</ele>
        <time>2018-09-07T14:23:43Z</time>
      </trkpt>
      <trkpt lat="47.65221" lon="6.22295">
        <ele>328.85</ele>
        <time>2018-09-07T14:23:45Z</time>
      </trkpt>
      <trkpt lat="47.65219" lon="6.22289">
        <ele>328.98</ele>
        <time>2018-09-07T14:23:48Z</time>
      </trkpt>
      <trkpt lat="47.65215" lon="6.22283">
        <ele>329.07</ele>
        <time>2018-09-07T14:23:50Z</time>
      </trkpt>
      <trkpt lat="47.65212" lon="6.22277">
        <ele>329.42</ele>
        <time>2018-09-07T14:23:52Z</time>
      </trkpt>
      <trkpt lat="47.65207" lon="6.22271">
        <ele>329.6</ele>
        <time>2018-09-07T14:23:54Z</time>
      </trkpt>
      <trkpt lat="47.65202" lon="6.22263">
        <ele>330.16</ele>
        <time>2018-09-07T14:23:56Z</time>
      </trkpt>
      <trkpt lat="47.65197" lon="6.22254">
        <ele>330.63</ele>
        <time>2018-09-07T14:23:58Z</time>
      </trkpt>
      <trkpt lat="47.65192" lon="6.22244">
        <ele>330.97</ele>
        <time>2018-09-07T14:24:00Z</time>
      </trkpt>
      <trkpt lat="47.65184" lon="6.2223">
        <ele>331.1</ele>
        <time>2018-09-07T14:24:01Z</time>
      </trkpt>
      <trkpt lat="47.65181" lon="6.22225">
        <ele>331.21</ele>
        <time>2018-09-07T14:24:02Z</time>
      </trkpt>
      <trkpt lat="47.65177" lon="6.22219">
        <ele>331.31</ele>
        <time>2018-09-07T14:24:03Z</time>
      </trkpt>
      <trkpt lat="47.65174" lon="6.22213">
        <ele>331.39</ele>
        <time>2018-09-07T14:24:04Z</time>
      </trkpt>
      <trkpt lat="47.6517" lon="6.22206">
        <ele>331.45</ele>
        <time>2018-09-07T14:24:05Z</time>
      </trkpt>
      <trkpt lat="47.65167" lon="6.222">
        <ele>331.51</ele>
        <time>2018-09-07T14:24:06Z</time>
      </trkpt>
      <trkpt lat="47.65163" lon="6.22193">
        <ele>331.57</ele>
        <time>2018-09-07T14:24:07Z</time>
      </trkpt>
      <trkpt lat="47.65158" lon="6.22187">
        <ele>331.62</ele>
        <time>2018-09-07T14:24:08Z</time>
      </trkpt>
      <trkpt lat="47.65153" lon="6.22179">
        <ele>331.67</ele>
        <time>2018-09-07T14:24:09Z</time>
      </trkpt>
      <trkpt lat="47.65148" lon="6.22172">
        <ele>331.71</ele>
        <time>2018-09-07T14:24:10Z</time>
      </trkpt>
      <trkpt lat="47.65143" lon="6.22164">
        <ele>331.76</ele>
        <time>2018-09-07T14:24:11Z</time>
      </trkpt>
      <trkpt lat="47.65137" lon="6.22157">
        <ele>331.8</ele>
        <time>2018-09-07T14:24:12Z</time>
      </trkpt>
      <trkpt lat="47.65131" lon="6.2215">
        <ele>331.84</ele>
        <time>2018-09-07T14:24:13Z</time>
      </trkpt>
      <trkpt lat="47.65125" lon="6.22142">
        <ele>331.87</ele>
        <time>2018-09-07T14:24:14Z</time>
      </trkpt>
      <trkpt lat="47.6512" lon="6.22133">
        <ele>331.91</ele>
        <time>2018-09-07T14:24:15Z</time>
      </trkpt>
      <trkpt lat="47.65116" lon="6.22124">
        <ele>331.93</ele>
        <time>2018-09-07T14:24:16Z</time>
      </trkpt>
      <trkpt lat="47.65111" lon="6.22115">
        <ele>331.93</ele>
        <time>2018-09-07T14:24:17Z</time>
      </trkpt>
      <trkpt lat="47.65107" lon="6.22107">
        <ele>331.95</ele>
        <time>2018-09-07T14:24:18Z</time>
      </trkpt>
      <trkpt lat="47.65103" lon="6.22098">
        <ele>332</ele>
        <time>2018-09-07T14:24:19Z</time>
      </trkpt>
      <trkpt lat="47.65099" lon="6.22091">
        <ele>332.04</ele>
        <time>2018-09-07T14:24:20Z</time>
      </trkpt>
      <trkpt lat="47.65095" lon="6.22084">
        <ele>332.09</ele>
        <time>2018-09-07T14:24:21Z</time>
      </trkpt>
      <trkpt lat="47.65091" lon="6.22077">
        <ele>332.12</ele>
        <time>2018-09-07T14:24:22Z</time>
      </trkpt>
      <trkpt lat="47.65088" lon="6.2207">
        <ele>332.15</ele>
        <time>2018-09-07T14:24:23Z</time>
      </trkpt>
      <trkpt lat="47.65085" lon="6.22063">
        <ele>332.18</ele>
        <time>2018-09-07T14:24:24Z</time>
      </trkpt>
      <trkpt lat="47.65082" lon="6.22055">
        <ele>332.2</ele>
        <time>2018-09-07T14:24:25Z</time>
      </trkpt>
      <trkpt lat="47.65079" lon="6.22049">
        <ele>332.22</ele>
        <time>2018-09-07T14:24:26Z</time>
      </trkpt>
      <trkpt lat="47.65077" lon="6.22041">
        <ele>332.26</ele>
        <time>2018-09-07T14:24:27Z</time>
      </trkpt>
      <trkpt lat="47.65075" lon="6.22035">
        <ele>332.33</ele>
        <time>2018-09-07T14:24:28Z</time>
      </trkpt>
      <trkpt lat="47.65073" lon="6.22028">
        <ele>332.43</ele>
        <time>2018-09-07T14:24:29Z</time>
      </trkpt>
      <trkpt lat="47.6507" lon="6.22016">
        <ele>332.56</ele>
        <time>2018-09-07T14:24:31Z</time>
      </trkpt>
      <trkpt lat="47.65068" lon="6.22009">
        <ele>332.58</ele>
        <time>2018-09-07T14:24:33Z</time>
      </trkpt>
      <trkpt lat="47.65065" lon="6.22003">
        <ele>332.58</ele>
        <time>2018-09-07T14:24:35Z</time>
      </trkpt>
      <trkpt lat="47.65062" lon="6.21996">
        <ele>332.58</ele>
        <time>2018-09-07T14:24:37Z</time>
      </trkpt>
      <trkpt lat="47.65057" lon="6.21987">
        <ele>332.6</ele>
        <time>2018-09-07T14:24:39Z</time>
      </trkpt>
      <trkpt lat="47.65051" lon="6.21975">
        <ele>332.67</ele>
        <time>2018-09-07T14:24:40Z</time>
      </trkpt>
      <trkpt lat="47.65048" lon="6.2197">
        <ele>332.77</ele>
        <time>2018-09-07T14:24:41Z</time>
      </trkpt>
      <trkpt lat="47.65045" lon="6.21964">
        <ele>332.87</ele>
        <time>2018-09-07T14:24:42Z</time>
      </trkpt>
      <trkpt lat="47.65041" lon="6.21959">
        <ele>332.98</ele>
        <time>2018-09-07T14:24:43Z</time>
      </trkpt>
      <trkpt lat="47.65038" lon="6.21953">
        <ele>333.09</ele>
        <time>2018-09-07T14:24:44Z</time>
      </trkpt>
      <trkpt lat="47.65035" lon="6.21947">
        <ele>333.21</ele>
        <time>2018-09-07T14:24:45Z</time>
      </trkpt>
      <trkpt lat="47.65032" lon="6.21941">
        <ele>333.34</ele>
        <time>2018-09-07T14:24:46Z</time>
      </trkpt>
      <trkpt lat="47.65029" lon="6.21935">
        <ele>333.53</ele>
        <time>2018-09-07T14:24:47Z</time>
      </trkpt>
      <trkpt lat="47.65027" lon="6.2193">
        <ele>333.67</ele>
        <time>2018-09-07T14:24:48Z</time>
      </trkpt>
      <trkpt lat="47.65024" lon="6.21924">
        <ele>333.83</ele>
        <time>2018-09-07T14:24:49Z</time>
      </trkpt>
      <trkpt lat="47.65019" lon="6.21913">
        <ele>333.79</ele>
        <time>2018-09-07T14:24:51Z</time>
      </trkpt>
      <trkpt lat="47.65016" lon="6.21908">
        <ele>333.81</ele>
        <time>2018-09-07T14:24:52Z</time>
      </trkpt>
      <trkpt lat="47.65012" lon="6.21899">
        <ele>333.83</ele>
        <time>2018-09-07T14:24:54Z</time>
      </trkpt>
      <trkpt lat="47.65009" lon="6.21894">
        <ele>333.84</ele>
        <time>2018-09-07T14:24:56Z</time>
      </trkpt>
      <trkpt lat="47.65005" lon="6.21888">
        <ele>333.88</ele>
        <time>2018-09-07T14:24:58Z</time>
      </trkpt>
      <trkpt lat="47.65002" lon="6.21882">
        <ele>333.93</ele>
        <time>2018-09-07T14:25:00Z</time>
      </trkpt>
      <trkpt lat="47.64998" lon="6.21876">
        <ele>333.99</ele>
        <time>2018-09-07T14:25:02Z</time>
      </trkpt>
      <trkpt lat="47.64995" lon="6.21869">
        <ele>334.1</ele>
        <time>2018-09-07T14:25:05Z</time>
      </trkpt>
      <trkpt lat="47.64991" lon="6.21863">
        <ele>334.17</ele>
        <time>2018-09-07T14:25:07Z</time>
      </trkpt>
      <trkpt lat="47.64987" lon="6.21856">
        <ele>334.29</ele>
        <time>2018-09-07T14:25:10Z</time>
      </trkpt>
      <trkpt lat="47.64983" lon="6.21852">
        <ele>334.36</ele>
        <time>2018-09-07T14:25:12Z</time>
      </trkpt>
      <trkpt lat="47.64981" lon="6.21846">
        <ele>334.44</ele>
        <time>2018-09-07T14:25:14Z</time>
      </trkpt>
      <trkpt lat="47.64979" lon="6.21839">
        <ele>334.68</ele>
        <time>2018-09-07T14:25:44Z</time>
      </trkpt>
      <trkpt lat="47.64974" lon="6.21841">
        <ele>334.37</ele>
        <time>2018-09-07T14:27:45Z</time>
      </trkpt>
      <trkpt lat="47.64971" lon="6.21833">
        <ele>333.9</ele>
        <time>2018-09-07T14:28:48Z</time>
      </trkpt>
      <trkpt lat="47.64969" lon="6.21826">
        <ele>333.83</ele>
        <time>2018-09-07T14:28:51Z</time>
      </trkpt>
      <trkpt lat="47.64967" lon="6.21818">
        <ele>333.77</ele>
        <time>2018-09-07T14:28:54Z</time>
      </trkpt>
      <trkpt lat="47.64965" lon="6.2181">
        <ele>333.71</ele>
        <time>2018-09-07T14:28:57Z</time>
      </trkpt>
      <trkpt lat="47.64963" lon="6.21803">
        <ele>333.66</ele>
        <time>2018-09-07T14:29:00Z</time>
      </trkpt>
      <trkpt lat="47.64962" lon="6.21795">
        <ele>333.6</ele>
        <time>2018-09-07T14:29:04Z</time>
      </trkpt>
      <trkpt lat="47.64962" lon="6.21788">
        <ele>333.55</ele>
        <time>2018-09-07T14:29:08Z</time>
      </trkpt>
      <trkpt lat="47.6496" lon="6.2178">
        <ele>333.5</ele>
        <time>2018-09-07T14:29:13Z</time>
      </trkpt>
      <trkpt lat="47.64959" lon="6.21774">
        <ele>333.47</ele>
        <time>2018-09-07T14:29:23Z</time>
      </trkpt>
      <trkpt lat="47.64959" lon="6.21767">
        <ele>333.48</ele>
        <time>2018-09-07T14:29:50Z</time>
      </trkpt>
      <trkpt lat="47.6496" lon="6.21759">
        <ele>333.5</ele>
        <time>2018-09-07T14:29:54Z</time>
      </trkpt>
      <trkpt lat="47.64959" lon="6.21752">
        <ele>333.51</ele>
        <time>2018-09-07T14:29:57Z</time>
      </trkpt>
      <trkpt lat="47.64958" lon="6.21743">
        <ele>333.53</ele>
        <time>2018-09-07T14:30:00Z</time>
      </trkpt>
      <trkpt lat="47.64957" lon="6.21736">
        <ele>333.55</ele>
        <time>2018-09-07T14:30:02Z</time>
      </trkpt>
      <trkpt lat="47.64954" lon="6.21728">
        <ele>333.58</ele>
        <time>2018-09-07T14:30:05Z</time>
      </trkpt>
      <trkpt lat="47.64953" lon="6.21721">
        <ele>333.61</ele>
        <time>2018-09-07T14:30:07Z</time>
      </trkpt>
      <trkpt lat="47.64951" lon="6.21713">
        <ele>333.63</ele>
        <time>2018-09-07T14:30:09Z</time>
      </trkpt>
      <trkpt lat="47.6495" lon="6.21707">
        <ele>333.66</ele>
        <time>2018-09-07T14:30:11Z</time>
      </trkpt>
      <trkpt lat="47.64949" lon="6.217">
        <ele>333.68</ele>
        <time>2018-09-07T14:30:13Z</time>
      </trkpt>
      <trkpt lat="47.64948" lon="6.21693">
        <ele>333.71</ele>
        <time>2018-09-07T14:30:15Z</time>
      </trkpt>
      <trkpt lat="47.64947" lon="6.21685">
        <ele>333.73</ele>
        <time>2018-09-07T14:30:17Z</time>
      </trkpt>
      <trkpt lat="47.64946" lon="6.21676">
        <ele>333.76</ele>
        <time>2018-09-07T14:30:19Z</time>
      </trkpt>
      <trkpt lat="47.64945" lon="6.21668">
        <ele>333.79</ele>
        <time>2018-09-07T14:30:21Z</time>
      </trkpt>
      <trkpt lat="47.64944" lon="6.21658">
        <ele>334.01</ele>
        <time>2018-09-07T14:30:23Z</time>
      </trkpt>
      <trkpt lat="47.64942" lon="6.21646">
        <ele>334.2</ele>
        <time>2018-09-07T14:30:25Z</time>
      </trkpt>
      <trkpt lat="47.64938" lon="6.21629">
        <ele>334.27</ele>
        <time>2018-09-07T14:30:26Z</time>
      </trkpt>
      <trkpt lat="47.64937" lon="6.21622">
        <ele>334.33</ele>
        <time>2018-09-07T14:30:27Z</time>
      </trkpt>
      <trkpt lat="47.64935" lon="6.21615">
        <ele>334.39</ele>
        <time>2018-09-07T14:30:28Z</time>
      </trkpt>
      <trkpt lat="47.64934" lon="6.21608">
        <ele>334.44</ele>
        <time>2018-09-07T14:30:29Z</time>
      </trkpt>
      <trkpt lat="47.64932" lon="6.21596">
        <ele>334.52</ele>
        <time>2018-09-07T14:30:31Z</time>
      </trkpt>
      <trkpt lat="47.6493" lon="6.21583">
        <ele>334.59</ele>
        <time>2018-09-07T14:30:33Z</time>
      </trkpt>
      <trkpt lat="47.64928" lon="6.21577">
        <ele>334.62</ele>
        <time>2018-09-07T14:30:34Z</time>
      </trkpt>
      <trkpt lat="47.64926" lon="6.2157">
        <ele>334.64</ele>
        <time>2018-09-07T14:30:35Z</time>
      </trkpt>
      <trkpt lat="47.64923" lon="6.21563">
        <ele>334.67</ele>
        <time>2018-09-07T14:30:36Z</time>
      </trkpt>
      <trkpt lat="47.64921" lon="6.21556">
        <ele>334.7</ele>
        <time>2018-09-07T14:30:37Z</time>
      </trkpt>
      <trkpt lat="47.64918" lon="6.21549">
        <ele>334.72</ele>
        <time>2018-09-07T14:30:38Z</time>
      </trkpt>
      <trkpt lat="47.64916" lon="6.21541">
        <ele>334.74</ele>
        <time>2018-09-07T14:30:39Z</time>
      </trkpt>
      <trkpt lat="47.64913" lon="6.21534">
        <ele>334.76</ele>
        <time>2018-09-07T14:30:40Z</time>
      </trkpt>
      <trkpt lat="47.64911" lon="6.21527">
        <ele>334.79</ele>
        <time>2018-09-07T14:30:41Z</time>
      </trkpt>
      <trkpt lat="47.64908" lon="6.21519">
        <ele>334.81</ele>
        <time>2018-09-07T14:30:42Z</time>
      </trkpt>
      <trkpt lat="47.64906" lon="6.21513">
        <ele>334.84</ele>
        <time>2018-09-07T14:30:43Z</time>
      </trkpt>
      <trkpt lat="47.64904" lon="6.21505">
        <ele>334.87</ele>
        <time>2018-09-07T14:30:44Z</time>
      </trkpt>
      <trkpt lat="47.64902" lon="6.21498">
        <ele>334.89</ele>
        <time>2018-09-07T14:30:45Z</time>
      </trkpt>
      <trkpt lat="47.649" lon="6.21491">
        <ele>334.91</ele>
        <time>2018-09-07T14:30:46Z</time>
      </trkpt>
      <trkpt lat="47.64898" lon="6.21484">
        <ele>334.93</ele>
        <time>2018-09-07T14:30:47Z</time>
      </trkpt>
      <trkpt lat="47.64896" lon="6.21476">
        <ele>334.95</ele>
        <time>2018-09-07T14:30:48Z</time>
      </trkpt>
      <trkpt lat="47.64895" lon="6.21468">
        <ele>334.97</ele>
        <time>2018-09-07T14:30:49Z</time>
      </trkpt>
      <trkpt lat="47.64893" lon="6.2146">
        <ele>334.99</ele>
        <time>2018-09-07T14:30:50Z</time>
      </trkpt>
      <trkpt lat="47.6489" lon="6.21452">
        <ele>335</ele>
        <time>2018-09-07T14:30:51Z</time>
      </trkpt>
      <trkpt lat="47.64887" lon="6.21444">
        <ele>335.01</ele>
        <time>2018-09-07T14:30:52Z</time>
      </trkpt>
      <trkpt lat="47.64883" lon="6.21435">
        <ele>335.02</ele>
        <time>2018-09-07T14:30:53Z</time>
      </trkpt>
      <trkpt lat="47.6488" lon="6.21427">
        <ele>335.03</ele>
        <time>2018-09-07T14:30:54Z</time>
      </trkpt>
      <trkpt lat="47.64877" lon="6.21418">
        <ele>335.03</ele>
        <time>2018-09-07T14:30:55Z</time>
      </trkpt>
      <trkpt lat="47.64873" lon="6.2141">
        <ele>335.03</ele>
        <time>2018-09-07T14:30:56Z</time>
      </trkpt>
      <trkpt lat="47.64869" lon="6.21401">
        <ele>335.02</ele>
        <time>2018-09-07T14:30:57Z</time>
      </trkpt>
      <trkpt lat="47.64866" lon="6.21393">
        <ele>335.02</ele>
        <time>2018-09-07T14:30:58Z</time>
      </trkpt>
      <trkpt lat="47.64863" lon="6.21385">
        <ele>335.01</ele>
        <time>2018-09-07T14:30:59Z</time>
      </trkpt>
      <trkpt lat="47.6486" lon="6.21377">
        <ele>335</ele>
        <time>2018-09-07T14:31:00Z</time>
      </trkpt>
      <trkpt lat="47.64858" lon="6.21369">
        <ele>334.98</ele>
        <time>2018-09-07T14:31:01Z</time>
      </trkpt>
      <trkpt lat="47.64856" lon="6.21362">
        <ele>334.97</ele>
        <time>2018-09-07T14:31:02Z</time>
      </trkpt>
      <trkpt lat="47.64855" lon="6.21356">
        <ele>334.96</ele>
        <time>2018-09-07T14:31:03Z</time>
      </trkpt>
      <trkpt lat="47.64853" lon="6.21344">
        <ele>334.96</ele>
        <time>2018-09-07T14:31:05Z</time>
      </trkpt>
      <trkpt lat="47.64852" lon="6.21332">
        <ele>335.04</ele>
        <time>2018-09-07T14:31:07Z</time>
      </trkpt>
      <trkpt lat="47.64851" lon="6.21323">
        <ele>335.07</ele>
        <time>2018-09-07T14:31:09Z</time>
      </trkpt>
      <trkpt lat="47.64851" lon="6.21315">
        <ele>335.09</ele>
        <time>2018-09-07T14:31:11Z</time>
      </trkpt>
      <trkpt lat="47.6485" lon="6.21308">
        <ele>335.12</ele>
        <time>2018-09-07T14:31:13Z</time>
      </trkpt>
      <trkpt lat="47.6485" lon="6.213">
        <ele>335.15</ele>
        <time>2018-09-07T14:31:15Z</time>
      </trkpt>
      <trkpt lat="47.64849" lon="6.21293">
        <ele>335.19</ele>
        <time>2018-09-07T14:31:17Z</time>
      </trkpt>
      <trkpt lat="47.64849" lon="6.21284">
        <ele>335.26</ele>
        <time>2018-09-07T14:31:19Z</time>
      </trkpt>
      <trkpt lat="47.64848" lon="6.21277">
        <ele>335.35</ele>
        <time>2018-09-07T14:31:21Z</time>
      </trkpt>
      <trkpt lat="47.64847" lon="6.21269">
        <ele>335.42</ele>
        <time>2018-09-07T14:31:23Z</time>
      </trkpt>
      <trkpt lat="47.64845" lon="6.2126">
        <ele>335.47</ele>
        <time>2018-09-07T14:31:25Z</time>
      </trkpt>
      <trkpt lat="47.64844" lon="6.21251">
        <ele>335.53</ele>
        <time>2018-09-07T14:31:27Z</time>
      </trkpt>
      <trkpt lat="47.64842" lon="6.21241">
        <ele>335.57</ele>
        <time>2018-09-07T14:31:29Z</time>
      </trkpt>
      <trkpt lat="47.64841" lon="6.21233">
        <ele>335.6</ele>
        <time>2018-09-07T14:31:31Z</time>
      </trkpt>
      <trkpt lat="47.64838" lon="6.21224">
        <ele>335.62</ele>
        <time>2018-09-07T14:31:33Z</time>
      </trkpt>
      <trkpt lat="47.64835" lon="6.21215">
        <ele>335.65</ele>
        <time>2018-09-07T14:31:35Z</time>
      </trkpt>
      <trkpt lat="47.64832" lon="6.21207">
        <ele>335.67</ele>
        <time>2018-09-07T14:31:37Z</time>
      </trkpt>
      <trkpt lat="47.64828" lon="6.21198">
        <ele>335.67</ele>
        <time>2018-09-07T14:31:39Z</time>
      </trkpt>
      <trkpt lat="47.64825" lon="6.21191">
        <ele>335.64</ele>
        <time>2018-09-07T14:31:41Z</time>
      </trkpt>
      <trkpt lat="47.64822" lon="6.21184">
        <ele>335.57</ele>
        <time>2018-09-07T14:31:43Z</time>
      </trkpt>
      <trkpt lat="47.64819" lon="6.21178">
        <ele>335.48</ele>
        <time>2018-09-07T14:31:45Z</time>
      </trkpt>
      <trkpt lat="47.64816" lon="6.21171">
        <ele>335.36</ele>
        <time>2018-09-07T14:31:47Z</time>
      </trkpt>
      <trkpt lat="47.64813" lon="6.21163">
        <ele>335.23</ele>
        <time>2018-09-07T14:31:49Z</time>
      </trkpt>
      <trkpt lat="47.6481" lon="6.21156">
        <ele>335.09</ele>
        <time>2018-09-07T14:31:51Z</time>
      </trkpt>
      <trkpt lat="47.64807" lon="6.21146">
        <ele>334.96</ele>
        <time>2018-09-07T14:31:53Z</time>
      </trkpt>
      <trkpt lat="47.64804" lon="6.21137">
        <ele>334.83</ele>
        <time>2018-09-07T14:31:55Z</time>
      </trkpt>
      <trkpt lat="47.64801" lon="6.21128">
        <ele>334.71</ele>
        <time>2018-09-07T14:31:57Z</time>
      </trkpt>
      <trkpt lat="47.64799" lon="6.21121">
        <ele>334.6</ele>
        <time>2018-09-07T14:31:59Z</time>
      </trkpt>
      <trkpt lat="47.64797" lon="6.21113">
        <ele>334.5</ele>
        <time>2018-09-07T14:32:01Z</time>
      </trkpt>
      <trkpt lat="47.64794" lon="6.21105">
        <ele>334.42</ele>
        <time>2018-09-07T14:32:03Z</time>
      </trkpt>
      <trkpt lat="47.64791" lon="6.21097">
        <ele>334.35</ele>
        <time>2018-09-07T14:32:05Z</time>
      </trkpt>
      <trkpt lat="47.64789" lon="6.21089">
        <ele>334.29</ele>
        <time>2018-09-07T14:32:07Z</time>
      </trkpt>
      <trkpt lat="47.64786" lon="6.21079">
        <ele>334.24</ele>
        <time>2018-09-07T14:32:09Z</time>
      </trkpt>
      <trkpt lat="47.64782" lon="6.21068">
        <ele>334.18</ele>
        <time>2018-09-07T14:32:11Z</time>
      </trkpt>
      <trkpt lat="47.64779" lon="6.21057">
        <ele>334.13</ele>
        <time>2018-09-07T14:32:13Z</time>
      </trkpt>
      <trkpt lat="47.64777" lon="6.2105">
        <ele>334.07</ele>
        <time>2018-09-07T14:32:15Z</time>
      </trkpt>
      <trkpt lat="47.64774" lon="6.21043">
        <ele>333.99</ele>
        <time>2018-09-07T14:32:17Z</time>
      </trkpt>
      <trkpt lat="47.64768" lon="6.21039">
        <ele>333.92</ele>
        <time>2018-09-07T14:32:19Z</time>
      </trkpt>
      <trkpt lat="47.64763" lon="6.2104">
        <ele>333.86</ele>
        <time>2018-09-07T14:32:21Z</time>
      </trkpt>
      <trkpt lat="47.64759" lon="6.21042">
        <ele>333.8</ele>
        <time>2018-09-07T14:32:23Z</time>
      </trkpt>
      <trkpt lat="47.64755" lon="6.21046">
        <ele>333.73</ele>
        <time>2018-09-07T14:32:26Z</time>
      </trkpt>
      <trkpt lat="47.64751" lon="6.21052">
        <ele>333.68</ele>
        <time>2018-09-07T14:32:29Z</time>
      </trkpt>
      <trkpt lat="47.64746" lon="6.21059">
        <ele>333.63</ele>
        <time>2018-09-07T14:32:33Z</time>
      </trkpt>
      <trkpt lat="47.64743" lon="6.21065">
        <ele>333.62</ele>
        <time>2018-09-07T14:32:36Z</time>
      </trkpt>
      <trkpt lat="47.64741" lon="6.21072">
        <ele>333.61</ele>
        <time>2018-09-07T14:32:39Z</time>
      </trkpt>
      <trkpt lat="47.64738" lon="6.21079">
        <ele>333.62</ele>
        <time>2018-09-07T14:32:42Z</time>
      </trkpt>
      <trkpt lat="47.64735" lon="6.21086">
        <ele>333.63</ele>
        <time>2018-09-07T14:32:45Z</time>
      </trkpt>
      <trkpt lat="47.64731" lon="6.21094">
        <ele>333.66</ele>
        <time>2018-09-07T14:32:48Z</time>
      </trkpt>
      <trkpt lat="47.64727" lon="6.21101">
        <ele>333.69</ele>
        <time>2018-09-07T14:32:51Z</time>
      </trkpt>
      <trkpt lat="47.64723" lon="6.21107">
        <ele>333.74</ele>
        <time>2018-09-07T14:32:55Z</time>
      </trkpt>
      <trkpt lat="47.64719" lon="6.21113">
        <ele>333.78</ele>
        <time>2018-09-07T14:32:58Z</time>
      </trkpt>
      <trkpt lat="47.64715" lon="6.2112">
        <ele>333.81</ele>
        <time>2018-09-07T14:33:01Z</time>
      </trkpt>
      <trkpt lat="47.64712" lon="6.21126">
        <ele>333.84</ele>
        <time>2018-09-07T14:33:04Z</time>
      </trkpt>
      <trkpt lat="47.64708" lon="6.21133">
        <ele>333.86</ele>
        <time>2018-09-07T14:33:07Z</time>
      </trkpt>
      <trkpt lat="47.64706" lon="6.2114">
        <ele>333.87</ele>
        <time>2018-09-07T14:33:10Z</time>
      </trkpt>
      <trkpt lat="47.64703" lon="6.21147">
        <ele>333.88</ele>
        <time>2018-09-07T14:33:13Z</time>
      </trkpt>
      <trkpt lat="47.64701" lon="6.21154">
        <ele>333.88</ele>
        <time>2018-09-07T14:33:16Z</time>
      </trkpt>
      <trkpt lat="47.64699" lon="6.2116">
        <ele>333.88</ele>
        <time>2018-09-07T14:33:19Z</time>
      </trkpt>
      <trkpt lat="47.64696" lon="6.21167">
        <ele>333.88</ele>
        <time>2018-09-07T14:33:22Z</time>
      </trkpt>
      <trkpt lat="47.64693" lon="6.21173">
        <ele>333.87</ele>
        <time>2018-09-07T14:33:25Z</time>
      </trkpt>
      <trkpt lat="47.64689" lon="6.21178">
        <ele>333.87</ele>
        <time>2018-09-07T14:33:28Z</time>
      </trkpt>
      <trkpt lat="47.64685" lon="6.21184">
        <ele>333.87</ele>
        <time>2018-09-07T14:33:31Z</time>
      </trkpt>
      <trkpt lat="47.64682" lon="6.2119">
        <ele>333.88</ele>
        <time>2018-09-07T14:33:34Z</time>
      </trkpt>
      <trkpt lat="47.64679" lon="6.21196">
        <ele>333.92</ele>
        <time>2018-09-07T14:33:37Z</time>
      </trkpt>
      <trkpt lat="47.64675" lon="6.21201">
        <ele>333.96</ele>
        <time>2018-09-07T14:33:40Z</time>
      </trkpt>
      <trkpt lat="47.6467" lon="6.21206">
        <ele>334</ele>
        <time>2018-09-07T14:33:44Z</time>
      </trkpt>
      <trkpt lat="47.64666" lon="6.21212">
        <ele>334.04</ele>
        <time>2018-09-07T14:33:48Z</time>
      </trkpt>
      <trkpt lat="47.64663" lon="6.21218">
        <ele>334.11</ele>
        <time>2018-09-07T14:33:51Z</time>
      </trkpt>
      <trkpt lat="47.64661" lon="6.21224">
        <ele>334.2</ele>
        <time>2018-09-07T14:33:54Z</time>
      </trkpt>
      <trkpt lat="47.64658" lon="6.2123">
        <ele>334.4</ele>
        <time>2018-09-07T14:33:59Z</time>
      </trkpt>
      <trkpt lat="47.64655" lon="6.21237">
        <ele>334.6</ele>
        <time>2018-09-07T14:34:03Z</time>
      </trkpt>
      <trkpt lat="47.64652" lon="6.21243">
        <ele>334.77</ele>
        <time>2018-09-07T14:34:06Z</time>
      </trkpt>
      <trkpt lat="47.6465" lon="6.2125">
        <ele>334.95</ele>
        <time>2018-09-07T14:34:09Z</time>
      </trkpt>
      <trkpt lat="47.64648" lon="6.21256">
        <ele>335.14</ele>
        <time>2018-09-07T14:34:12Z</time>
      </trkpt>
      <trkpt lat="47.64645" lon="6.21263">
        <ele>335.4</ele>
        <time>2018-09-07T14:34:16Z</time>
      </trkpt>
      <trkpt lat="47.64642" lon="6.2127">
        <ele>335.59</ele>
        <time>2018-09-07T14:34:19Z</time>
      </trkpt>
      <trkpt lat="47.6464" lon="6.21277">
        <ele>335.78</ele>
        <time>2018-09-07T14:34:22Z</time>
      </trkpt>
      <trkpt lat="47.64639" lon="6.21283">
        <ele>335.97</ele>
        <time>2018-09-07T14:34:25Z</time>
      </trkpt>
      <trkpt lat="47.64636" lon="6.2129">
        <ele>336.14</ele>
        <time>2018-09-07T14:34:28Z</time>
      </trkpt>
      <trkpt lat="47.64634" lon="6.21298">
        <ele>336.37</ele>
        <time>2018-09-07T14:34:32Z</time>
      </trkpt>
      <trkpt lat="47.64632" lon="6.21304">
        <ele>336.55</ele>
        <time>2018-09-07T14:34:35Z</time>
      </trkpt>
      <trkpt lat="47.64629" lon="6.2131">
        <ele>336.82</ele>
        <time>2018-09-07T14:34:39Z</time>
      </trkpt>
      <trkpt lat="47.64626" lon="6.21316">
        <ele>337.04</ele>
        <time>2018-09-07T14:34:42Z</time>
      </trkpt>
      <trkpt lat="47.64623" lon="6.21323">
        <ele>337.27</ele>
        <time>2018-09-07T14:34:45Z</time>
      </trkpt>
      <trkpt lat="47.64619" lon="6.2133">
        <ele>337.52</ele>
        <time>2018-09-07T14:34:48Z</time>
      </trkpt>
      <trkpt lat="47.64616" lon="6.21336">
        <ele>337.77</ele>
        <time>2018-09-07T14:34:51Z</time>
      </trkpt>
      <trkpt lat="47.64613" lon="6.21342">
        <ele>338.04</ele>
        <time>2018-09-07T14:34:54Z</time>
      </trkpt>
      <trkpt lat="47.6461" lon="6.21348">
        <ele>338.32</ele>
        <time>2018-09-07T14:34:57Z</time>
      </trkpt>
      <trkpt lat="47.64607" lon="6.21353">
        <ele>338.59</ele>
        <time>2018-09-07T14:35:00Z</time>
      </trkpt>
      <trkpt lat="47.64603" lon="6.2136">
        <ele>338.96</ele>
        <time>2018-09-07T14:35:04Z</time>
      </trkpt>
      <trkpt lat="47.64599" lon="6.21364">
        <ele>339.24</ele>
        <time>2018-09-07T14:35:07Z</time>
      </trkpt>
      <trkpt lat="47.64596" lon="6.21369">
        <ele>339.53</ele>
        <time>2018-09-07T14:35:10Z</time>
      </trkpt>
      <trkpt lat="47.64592" lon="6.21373">
        <ele>339.82</ele>
        <time>2018-09-07T14:35:13Z</time>
      </trkpt>
      <trkpt lat="47.64588" lon="6.21379">
        <ele>340.22</ele>
        <time>2018-09-07T14:35:17Z</time>
      </trkpt>
      <trkpt lat="47.64584" lon="6.21383">
        <ele>340.53</ele>
        <time>2018-09-07T14:35:20Z</time>
      </trkpt>
      <trkpt lat="47.64579" lon="6.21388">
        <ele>340.94</ele>
        <time>2018-09-07T14:35:24Z</time>
      </trkpt>
      <trkpt lat="47.64575" lon="6.2139">
        <ele>341.35</ele>
        <time>2018-09-07T14:35:28Z</time>
      </trkpt>
      <trkpt lat="47.6457" lon="6.21394">
        <ele>342.06</ele>
        <time>2018-09-07T14:35:35Z</time>
      </trkpt>
      <trkpt lat="47.64567" lon="6.21399">
        <ele>342.76</ele>
        <time>2018-09-07T14:35:42Z</time>
      </trkpt>
      <trkpt lat="47.64562" lon="6.21405">
        <ele>343.34</ele>
        <time>2018-09-07T14:35:48Z</time>
      </trkpt>
      <trkpt lat="47.64558" lon="6.21409">
        <ele>343.84</ele>
        <time>2018-09-07T14:35:53Z</time>
      </trkpt>
      <trkpt lat="47.64553" lon="6.21413">
        <ele>344.38</ele>
        <time>2018-09-07T14:35:58Z</time>
      </trkpt>
      <trkpt lat="47.64549" lon="6.21415">
        <ele>344.84</ele>
        <time>2018-09-07T14:36:02Z</time>
      </trkpt>
      <trkpt lat="47.64544" lon="6.21419">
        <ele>345.2</ele>
        <time>2018-09-07T14:36:05Z</time>
      </trkpt>
      <trkpt lat="47.64539" lon="6.21422">
        <ele>345.57</ele>
        <time>2018-09-07T14:36:08Z</time>
      </trkpt>
      <trkpt lat="47.64533" lon="6.21425">
        <ele>346.07</ele>
        <time>2018-09-07T14:36:12Z</time>
      </trkpt>
      <trkpt lat="47.64528" lon="6.21426">
        <ele>346.45</ele>
        <time>2018-09-07T14:36:15Z</time>
      </trkpt>
      <trkpt lat="47.64523" lon="6.21429">
        <ele>346.83</ele>
        <time>2018-09-07T14:36:18Z</time>
      </trkpt>
      <trkpt lat="47.64518" lon="6.2143">
        <ele>347.33</ele>
        <time>2018-09-07T14:36:22Z</time>
      </trkpt>
      <trkpt lat="47.64513" lon="6.21435">
        <ele>347.94</ele>
        <time>2018-09-07T14:36:27Z</time>
      </trkpt>
      <trkpt lat="47.64509" lon="6.21439">
        <ele>348.54</ele>
        <time>2018-09-07T14:36:32Z</time>
      </trkpt>
      <trkpt lat="47.64504" lon="6.21441">
        <ele>349.12</ele>
        <time>2018-09-07T14:36:37Z</time>
      </trkpt>
      <trkpt lat="47.64499" lon="6.21443">
        <ele>349.68</ele>
        <time>2018-09-07T14:36:42Z</time>
      </trkpt>
      <trkpt lat="47.64493" lon="6.21445">
        <ele>350.22</ele>
        <time>2018-09-07T14:36:47Z</time>
      </trkpt>
      <trkpt lat="47.64488" lon="6.21447">
        <ele>350.72</ele>
        <time>2018-09-07T14:36:52Z</time>
      </trkpt>
      <trkpt lat="47.64483" lon="6.21451">
        <ele>351.21</ele>
        <time>2018-09-07T14:36:57Z</time>
      </trkpt>
      <trkpt lat="47.6448" lon="6.21455">
        <ele>351.58</ele>
        <time>2018-09-07T14:37:01Z</time>
      </trkpt>
      <trkpt lat="47.64476" lon="6.21461">
        <ele>351.95</ele>
        <time>2018-09-07T14:37:05Z</time>
      </trkpt>
      <trkpt lat="47.64474" lon="6.21468">
        <ele>352.31</ele>
        <time>2018-09-07T14:37:09Z</time>
      </trkpt>
      <trkpt lat="47.64472" lon="6.21476">
        <ele>352.66</ele>
        <time>2018-09-07T14:37:13Z</time>
      </trkpt>
      <trkpt lat="47.64468" lon="6.21482">
        <ele>352.99</ele>
        <time>2018-09-07T14:37:17Z</time>
      </trkpt>
      <trkpt lat="47.64464" lon="6.21488">
        <ele>353.32</ele>
        <time>2018-09-07T14:37:21Z</time>
      </trkpt>
      <trkpt lat="47.6446" lon="6.21493">
        <ele>353.56</ele>
        <time>2018-09-07T14:37:24Z</time>
      </trkpt>
      <trkpt lat="47.64456" lon="6.21498">
        <ele>353.79</ele>
        <time>2018-09-07T14:37:27Z</time>
      </trkpt>
      <trkpt lat="47.64452" lon="6.21504">
        <ele>354.1</ele>
        <time>2018-09-07T14:37:31Z</time>
      </trkpt>
      <trkpt lat="47.64448" lon="6.21511">
        <ele>354.4</ele>
        <time>2018-09-07T14:37:35Z</time>
      </trkpt>
      <trkpt lat="47.64444" lon="6.21516">
        <ele>354.63</ele>
        <time>2018-09-07T14:37:38Z</time>
      </trkpt>
      <trkpt lat="47.6444" lon="6.21521">
        <ele>354.85</ele>
        <time>2018-09-07T14:37:41Z</time>
      </trkpt>
      <trkpt lat="47.64436" lon="6.21526">
        <ele>355.15</ele>
        <time>2018-09-07T14:37:45Z</time>
      </trkpt>
      <trkpt lat="47.64432" lon="6.21529">
        <ele>355.36</ele>
        <time>2018-09-07T14:37:48Z</time>
      </trkpt>
      <trkpt lat="47.64427" lon="6.21533">
        <ele>355.65</ele>
        <time>2018-09-07T14:37:52Z</time>
      </trkpt>
      <trkpt lat="47.64423" lon="6.21537">
        <ele>355.86</ele>
        <time>2018-09-07T14:37:55Z</time>
      </trkpt>
      <trkpt lat="47.64419" lon="6.21542">
        <ele>356.13</ele>
        <time>2018-09-07T14:37:59Z</time>
      </trkpt>
      <trkpt lat="47.64415" lon="6.21548">
        <ele>356.41</ele>
        <time>2018-09-07T14:38:03Z</time>
      </trkpt>
      <trkpt lat="47.6441" lon="6.21552">
        <ele>356.76</ele>
        <time>2018-09-07T14:38:08Z</time>
      </trkpt>
      <trkpt lat="47.64405" lon="6.21554">
        <ele>357.09</ele>
        <time>2018-09-07T14:38:13Z</time>
      </trkpt>
      <trkpt lat="47.64401" lon="6.21556">
        <ele>357.36</ele>
        <time>2018-09-07T14:38:17Z</time>
      </trkpt>
      <trkpt lat="47.64395" lon="6.21553">
        <ele>357.69</ele>
        <time>2018-09-07T14:38:22Z</time>
      </trkpt>
      <trkpt lat="47.64389" lon="6.21552">
        <ele>357.89</ele>
        <time>2018-09-07T14:38:25Z</time>
      </trkpt>
      <trkpt lat="47.64383" lon="6.21552">
        <ele>358.1</ele>
        <time>2018-09-07T14:38:28Z</time>
      </trkpt>
      <trkpt lat="47.64378" lon="6.21552">
        <ele>358.3</ele>
        <time>2018-09-07T14:38:31Z</time>
      </trkpt>
      <trkpt lat="47.64372" lon="6.21551">
        <ele>358.49</ele>
        <time>2018-09-07T14:38:34Z</time>
      </trkpt>
      <trkpt lat="47.64366" lon="6.2155">
        <ele>358.76</ele>
        <time>2018-09-07T14:38:38Z</time>
      </trkpt>
      <trkpt lat="47.64361" lon="6.21551">
        <ele>359.02</ele>
        <time>2018-09-07T14:38:42Z</time>
      </trkpt>
      <trkpt lat="47.64356" lon="6.21552">
        <ele>359.27</ele>
        <time>2018-09-07T14:38:46Z</time>
      </trkpt>
      <trkpt lat="47.64351" lon="6.21552">
        <ele>359.52</ele>
        <time>2018-09-07T14:38:50Z</time>
      </trkpt>
      <trkpt lat="47.64346" lon="6.21552">
        <ele>359.77</ele>
        <time>2018-09-07T14:38:54Z</time>
      </trkpt>
      <trkpt lat="47.64342" lon="6.21551">
        <ele>360.03</ele>
        <time>2018-09-07T14:38:58Z</time>
      </trkpt>
      <trkpt lat="47.64337" lon="6.21551">
        <ele>360.29</ele>
        <time>2018-09-07T14:39:02Z</time>
      </trkpt>
      <trkpt lat="47.64332" lon="6.21552">
        <ele>360.61</ele>
        <time>2018-09-07T14:39:07Z</time>
      </trkpt>
      <trkpt lat="47.64326" lon="6.21553">
        <ele>360.93</ele>
        <time>2018-09-07T14:39:12Z</time>
      </trkpt>
      <trkpt lat="47.64322" lon="6.21553">
        <ele>361.19</ele>
        <time>2018-09-07T14:39:16Z</time>
      </trkpt>
      <trkpt lat="47.64317" lon="6.21553">
        <ele>361.44</ele>
        <time>2018-09-07T14:39:20Z</time>
      </trkpt>
      <trkpt lat="47.64312" lon="6.21552">
        <ele>361.7</ele>
        <time>2018-09-07T14:39:24Z</time>
      </trkpt>
      <trkpt lat="47.64307" lon="6.21552">
        <ele>361.97</ele>
        <time>2018-09-07T14:39:28Z</time>
      </trkpt>
      <trkpt lat="47.64302" lon="6.21553">
        <ele>362.23</ele>
        <time>2018-09-07T14:39:32Z</time>
      </trkpt>
      <trkpt lat="47.64296" lon="6.21555">
        <ele>362.56</ele>
        <time>2018-09-07T14:39:37Z</time>
      </trkpt>
      <trkpt lat="47.64292" lon="6.21556">
        <ele>362.81</ele>
        <time>2018-09-07T14:39:41Z</time>
      </trkpt>
      <trkpt lat="47.64286" lon="6.21556">
        <ele>363.07</ele>
        <time>2018-09-07T14:39:45Z</time>
      </trkpt>
      <trkpt lat="47.64281" lon="6.21556">
        <ele>363.25</ele>
        <time>2018-09-07T14:39:48Z</time>
      </trkpt>
      <trkpt lat="47.64275" lon="6.21557">
        <ele>363.44</ele>
        <time>2018-09-07T14:39:51Z</time>
      </trkpt>
      <trkpt lat="47.6427" lon="6.21557">
        <ele>363.62</ele>
        <time>2018-09-07T14:39:54Z</time>
      </trkpt>
      <trkpt lat="47.64265" lon="6.21558">
        <ele>363.79</ele>
        <time>2018-09-07T14:39:57Z</time>
      </trkpt>
      <trkpt lat="47.64258" lon="6.21559">
        <ele>363.97</ele>
        <time>2018-09-07T14:40:00Z</time>
      </trkpt>
      <trkpt lat="47.64253" lon="6.21559">
        <ele>364.15</ele>
        <time>2018-09-07T14:40:03Z</time>
      </trkpt>
      <trkpt lat="47.64248" lon="6.2156">
        <ele>364.32</ele>
        <time>2018-09-07T14:40:06Z</time>
      </trkpt>
      <trkpt lat="47.64242" lon="6.21561">
        <ele>364.48</ele>
        <time>2018-09-07T14:40:09Z</time>
      </trkpt>
      <trkpt lat="47.64238" lon="6.21562">
        <ele>364.63</ele>
        <time>2018-09-07T14:40:12Z</time>
      </trkpt>
      <trkpt lat="47.64233" lon="6.21562">
        <ele>364.78</ele>
        <time>2018-09-07T14:40:15Z</time>
      </trkpt>
      <trkpt lat="47.64229" lon="6.21559">
        <ele>364.92</ele>
        <time>2018-09-07T14:40:18Z</time>
      </trkpt>
      <trkpt lat="47.64226" lon="6.21552">
        <ele>365.1</ele>
        <time>2018-09-07T14:40:22Z</time>
      </trkpt>
      <trkpt lat="47.64224" lon="6.21544">
        <ele>365.27</ele>
        <time>2018-09-07T14:40:26Z</time>
      </trkpt>
      <trkpt lat="47.64223" lon="6.21537">
        <ele>365.43</ele>
        <time>2018-09-07T14:40:30Z</time>
      </trkpt>
      <trkpt lat="47.64222" lon="6.2153">
        <ele>365.54</ele>
        <time>2018-09-07T14:40:33Z</time>
      </trkpt>
      <trkpt lat="47.64221" lon="6.21522">
        <ele>365.64</ele>
        <time>2018-09-07T14:40:36Z</time>
      </trkpt>
      <trkpt lat="47.6422" lon="6.21514">
        <ele>365.75</ele>
        <time>2018-09-07T14:40:39Z</time>
      </trkpt>
      <trkpt lat="47.64219" lon="6.21505">
        <ele>365.84</ele>
        <time>2018-09-07T14:40:42Z</time>
      </trkpt>
      <trkpt lat="47.64218" lon="6.21496">
        <ele>365.93</ele>
        <time>2018-09-07T14:40:45Z</time>
      </trkpt>
      <trkpt lat="47.64217" lon="6.21489">
        <ele>366.02</ele>
        <time>2018-09-07T14:40:48Z</time>
      </trkpt>
      <trkpt lat="47.64217" lon="6.21481">
        <ele>366.1</ele>
        <time>2018-09-07T14:40:51Z</time>
      </trkpt>
      <trkpt lat="47.64217" lon="6.21472">
        <ele>366.18</ele>
        <time>2018-09-07T14:40:54Z</time>
      </trkpt>
      <trkpt lat="47.64216" lon="6.21463">
        <ele>366.25</ele>
        <time>2018-09-07T14:40:57Z</time>
      </trkpt>
      <trkpt lat="47.64216" lon="6.21456">
        <ele>366.3</ele>
        <time>2018-09-07T14:40:59Z</time>
      </trkpt>
      <trkpt lat="47.64215" lon="6.21449">
        <ele>366.34</ele>
        <time>2018-09-07T14:41:01Z</time>
      </trkpt>
      <trkpt lat="47.64215" lon="6.21442">
        <ele>366.39</ele>
        <time>2018-09-07T14:41:03Z</time>
      </trkpt>
      <trkpt lat="47.64215" lon="6.21433">
        <ele>366.46</ele>
        <time>2018-09-07T14:41:06Z</time>
      </trkpt>
      <trkpt lat="47.64215" lon="6.21425">
        <ele>366.51</ele>
        <time>2018-09-07T14:41:08Z</time>
      </trkpt>
      <trkpt lat="47.64215" lon="6.21417">
        <ele>366.55</ele>
        <time>2018-09-07T14:41:10Z</time>
      </trkpt>
      <trkpt lat="47.64214" lon="6.21409">
        <ele>366.59</ele>
        <time>2018-09-07T14:41:12Z</time>
      </trkpt>
      <trkpt lat="47.64214" lon="6.214">
        <ele>366.63</ele>
        <time>2018-09-07T14:41:14Z</time>
      </trkpt>
      <trkpt lat="47.64211" lon="6.21392">
        <ele>366.67</ele>
        <time>2018-09-07T14:41:16Z</time>
      </trkpt>
      <trkpt lat="47.64208" lon="6.21386">
        <ele>366.71</ele>
        <time>2018-09-07T14:41:18Z</time>
      </trkpt>
      <trkpt lat="47.64203" lon="6.21383">
        <ele>366.77</ele>
        <time>2018-09-07T14:41:21Z</time>
      </trkpt>
      <trkpt lat="47.64199" lon="6.21383">
        <ele>366.82</ele>
        <time>2018-09-07T14:41:24Z</time>
      </trkpt>
      <trkpt lat="47.64193" lon="6.21384">
        <ele>366.87</ele>
        <time>2018-09-07T14:41:27Z</time>
      </trkpt>
      <trkpt lat="47.64188" lon="6.21385">
        <ele>366.92</ele>
        <time>2018-09-07T14:41:30Z</time>
      </trkpt>
      <trkpt lat="47.6418" lon="6.21387">
        <ele>366.97</ele>
        <time>2018-09-07T14:41:33Z</time>
      </trkpt>
      <trkpt lat="47.64175" lon="6.21389">
        <ele>367.01</ele>
        <time>2018-09-07T14:41:35Z</time>
      </trkpt>
      <trkpt lat="47.6417" lon="6.21391">
        <ele>367.05</ele>
        <time>2018-09-07T14:41:37Z</time>
      </trkpt>
      <trkpt lat="47.64164" lon="6.21391">
        <ele>367.12</ele>
        <time>2018-09-07T14:41:40Z</time>
      </trkpt>
      <trkpt lat="47.64158" lon="6.21393">
        <ele>367.19</ele>
        <time>2018-09-07T14:41:43Z</time>
      </trkpt>
      <trkpt lat="47.64154" lon="6.21395">
        <ele>367.26</ele>
        <time>2018-09-07T14:41:51Z</time>
      </trkpt>
      <trkpt lat="47.64149" lon="6.21397">
        <ele>367.47</ele>
        <time>2018-09-07T14:42:52Z</time>
      </trkpt>
      <trkpt lat="47.64144" lon="6.21398">
        <ele>367.55</ele>
        <time>2018-09-07T14:42:56Z</time>
      </trkpt>
      <trkpt lat="47.6414" lon="6.21401">
        <ele>367.61</ele>
        <time>2018-09-07T14:42:59Z</time>
      </trkpt>
      <trkpt lat="47.64135" lon="6.21405">
        <ele>367.67</ele>
        <time>2018-09-07T14:43:02Z</time>
      </trkpt>
      <trkpt lat="47.6413" lon="6.21409">
        <ele>367.73</ele>
        <time>2018-09-07T14:43:05Z</time>
      </trkpt>
      <trkpt lat="47.64126" lon="6.21412">
        <ele>367.78</ele>
        <time>2018-09-07T14:43:08Z</time>
      </trkpt>
      <trkpt lat="47.64121" lon="6.21415">
        <ele>367.83</ele>
        <time>2018-09-07T14:43:11Z</time>
      </trkpt>
      <trkpt lat="47.64116" lon="6.21418">
        <ele>367.9</ele>
        <time>2018-09-07T14:43:15Z</time>
      </trkpt>
      <trkpt lat="47.64111" lon="6.21421">
        <ele>367.96</ele>
        <time>2018-09-07T14:43:19Z</time>
      </trkpt>
      <trkpt lat="47.64107" lon="6.21423">
        <ele>368.01</ele>
        <time>2018-09-07T14:43:22Z</time>
      </trkpt>
      <trkpt lat="47.64102" lon="6.21426">
        <ele>368.05</ele>
        <time>2018-09-07T14:43:25Z</time>
      </trkpt>
      <trkpt lat="47.64097" lon="6.21428">
        <ele>368.11</ele>
        <time>2018-09-07T14:43:29Z</time>
      </trkpt>
      <trkpt lat="47.64093" lon="6.21431">
        <ele>368.16</ele>
        <time>2018-09-07T14:43:32Z</time>
      </trkpt>
      <trkpt lat="47.64088" lon="6.21434">
        <ele>368.22</ele>
        <time>2018-09-07T14:43:36Z</time>
      </trkpt>
      <trkpt lat="47.64084" lon="6.21437">
        <ele>368.26</ele>
        <time>2018-09-07T14:43:39Z</time>
      </trkpt>
      <trkpt lat="47.64079" lon="6.2144">
        <ele>368.31</ele>
        <time>2018-09-07T14:43:43Z</time>
      </trkpt>
      <trkpt lat="47.64074" lon="6.21444">
        <ele>368.36</ele>
        <time>2018-09-07T14:43:46Z</time>
      </trkpt>
      <trkpt lat="47.64068" lon="6.21448">
        <ele>368.41</ele>
        <time>2018-09-07T14:43:50Z</time>
      </trkpt>
      <trkpt lat="47.64062" lon="6.21452">
        <ele>368.47</ele>
        <time>2018-09-07T14:43:54Z</time>
      </trkpt>
      <trkpt lat="47.64058" lon="6.21455">
        <ele>368.51</ele>
        <time>2018-09-07T14:43:57Z</time>
      </trkpt>
      <trkpt lat="47.64054" lon="6.21457">
        <ele>368.54</ele>
        <time>2018-09-07T14:43:59Z</time>
      </trkpt>
      <trkpt lat="47.64049" lon="6.2146">
        <ele>368.56</ele>
        <time>2018-09-07T14:44:01Z</time>
      </trkpt>
      <trkpt lat="47.64044" lon="6.21463">
        <ele>368.6</ele>
        <time>2018-09-07T14:44:04Z</time>
      </trkpt>
      <trkpt lat="47.64039" lon="6.21465">
        <ele>368.63</ele>
        <time>2018-09-07T14:44:06Z</time>
      </trkpt>
      <trkpt lat="47.64035" lon="6.21462">
        <ele>368.67</ele>
        <time>2018-09-07T14:44:09Z</time>
      </trkpt>
      <trkpt lat="47.64034" lon="6.21455">
        <ele>368.75</ele>
        <time>2018-09-07T14:44:14Z</time>
      </trkpt>
      <trkpt lat="47.64034" lon="6.21447">
        <ele>368.81</ele>
        <time>2018-09-07T14:44:18Z</time>
      </trkpt>
      <trkpt lat="47.64033" lon="6.2144">
        <ele>368.88</ele>
        <time>2018-09-07T14:44:23Z</time>
      </trkpt>
      <trkpt lat="47.64031" lon="6.21432">
        <ele>368.97</ele>
        <time>2018-09-07T14:44:29Z</time>
      </trkpt>
      <trkpt lat="47.64031" lon="6.21425">
        <ele>369.06</ele>
        <time>2018-09-07T14:44:35Z</time>
      </trkpt>
      <trkpt lat="47.64031" lon="6.21418">
        <ele>369.13</ele>
        <time>2018-09-07T14:44:40Z</time>
      </trkpt>
      <trkpt lat="47.64029" lon="6.21411">
        <ele>369.22</ele>
        <time>2018-09-07T14:44:46Z</time>
      </trkpt>
      <trkpt lat="47.64029" lon="6.21404">
        <ele>369.31</ele>
        <time>2018-09-07T14:44:52Z</time>
      </trkpt>
      <trkpt lat="47.64028" lon="6.21397">
        <ele>369.41</ele>
        <time>2018-09-07T14:44:58Z</time>
      </trkpt>
      <trkpt lat="47.64027" lon="6.2139">
        <ele>369.49</ele>
        <time>2018-09-07T14:45:03Z</time>
      </trkpt>
      <trkpt lat="47.64026" lon="6.21382">
        <ele>369.58</ele>
        <time>2018-09-07T14:45:08Z</time>
      </trkpt>
      <trkpt lat="47.64026" lon="6.21374">
        <ele>369.67</ele>
        <time>2018-09-07T14:45:13Z</time>
      </trkpt>
      <trkpt lat="47.64025" lon="6.21366">
        <ele>369.74</ele>
        <time>2018-09-07T14:45:17Z</time>
      </trkpt>
      <trkpt lat="47.64024" lon="6.2136">
        <ele>369.82</ele>
        <time>2018-09-07T14:45:21Z</time>
      </trkpt>
      <trkpt lat="47.64025" lon="6.21352">
        <ele>369.9</ele>
        <time>2018-09-07T14:45:25Z</time>
      </trkpt>
      <trkpt lat="47.64024" lon="6.21344">
        <ele>369.97</ele>
        <time>2018-09-07T14:45:28Z</time>
      </trkpt>
      <trkpt lat="47.64023" lon="6.21335">
        <ele>370.05</ele>
        <time>2018-09-07T14:45:32Z</time>
      </trkpt>
      <trkpt lat="47.64023" lon="6.21328">
        <ele>370.12</ele>
        <time>2018-09-07T14:45:35Z</time>
      </trkpt>
      <trkpt lat="47.64021" lon="6.21321">
        <ele>370.22</ele>
        <time>2018-09-07T14:45:39Z</time>
      </trkpt>
      <trkpt lat="47.64021" lon="6.21314">
        <ele>370.32</ele>
        <time>2018-09-07T14:45:43Z</time>
      </trkpt>
      <trkpt lat="47.64021" lon="6.21306">
        <ele>370.4</ele>
        <time>2018-09-07T14:45:46Z</time>
      </trkpt>
      <trkpt lat="47.64021" lon="6.21297">
        <ele>370.5</ele>
        <time>2018-09-07T14:45:50Z</time>
      </trkpt>
      <trkpt lat="47.64021" lon="6.2129">
        <ele>370.58</ele>
        <time>2018-09-07T14:45:53Z</time>
      </trkpt>
      <trkpt lat="47.6402" lon="6.21282">
        <ele>370.66</ele>
        <time>2018-09-07T14:45:56Z</time>
      </trkpt>
      <trkpt lat="47.6402" lon="6.21274">
        <ele>370.74</ele>
        <time>2018-09-07T14:45:59Z</time>
      </trkpt>
      <trkpt lat="47.6402" lon="6.21266">
        <ele>370.82</ele>
        <time>2018-09-07T14:46:02Z</time>
      </trkpt>
      <trkpt lat="47.64019" lon="6.21259">
        <ele>370.91</ele>
        <time>2018-09-07T14:46:05Z</time>
      </trkpt>
      <trkpt lat="47.64019" lon="6.2125">
        <ele>370.99</ele>
        <time>2018-09-07T14:46:08Z</time>
      </trkpt>
      <trkpt lat="47.64019" lon="6.21242">
        <ele>371.08</ele>
        <time>2018-09-07T14:46:11Z</time>
      </trkpt>
      <trkpt lat="47.64019" lon="6.21235">
        <ele>371.17</ele>
        <time>2018-09-07T14:46:14Z</time>
      </trkpt>
      <trkpt lat="47.64019" lon="6.21224">
        <ele>371.25</ele>
        <time>2018-09-07T14:46:17Z</time>
      </trkpt>
      <trkpt lat="47.6402" lon="6.21216">
        <ele>371.34</ele>
        <time>2018-09-07T14:46:20Z</time>
      </trkpt>
      <trkpt lat="47.6402" lon="6.21207">
        <ele>371.43</ele>
        <time>2018-09-07T14:46:23Z</time>
      </trkpt>
      <trkpt lat="47.6402" lon="6.212">
        <ele>371.49</ele>
        <time>2018-09-07T14:46:25Z</time>
      </trkpt>
      <trkpt lat="47.6402" lon="6.21191">
        <ele>371.57</ele>
        <time>2018-09-07T14:46:28Z</time>
      </trkpt>
      <trkpt lat="47.6402" lon="6.21181">
        <ele>371.67</ele>
        <time>2018-09-07T14:46:31Z</time>
      </trkpt>
      <trkpt lat="47.6402" lon="6.21172">
        <ele>371.76</ele>
        <time>2018-09-07T14:46:34Z</time>
      </trkpt>
      <trkpt lat="47.6402" lon="6.21163">
        <ele>371.85</ele>
        <time>2018-09-07T14:46:37Z</time>
      </trkpt>
      <trkpt lat="47.6402" lon="6.21154">
        <ele>371.95</ele>
        <time>2018-09-07T14:46:40Z</time>
      </trkpt>
      <trkpt lat="47.64021" lon="6.21146">
        <ele>372.01</ele>
        <time>2018-09-07T14:46:42Z</time>
      </trkpt>
      <trkpt lat="47.6402" lon="6.21138">
        <ele>372.08</ele>
        <time>2018-09-07T14:46:44Z</time>
      </trkpt>
      <trkpt lat="47.6402" lon="6.21132">
        <ele>372.15</ele>
        <time>2018-09-07T14:46:46Z</time>
      </trkpt>
      <trkpt lat="47.6402" lon="6.21124">
        <ele>372.21</ele>
        <time>2018-09-07T14:46:48Z</time>
      </trkpt>
      <trkpt lat="47.64021" lon="6.21114">
        <ele>372.31</ele>
        <time>2018-09-07T14:46:51Z</time>
      </trkpt>
      <trkpt lat="47.64021" lon="6.21106">
        <ele>372.38</ele>
        <time>2018-09-07T14:46:53Z</time>
      </trkpt>
      <trkpt lat="47.64021" lon="6.21097">
        <ele>372.44</ele>
        <time>2018-09-07T14:46:55Z</time>
      </trkpt>
      <trkpt lat="47.64021" lon="6.21088">
        <ele>372.51</ele>
        <time>2018-09-07T14:46:57Z</time>
      </trkpt>
      <trkpt lat="47.64022" lon="6.21079">
        <ele>372.57</ele>
        <time>2018-09-07T14:46:59Z</time>
      </trkpt>
      <trkpt lat="47.64022" lon="6.2107">
        <ele>372.63</ele>
        <time>2018-09-07T14:47:01Z</time>
      </trkpt>
      <trkpt lat="47.64022" lon="6.21061">
        <ele>372.7</ele>
        <time>2018-09-07T14:47:03Z</time>
      </trkpt>
      <trkpt lat="47.64022" lon="6.21051">
        <ele>372.76</ele>
        <time>2018-09-07T14:47:05Z</time>
      </trkpt>
      <trkpt lat="47.64022" lon="6.21041">
        <ele>372.82</ele>
        <time>2018-09-07T14:47:07Z</time>
      </trkpt>
      <trkpt lat="47.64023" lon="6.21032">
        <ele>372.88</ele>
        <time>2018-09-07T14:47:09Z</time>
      </trkpt>
      <trkpt lat="47.64023" lon="6.21022">
        <ele>372.94</ele>
        <time>2018-09-07T14:47:11Z</time>
      </trkpt>
      <trkpt lat="47.64023" lon="6.21011">
        <ele>373.01</ele>
        <time>2018-09-07T14:47:13Z</time>
      </trkpt>
      <trkpt lat="47.64023" lon="6.21001">
        <ele>373.07</ele>
        <time>2018-09-07T14:47:15Z</time>
      </trkpt>
      <trkpt lat="47.64022" lon="6.20991">
        <ele>373.13</ele>
        <time>2018-09-07T14:47:17Z</time>
      </trkpt>
      <trkpt lat="47.64021" lon="6.20982">
        <ele>373.19</ele>
        <time>2018-09-07T14:47:19Z</time>
      </trkpt>
      <trkpt lat="47.64021" lon="6.20971">
        <ele>373.43</ele>
        <time>2018-09-07T14:47:21Z</time>
      </trkpt>
      <trkpt lat="47.64019" lon="6.20957">
        <ele>373.67</ele>
        <time>2018-09-07T14:47:22Z</time>
      </trkpt>
      <trkpt lat="47.64018" lon="6.20946">
        <ele>374.06</ele>
        <time>2018-09-07T14:47:24Z</time>
      </trkpt>
      <trkpt lat="47.64017" lon="6.20934">
        <ele>374.34</ele>
        <time>2018-09-07T14:47:26Z</time>
      </trkpt>
      <trkpt lat="47.64016" lon="6.20924">
        <ele>374.4</ele>
        <time>2018-09-07T14:47:28Z</time>
      </trkpt>
      <trkpt lat="47.64015" lon="6.20914">
        <ele>374.44</ele>
        <time>2018-09-07T14:47:31Z</time>
      </trkpt>
      <trkpt lat="47.64015" lon="6.20905">
        <ele>374.46</ele>
        <time>2018-09-07T14:47:33Z</time>
      </trkpt>
      <trkpt lat="47.64014" lon="6.20897">
        <ele>374.49</ele>
        <time>2018-09-07T14:47:35Z</time>
      </trkpt>
      <trkpt lat="47.64013" lon="6.20887">
        <ele>374.52</ele>
        <time>2018-09-07T14:47:37Z</time>
      </trkpt>
      <trkpt lat="47.6401" lon="6.20874">
        <ele>374.54</ele>
        <time>2018-09-07T14:47:38Z</time>
      </trkpt>
      <trkpt lat="47.64008" lon="6.20863">
        <ele>374.78</ele>
        <time>2018-09-07T14:47:40Z</time>
      </trkpt>
      <trkpt lat="47.64006" lon="6.20852">
        <ele>375</ele>
        <time>2018-09-07T14:47:42Z</time>
      </trkpt>
      <trkpt lat="47.64004" lon="6.20842">
        <ele>375.05</ele>
        <time>2018-09-07T14:47:44Z</time>
      </trkpt>
      <trkpt lat="47.64002" lon="6.20831">
        <ele>375.07</ele>
        <time>2018-09-07T14:47:46Z</time>
      </trkpt>
      <trkpt lat="47.64" lon="6.20821">
        <ele>375.11</ele>
        <time>2018-09-07T14:47:49Z</time>
      </trkpt>
      <trkpt lat="47.63999" lon="6.20812">
        <ele>375.13</ele>
        <time>2018-09-07T14:47:51Z</time>
      </trkpt>
      <trkpt lat="47.63997" lon="6.20803">
        <ele>375.16</ele>
        <time>2018-09-07T14:47:53Z</time>
      </trkpt>
      <trkpt lat="47.63996" lon="6.20793">
        <ele>375.19</ele>
        <time>2018-09-07T14:47:55Z</time>
      </trkpt>
      <trkpt lat="47.63994" lon="6.20784">
        <ele>375.22</ele>
        <time>2018-09-07T14:47:57Z</time>
      </trkpt>
      <trkpt lat="47.63992" lon="6.20775">
        <ele>375.25</ele>
        <time>2018-09-07T14:47:59Z</time>
      </trkpt>
      <trkpt lat="47.63988" lon="6.20757">
        <ele>375.29</ele>
        <time>2018-09-07T14:48:01Z</time>
      </trkpt>
      <trkpt lat="47.63987" lon="6.20747">
        <ele>375.57</ele>
        <time>2018-09-07T14:48:03Z</time>
      </trkpt>
      <trkpt lat="47.63985" lon="6.20735">
        <ele>375.82</ele>
        <time>2018-09-07T14:48:05Z</time>
      </trkpt>
      <trkpt lat="47.63983" lon="6.20722">
        <ele>375.99</ele>
        <time>2018-09-07T14:48:07Z</time>
      </trkpt>
      <trkpt lat="47.63982" lon="6.20716">
        <ele>376.06</ele>
        <time>2018-09-07T14:48:08Z</time>
      </trkpt>
      <trkpt lat="47.6398" lon="6.20703">
        <ele>376.17</ele>
        <time>2018-09-07T14:48:10Z</time>
      </trkpt>
      <trkpt lat="47.63977" lon="6.20691">
        <ele>376.26</ele>
        <time>2018-09-07T14:48:12Z</time>
      </trkpt>
      <trkpt lat="47.63974" lon="6.20678">
        <ele>376.34</ele>
        <time>2018-09-07T14:48:14Z</time>
      </trkpt>
      <trkpt lat="47.63972" lon="6.20666">
        <ele>376.39</ele>
        <time>2018-09-07T14:48:16Z</time>
      </trkpt>
      <trkpt lat="47.63971" lon="6.20659">
        <ele>376.41</ele>
        <time>2018-09-07T14:48:17Z</time>
      </trkpt>
      <trkpt lat="47.6397" lon="6.20652">
        <ele>376.43</ele>
        <time>2018-09-07T14:48:18Z</time>
      </trkpt>
      <trkpt lat="47.63969" lon="6.20645">
        <ele>376.45</ele>
        <time>2018-09-07T14:48:19Z</time>
      </trkpt>
      <trkpt lat="47.63968" lon="6.20638">
        <ele>376.46</ele>
        <time>2018-09-07T14:48:20Z</time>
      </trkpt>
      <trkpt lat="47.63967" lon="6.2063">
        <ele>376.48</ele>
        <time>2018-09-07T14:48:21Z</time>
      </trkpt>
      <trkpt lat="47.63966" lon="6.20623">
        <ele>376.48</ele>
        <time>2018-09-07T14:48:22Z</time>
      </trkpt>
      <trkpt lat="47.63964" lon="6.20615">
        <ele>376.49</ele>
        <time>2018-09-07T14:48:23Z</time>
      </trkpt>
      <trkpt lat="47.63963" lon="6.20607">
        <ele>376.48</ele>
        <time>2018-09-07T14:48:24Z</time>
      </trkpt>
      <trkpt lat="47.63961" lon="6.20599">
        <ele>376.48</ele>
        <time>2018-09-07T14:48:25Z</time>
      </trkpt>
      <trkpt lat="47.6396" lon="6.20591">
        <ele>376.47</ele>
        <time>2018-09-07T14:48:26Z</time>
      </trkpt>
      <trkpt lat="47.63958" lon="6.20582">
        <ele>376.47</ele>
        <time>2018-09-07T14:48:27Z</time>
      </trkpt>
      <trkpt lat="47.63956" lon="6.20574">
        <ele>376.46</ele>
        <time>2018-09-07T14:48:28Z</time>
      </trkpt>
      <trkpt lat="47.63955" lon="6.20565">
        <ele>376.46</ele>
        <time>2018-09-07T14:48:29Z</time>
      </trkpt>
      <trkpt lat="47.63953" lon="6.20557">
        <ele>376.45</ele>
        <time>2018-09-07T14:48:30Z</time>
      </trkpt>
      <trkpt lat="47.63951" lon="6.20548">
        <ele>376.44</ele>
        <time>2018-09-07T14:48:31Z</time>
      </trkpt>
      <trkpt lat="47.6395" lon="6.20539">
        <ele>376.43</ele>
        <time>2018-09-07T14:48:32Z</time>
      </trkpt>
      <trkpt lat="47.63948" lon="6.2053">
        <ele>376.42</ele>
        <time>2018-09-07T14:48:33Z</time>
      </trkpt>
      <trkpt lat="47.63946" lon="6.2052">
        <ele>376.42</ele>
        <time>2018-09-07T14:48:34Z</time>
      </trkpt>
      <trkpt lat="47.63945" lon="6.20511">
        <ele>376.41</ele>
        <time>2018-09-07T14:48:35Z</time>
      </trkpt>
      <trkpt lat="47.63944" lon="6.20501">
        <ele>376.39</ele>
        <time>2018-09-07T14:48:36Z</time>
      </trkpt>
      <trkpt lat="47.63943" lon="6.2049">
        <ele>376.35</ele>
        <time>2018-09-07T14:48:37Z</time>
      </trkpt>
      <trkpt lat="47.63942" lon="6.2048">
        <ele>376.32</ele>
        <time>2018-09-07T14:48:38Z</time>
      </trkpt>
      <trkpt lat="47.63941" lon="6.2047">
        <ele>376.29</ele>
        <time>2018-09-07T14:48:39Z</time>
      </trkpt>
      <trkpt lat="47.6394" lon="6.20459">
        <ele>376.25</ele>
        <time>2018-09-07T14:48:40Z</time>
      </trkpt>
      <trkpt lat="47.63939" lon="6.20449">
        <ele>376.2</ele>
        <time>2018-09-07T14:48:41Z</time>
      </trkpt>
      <trkpt lat="47.63939" lon="6.20438">
        <ele>376.15</ele>
        <time>2018-09-07T14:48:42Z</time>
      </trkpt>
      <trkpt lat="47.63938" lon="6.20426">
        <ele>376.09</ele>
        <time>2018-09-07T14:48:43Z</time>
      </trkpt>
      <trkpt lat="47.63938" lon="6.20415">
        <ele>376.02</ele>
        <time>2018-09-07T14:48:44Z</time>
      </trkpt>
      <trkpt lat="47.63938" lon="6.20404">
        <ele>375.92</ele>
        <time>2018-09-07T14:48:45Z</time>
      </trkpt>
      <trkpt lat="47.63937" lon="6.20392">
        <ele>375.82</ele>
        <time>2018-09-07T14:48:46Z</time>
      </trkpt>
      <trkpt lat="47.63937" lon="6.20381">
        <ele>375.7</ele>
        <time>2018-09-07T14:48:47Z</time>
      </trkpt>
      <trkpt lat="47.63936" lon="6.20369">
        <ele>375.59</ele>
        <time>2018-09-07T14:48:48Z</time>
      </trkpt>
      <trkpt lat="47.63936" lon="6.20357">
        <ele>375.43</ele>
        <time>2018-09-07T14:48:49Z</time>
      </trkpt>
      <trkpt lat="47.63936" lon="6.20345">
        <ele>375.29</ele>
        <time>2018-09-07T14:48:50Z</time>
      </trkpt>
      <trkpt lat="47.63936" lon="6.20332">
        <ele>375.16</ele>
        <time>2018-09-07T14:48:51Z</time>
      </trkpt>
      <trkpt lat="47.63935" lon="6.2032">
        <ele>375.03</ele>
        <time>2018-09-07T14:48:52Z</time>
      </trkpt>
      <trkpt lat="47.63935" lon="6.20308">
        <ele>374.91</ele>
        <time>2018-09-07T14:48:53Z</time>
      </trkpt>
      <trkpt lat="47.63935" lon="6.20295">
        <ele>374.77</ele>
        <time>2018-09-07T14:48:54Z</time>
      </trkpt>
      <trkpt lat="47.63935" lon="6.20283">
        <ele>374.63</ele>
        <time>2018-09-07T14:48:55Z</time>
      </trkpt>
      <trkpt lat="47.63935" lon="6.20271">
        <ele>374.49</ele>
        <time>2018-09-07T14:48:56Z</time>
      </trkpt>
      <trkpt lat="47.63936" lon="6.20259">
        <ele>374.37</ele>
        <time>2018-09-07T14:48:57Z</time>
      </trkpt>
      <trkpt lat="47.63937" lon="6.20249">
        <ele>374.28</ele>
        <time>2018-09-07T14:48:58Z</time>
      </trkpt>
      <trkpt lat="47.63938" lon="6.2024">
        <ele>374.2</ele>
        <time>2018-09-07T14:48:59Z</time>
      </trkpt>
      <trkpt lat="47.63939" lon="6.20232">
        <ele>374.15</ele>
        <time>2018-09-07T14:49:00Z</time>
      </trkpt>
      <trkpt lat="47.63939" lon="6.20224">
        <ele>374.15</ele>
        <time>2018-09-07T14:49:01Z</time>
      </trkpt>
      <trkpt lat="47.63941" lon="6.20213">
        <ele>374.15</ele>
        <time>2018-09-07T14:49:03Z</time>
      </trkpt>
      <trkpt lat="47.63943" lon="6.20206">
        <ele>374.16</ele>
        <time>2018-09-07T14:49:06Z</time>
      </trkpt>
      <trkpt lat="47.6395" lon="6.20203">
        <ele>374.13</ele>
        <time>2018-09-07T14:49:09Z</time>
      </trkpt>
      <trkpt lat="47.63955" lon="6.20201">
        <ele>373.97</ele>
        <time>2018-09-07T14:49:11Z</time>
      </trkpt>
      <trkpt lat="47.63964" lon="6.20197">
        <ele>373.78</ele>
        <time>2018-09-07T14:49:12Z</time>
      </trkpt>
      <trkpt lat="47.63972" lon="6.20194">
        <ele>373.5</ele>
        <time>2018-09-07T14:49:14Z</time>
      </trkpt>
      <trkpt lat="47.63981" lon="6.20191">
        <ele>373.44</ele>
        <time>2018-09-07T14:49:16Z</time>
      </trkpt>
      <trkpt lat="47.63986" lon="6.20189">
        <ele>373.4</ele>
        <time>2018-09-07T14:49:17Z</time>
      </trkpt>
      <trkpt lat="47.6399" lon="6.20188">
        <ele>373.35</ele>
        <time>2018-09-07T14:49:18Z</time>
      </trkpt>
      <trkpt lat="47.63999" lon="6.20185">
        <ele>373.18</ele>
        <time>2018-09-07T14:49:20Z</time>
      </trkpt>
      <trkpt lat="47.64005" lon="6.20184">
        <ele>373.13</ele>
        <time>2018-09-07T14:49:22Z</time>
      </trkpt>
      <trkpt lat="47.6401" lon="6.20183">
        <ele>373.1</ele>
        <time>2018-09-07T14:49:24Z</time>
      </trkpt>
      <trkpt lat="47.64015" lon="6.20181">
        <ele>373.06</ele>
        <time>2018-09-07T14:49:26Z</time>
      </trkpt>
      <trkpt lat="47.64022" lon="6.20179">
        <ele>373.01</ele>
        <time>2018-09-07T14:49:28Z</time>
      </trkpt>
      <trkpt lat="47.64033" lon="6.20175">
        <ele>372.96</ele>
        <time>2018-09-07T14:49:30Z</time>
      </trkpt>
      <trkpt lat="47.64041" lon="6.20172">
        <ele>372.91</ele>
        <time>2018-09-07T14:49:32Z</time>
      </trkpt>
      <trkpt lat="47.64048" lon="6.20169">
        <ele>372.88</ele>
        <time>2018-09-07T14:49:34Z</time>
      </trkpt>
      <trkpt lat="47.64054" lon="6.20165">
        <ele>372.83</ele>
        <time>2018-09-07T14:49:37Z</time>
      </trkpt>
      <trkpt lat="47.64059" lon="6.20161">
        <ele>372.8</ele>
        <time>2018-09-07T14:49:39Z</time>
      </trkpt>
      <trkpt lat="47.64064" lon="6.20155">
        <ele>372.75</ele>
        <time>2018-09-07T14:49:41Z</time>
      </trkpt>
      <trkpt lat="47.64069" lon="6.20149">
        <ele>372.51</ele>
        <time>2018-09-07T14:49:43Z</time>
      </trkpt>
      <trkpt lat="47.64074" lon="6.20142">
        <ele>372.08</ele>
        <time>2018-09-07T14:49:45Z</time>
      </trkpt>
      <trkpt lat="47.64081" lon="6.20132">
        <ele>371.89</ele>
        <time>2018-09-07T14:49:46Z</time>
      </trkpt>
      <trkpt lat="47.64086" lon="6.20121">
        <ele>371.55</ele>
        <time>2018-09-07T14:49:48Z</time>
      </trkpt>
      <trkpt lat="47.64088" lon="6.20108">
        <ele>371.26</ele>
        <time>2018-09-07T14:49:50Z</time>
      </trkpt>
      <trkpt lat="47.64091" lon="6.20097">
        <ele>371.19</ele>
        <time>2018-09-07T14:49:52Z</time>
      </trkpt>
      <trkpt lat="47.64094" lon="6.20088">
        <ele>371.15</ele>
        <time>2018-09-07T14:49:54Z</time>
      </trkpt>
      <trkpt lat="47.64096" lon="6.20079">
        <ele>371.12</ele>
        <time>2018-09-07T14:49:56Z</time>
      </trkpt>
      <trkpt lat="47.64098" lon="6.20072">
        <ele>371.08</ele>
        <time>2018-09-07T14:49:58Z</time>
      </trkpt>
      <trkpt lat="47.64099" lon="6.20065">
        <ele>371.03</ele>
        <time>2018-09-07T14:50:00Z</time>
      </trkpt>
      <trkpt lat="47.64099" lon="6.20057">
        <ele>370.99</ele>
        <time>2018-09-07T14:50:02Z</time>
      </trkpt>
      <trkpt lat="47.64098" lon="6.2005">
        <ele>370.94</ele>
        <time>2018-09-07T14:50:04Z</time>
      </trkpt>
      <trkpt lat="47.64096" lon="6.20042">
        <ele>370.89</ele>
        <time>2018-09-07T14:50:06Z</time>
      </trkpt>
      <trkpt lat="47.64093" lon="6.20033">
        <ele>370.81</ele>
        <time>2018-09-07T14:50:09Z</time>
      </trkpt>
      <trkpt lat="47.64091" lon="6.20025">
        <ele>370.73</ele>
        <time>2018-09-07T14:50:12Z</time>
      </trkpt>
      <trkpt lat="47.6409" lon="6.20017">
        <ele>370.65</ele>
        <time>2018-09-07T14:50:15Z</time>
      </trkpt>
      <trkpt lat="47.6409" lon="6.2001">
        <ele>370.57</ele>
        <time>2018-09-07T14:50:18Z</time>
      </trkpt>
      <trkpt lat="47.64091" lon="6.20001">
        <ele>370.48</ele>
        <time>2018-09-07T14:50:21Z</time>
      </trkpt>
      <trkpt lat="47.64093" lon="6.19994">
        <ele>370.42</ele>
        <time>2018-09-07T14:50:23Z</time>
      </trkpt>
      <trkpt lat="47.64096" lon="6.19987">
        <ele>370.36</ele>
        <time>2018-09-07T14:50:25Z</time>
      </trkpt>
      <trkpt lat="47.64099" lon="6.1998">
        <ele>370.3</ele>
        <time>2018-09-07T14:50:27Z</time>
      </trkpt>
      <trkpt lat="47.64102" lon="6.19973">
        <ele>370.25</ele>
        <time>2018-09-07T14:50:29Z</time>
      </trkpt>
      <trkpt lat="47.64104" lon="6.19967">
        <ele>370.19</ele>
        <time>2018-09-07T14:50:31Z</time>
      </trkpt>
      <trkpt lat="47.64107" lon="6.1996">
        <ele>369.96</ele>
        <time>2018-09-07T14:50:33Z</time>
      </trkpt>
      <trkpt lat="47.64113" lon="6.19953">
        <ele>369.54</ele>
        <time>2018-09-07T14:50:35Z</time>
      </trkpt>
      <trkpt lat="47.64119" lon="6.19947">
        <ele>369.22</ele>
        <time>2018-09-07T14:50:37Z</time>
      </trkpt>
      <trkpt lat="47.64125" lon="6.19939">
        <ele>368.99</ele>
        <time>2018-09-07T14:50:39Z</time>
      </trkpt>
      <trkpt lat="47.64129" lon="6.19935">
        <ele>368.89</ele>
        <time>2018-09-07T14:50:40Z</time>
      </trkpt>
      <trkpt lat="47.64142" lon="6.19918">
        <ele>368.73</ele>
        <time>2018-09-07T14:50:42Z</time>
      </trkpt>
      <trkpt lat="47.64147" lon="6.19908">
        <ele>368.6</ele>
        <time>2018-09-07T14:50:44Z</time>
      </trkpt>
      <trkpt lat="47.6415" lon="6.19903">
        <ele>368.53</ele>
        <time>2018-09-07T14:50:45Z</time>
      </trkpt>
      <trkpt lat="47.64153" lon="6.19898">
        <ele>368.47</ele>
        <time>2018-09-07T14:50:46Z</time>
      </trkpt>
      <trkpt lat="47.64156" lon="6.19892">
        <ele>368.41</ele>
        <time>2018-09-07T14:50:47Z</time>
      </trkpt>
      <trkpt lat="47.64161" lon="6.19882">
        <ele>368.29</ele>
        <time>2018-09-07T14:50:49Z</time>
      </trkpt>
      <trkpt lat="47.64166" lon="6.19873">
        <ele>368.18</ele>
        <time>2018-09-07T14:50:51Z</time>
      </trkpt>
      <trkpt lat="47.64173" lon="6.19866">
        <ele>368.07</ele>
        <time>2018-09-07T14:50:53Z</time>
      </trkpt>
      <trkpt lat="47.6418" lon="6.19862">
        <ele>368.04</ele>
        <time>2018-09-07T14:50:55Z</time>
      </trkpt>
      <trkpt lat="47.64185" lon="6.19859">
        <ele>368.02</ele>
        <time>2018-09-07T14:50:57Z</time>
      </trkpt>
      <trkpt lat="47.64191" lon="6.19856">
        <ele>368</ele>
        <time>2018-09-07T14:50:59Z</time>
      </trkpt>
      <trkpt lat="47.64195" lon="6.19853">
        <ele>367.98</ele>
        <time>2018-09-07T14:51:02Z</time>
      </trkpt>
      <trkpt lat="47.642" lon="6.19851">
        <ele>367.87</ele>
        <time>2018-09-07T14:51:31Z</time>
      </trkpt>
      <trkpt lat="47.64204" lon="6.19847">
        <ele>367.75</ele>
        <time>2018-09-07T14:51:36Z</time>
      </trkpt>
      <trkpt lat="47.64209" lon="6.19845">
        <ele>367.65</ele>
        <time>2018-09-07T14:51:40Z</time>
      </trkpt>
      <trkpt lat="47.64215" lon="6.19845">
        <ele>367.57</ele>
        <time>2018-09-07T14:51:43Z</time>
      </trkpt>
      <trkpt lat="47.6422" lon="6.19846">
        <ele>367.49</ele>
        <time>2018-09-07T14:51:46Z</time>
      </trkpt>
      <trkpt lat="47.64226" lon="6.19848">
        <ele>367.4</ele>
        <time>2018-09-07T14:51:49Z</time>
      </trkpt>
      <trkpt lat="47.64231" lon="6.1985">
        <ele>367.32</ele>
        <time>2018-09-07T14:51:52Z</time>
      </trkpt>
      <trkpt lat="47.64236" lon="6.19853">
        <ele>367.26</ele>
        <time>2018-09-07T14:51:54Z</time>
      </trkpt>
      <trkpt lat="47.64242" lon="6.19856">
        <ele>367.17</ele>
        <time>2018-09-07T14:51:57Z</time>
      </trkpt>
      <trkpt lat="47.64247" lon="6.19859">
        <ele>367.11</ele>
        <time>2018-09-07T14:51:59Z</time>
      </trkpt>
      <trkpt lat="47.64253" lon="6.19861">
        <ele>367.05</ele>
        <time>2018-09-07T14:52:01Z</time>
      </trkpt>
      <trkpt lat="47.64258" lon="6.19864">
        <ele>366.99</ele>
        <time>2018-09-07T14:52:03Z</time>
      </trkpt>
      <trkpt lat="47.64263" lon="6.19867">
        <ele>366.94</ele>
        <time>2018-09-07T14:52:05Z</time>
      </trkpt>
      <trkpt lat="47.64267" lon="6.1987">
        <ele>366.88</ele>
        <time>2018-09-07T14:52:07Z</time>
      </trkpt>
      <trkpt lat="47.64272" lon="6.19874">
        <ele>366.83</ele>
        <time>2018-09-07T14:52:09Z</time>
      </trkpt>
      <trkpt lat="47.64276" lon="6.19876">
        <ele>366.78</ele>
        <time>2018-09-07T14:52:11Z</time>
      </trkpt>
      <trkpt lat="47.64282" lon="6.19877">
        <ele>366.73</ele>
        <time>2018-09-07T14:52:13Z</time>
      </trkpt>
      <trkpt lat="47.64287" lon="6.19875">
        <ele>366.68</ele>
        <time>2018-09-07T14:52:15Z</time>
      </trkpt>
      <trkpt lat="47.64292" lon="6.19873">
        <ele>366.62</ele>
        <time>2018-09-07T14:52:17Z</time>
      </trkpt>
      <trkpt lat="47.64298" lon="6.19869">
        <ele>366.55</ele>
        <time>2018-09-07T14:52:20Z</time>
      </trkpt>
      <trkpt lat="47.64305" lon="6.19867">
        <ele>366.47</ele>
        <time>2018-09-07T14:52:23Z</time>
      </trkpt>
      <trkpt lat="47.6431" lon="6.19864">
        <ele>366.39</ele>
        <time>2018-09-07T14:52:26Z</time>
      </trkpt>
      <trkpt lat="47.64317" lon="6.19862">
        <ele>366.31</ele>
        <time>2018-09-07T14:52:29Z</time>
      </trkpt>
      <trkpt lat="47.64323" lon="6.19862">
        <ele>366.26</ele>
        <time>2018-09-07T14:52:31Z</time>
      </trkpt>
      <trkpt lat="47.6433" lon="6.19861">
        <ele>366.2</ele>
        <time>2018-09-07T14:52:33Z</time>
      </trkpt>
      <trkpt lat="47.64337" lon="6.19861">
        <ele>366.14</ele>
        <time>2018-09-07T14:52:35Z</time>
      </trkpt>
      <trkpt lat="47.64344" lon="6.19862">
        <ele>366.08</ele>
        <time>2018-09-07T14:52:37Z</time>
      </trkpt>
      <trkpt lat="47.64352" lon="6.19862">
        <ele>366.02</ele>
        <time>2018-09-07T14:52:39Z</time>
      </trkpt>
      <trkpt lat="47.64359" lon="6.19864">
        <ele>365.95</ele>
        <time>2018-09-07T14:52:41Z</time>
      </trkpt>
      <trkpt lat="47.64364" lon="6.19865">
        <ele>365.89</ele>
        <time>2018-09-07T14:52:43Z</time>
      </trkpt>
      <trkpt lat="47.64369" lon="6.19867">
        <ele>365.83</ele>
        <time>2018-09-07T14:52:45Z</time>
      </trkpt>
      <trkpt lat="47.64374" lon="6.19868">
        <ele>365.76</ele>
        <time>2018-09-07T14:52:47Z</time>
      </trkpt>
      <trkpt lat="47.6438" lon="6.1987">
        <ele>365.66</ele>
        <time>2018-09-07T14:52:50Z</time>
      </trkpt>
      <trkpt lat="47.64385" lon="6.19872">
        <ele>365.59</ele>
        <time>2018-09-07T14:52:52Z</time>
      </trkpt>
      <trkpt lat="47.6439" lon="6.19873">
        <ele>365.52</ele>
        <time>2018-09-07T14:52:54Z</time>
      </trkpt>
      <trkpt lat="47.64395" lon="6.19875">
        <ele>365.44</ele>
        <time>2018-09-07T14:52:56Z</time>
      </trkpt>
      <trkpt lat="47.64401" lon="6.19877">
        <ele>365.37</ele>
        <time>2018-09-07T14:52:58Z</time>
      </trkpt>
      <trkpt lat="47.64406" lon="6.19879">
        <ele>365.29</ele>
        <time>2018-09-07T14:53:00Z</time>
      </trkpt>
      <trkpt lat="47.64412" lon="6.19883">
        <ele>365.16</ele>
        <time>2018-09-07T14:53:03Z</time>
      </trkpt>
      <trkpt lat="47.64416" lon="6.19886">
        <ele>365.02</ele>
        <time>2018-09-07T14:53:06Z</time>
      </trkpt>
      <trkpt lat="47.64421" lon="6.19889">
        <ele>364.87</ele>
        <time>2018-09-07T14:53:09Z</time>
      </trkpt>
      <trkpt lat="47.64426" lon="6.19891">
        <ele>364.73</ele>
        <time>2018-09-07T14:53:12Z</time>
      </trkpt>
      <trkpt lat="47.6443" lon="6.19895">
        <ele>364.58</ele>
        <time>2018-09-07T14:53:15Z</time>
      </trkpt>
      <trkpt lat="47.64434" lon="6.19899">
        <ele>364.42</ele>
        <time>2018-09-07T14:53:18Z</time>
      </trkpt>
      <trkpt lat="47.6444" lon="6.19904">
        <ele>364.24</ele>
        <time>2018-09-07T14:53:21Z</time>
      </trkpt>
      <trkpt lat="47.64443" lon="6.19908">
        <ele>364.12</ele>
        <time>2018-09-07T14:53:23Z</time>
      </trkpt>
      <trkpt lat="47.64448" lon="6.19911">
        <ele>363.99</ele>
        <time>2018-09-07T14:53:25Z</time>
      </trkpt>
      <trkpt lat="47.64453" lon="6.19916">
        <ele>363.86</ele>
        <time>2018-09-07T14:53:27Z</time>
      </trkpt>
      <trkpt lat="47.64459" lon="6.1992">
        <ele>363.73</ele>
        <time>2018-09-07T14:53:29Z</time>
      </trkpt>
      <trkpt lat="47.64463" lon="6.19923">
        <ele>363.59</ele>
        <time>2018-09-07T14:53:31Z</time>
      </trkpt>
      <trkpt lat="47.64468" lon="6.19925">
        <ele>363.38</ele>
        <time>2018-09-07T14:53:34Z</time>
      </trkpt>
      <trkpt lat="47.64474" lon="6.19927">
        <ele>363.16</ele>
        <time>2018-09-07T14:53:37Z</time>
      </trkpt>
      <trkpt lat="47.64479" lon="6.19928">
        <ele>362.94</ele>
        <time>2018-09-07T14:53:40Z</time>
      </trkpt>
      <trkpt lat="47.64485" lon="6.19929">
        <ele>362.73</ele>
        <time>2018-09-07T14:53:43Z</time>
      </trkpt>
      <trkpt lat="47.64489" lon="6.19928">
        <ele>362.44</ele>
        <time>2018-09-07T14:53:47Z</time>
      </trkpt>
      <trkpt lat="47.64495" lon="6.19929">
        <ele>362.23</ele>
        <time>2018-09-07T14:53:50Z</time>
      </trkpt>
      <trkpt lat="47.645" lon="6.1993">
        <ele>362.09</ele>
        <time>2018-09-07T14:53:52Z</time>
      </trkpt>
      <trkpt lat="47.64507" lon="6.19929">
        <ele>361.95</ele>
        <time>2018-09-07T14:53:54Z</time>
      </trkpt>
      <trkpt lat="47.64513" lon="6.19925">
        <ele>361.81</ele>
        <time>2018-09-07T14:53:56Z</time>
      </trkpt>
      <trkpt lat="47.64519" lon="6.19921">
        <ele>361.68</ele>
        <time>2018-09-07T14:53:58Z</time>
      </trkpt>
      <trkpt lat="47.64525" lon="6.19914">
        <ele>361.54</ele>
        <time>2018-09-07T14:54:00Z</time>
      </trkpt>
      <trkpt lat="47.64531" lon="6.19905">
        <ele>361.4</ele>
        <time>2018-09-07T14:54:02Z</time>
      </trkpt>
      <trkpt lat="47.64536" lon="6.19896">
        <ele>361.27</ele>
        <time>2018-09-07T14:54:04Z</time>
      </trkpt>
      <trkpt lat="47.6454" lon="6.19887">
        <ele>361.14</ele>
        <time>2018-09-07T14:54:06Z</time>
      </trkpt>
      <trkpt lat="47.64544" lon="6.19878">
        <ele>361.02</ele>
        <time>2018-09-07T14:54:08Z</time>
      </trkpt>
      <trkpt lat="47.64546" lon="6.19871">
        <ele>360.9</ele>
        <time>2018-09-07T14:54:10Z</time>
      </trkpt>
      <trkpt lat="47.64547" lon="6.19863">
        <ele>360.78</ele>
        <time>2018-09-07T14:54:12Z</time>
      </trkpt>
      <trkpt lat="47.64548" lon="6.19854">
        <ele>360.67</ele>
        <time>2018-09-07T14:54:14Z</time>
      </trkpt>
      <trkpt lat="47.64548" lon="6.19846">
        <ele>360.55</ele>
        <time>2018-09-07T14:54:16Z</time>
      </trkpt>
      <trkpt lat="47.64549" lon="6.19838">
        <ele>360.44</ele>
        <time>2018-09-07T14:54:18Z</time>
      </trkpt>
      <trkpt lat="47.64549" lon="6.19829">
        <ele>360.32</ele>
        <time>2018-09-07T14:54:20Z</time>
      </trkpt>
      <trkpt lat="47.6455" lon="6.1982">
        <ele>360.21</ele>
        <time>2018-09-07T14:54:22Z</time>
      </trkpt>
      <trkpt lat="47.64551" lon="6.19811">
        <ele>360.09</ele>
        <time>2018-09-07T14:54:24Z</time>
      </trkpt>
      <trkpt lat="47.64552" lon="6.19803">
        <ele>359.97</ele>
        <time>2018-09-07T14:54:26Z</time>
      </trkpt>
      <trkpt lat="47.64554" lon="6.19794">
        <ele>359.84</ele>
        <time>2018-09-07T14:54:28Z</time>
      </trkpt>
      <trkpt lat="47.64555" lon="6.19783">
        <ele>359.7</ele>
        <time>2018-09-07T14:54:30Z</time>
      </trkpt>
      <trkpt lat="47.64555" lon="6.19773">
        <ele>359.56</ele>
        <time>2018-09-07T14:54:32Z</time>
      </trkpt>
      <trkpt lat="47.64555" lon="6.19764">
        <ele>359.43</ele>
        <time>2018-09-07T14:54:34Z</time>
      </trkpt>
      <trkpt lat="47.64556" lon="6.19756">
        <ele>359.29</ele>
        <time>2018-09-07T14:54:36Z</time>
      </trkpt>
      <trkpt lat="47.64556" lon="6.19749">
        <ele>359.16</ele>
        <time>2018-09-07T14:54:38Z</time>
      </trkpt>
      <trkpt lat="47.64556" lon="6.19741">
        <ele>359.04</ele>
        <time>2018-09-07T14:54:40Z</time>
      </trkpt>
      <trkpt lat="47.64556" lon="6.19731">
        <ele>358.91</ele>
        <time>2018-09-07T14:54:42Z</time>
      </trkpt>
      <trkpt lat="47.64555" lon="6.19719">
        <ele>358.79</ele>
        <time>2018-09-07T14:54:44Z</time>
      </trkpt>
      <trkpt lat="47.64554" lon="6.19707">
        <ele>358.17</ele>
        <time>2018-09-07T14:54:46Z</time>
      </trkpt>
      <trkpt lat="47.64554" lon="6.19697">
        <ele>358.02</ele>
        <time>2018-09-07T14:54:48Z</time>
      </trkpt>
      <trkpt lat="47.64553" lon="6.19687">
        <ele>357.92</ele>
        <time>2018-09-07T14:54:50Z</time>
      </trkpt>
      <trkpt lat="47.64552" lon="6.19678">
        <ele>357.83</ele>
        <time>2018-09-07T14:54:52Z</time>
      </trkpt>
      <trkpt lat="47.64551" lon="6.19669">
        <ele>357.73</ele>
        <time>2018-09-07T14:54:54Z</time>
      </trkpt>
      <trkpt lat="47.6455" lon="6.1966">
        <ele>357.64</ele>
        <time>2018-09-07T14:54:56Z</time>
      </trkpt>
      <trkpt lat="47.64548" lon="6.1965">
        <ele>357.55</ele>
        <time>2018-09-07T14:54:58Z</time>
      </trkpt>
      <trkpt lat="47.64546" lon="6.19639">
        <ele>357.45</ele>
        <time>2018-09-07T14:55:00Z</time>
      </trkpt>
      <trkpt lat="47.64545" lon="6.19627">
        <ele>357.35</ele>
        <time>2018-09-07T14:55:02Z</time>
      </trkpt>
      <trkpt lat="47.64543" lon="6.19616">
        <ele>357.26</ele>
        <time>2018-09-07T14:55:04Z</time>
      </trkpt>
      <trkpt lat="47.64541" lon="6.19603">
        <ele>357.16</ele>
        <time>2018-09-07T14:55:06Z</time>
      </trkpt>
      <trkpt lat="47.64539" lon="6.19593">
        <ele>357.07</ele>
        <time>2018-09-07T14:55:08Z</time>
      </trkpt>
      <trkpt lat="47.64538" lon="6.19583">
        <ele>356.98</ele>
        <time>2018-09-07T14:55:10Z</time>
      </trkpt>
      <trkpt lat="47.64537" lon="6.19573">
        <ele>356.89</ele>
        <time>2018-09-07T14:55:12Z</time>
      </trkpt>
      <trkpt lat="47.64536" lon="6.19565">
        <ele>356.8</ele>
        <time>2018-09-07T14:55:14Z</time>
      </trkpt>
      <trkpt lat="47.64535" lon="6.19556">
        <ele>356.71</ele>
        <time>2018-09-07T14:55:16Z</time>
      </trkpt>
      <trkpt lat="47.64534" lon="6.19548">
        <ele>356.63</ele>
        <time>2018-09-07T14:55:18Z</time>
      </trkpt>
      <trkpt lat="47.64533" lon="6.19539">
        <ele>356.54</ele>
        <time>2018-09-07T14:55:20Z</time>
      </trkpt>
      <trkpt lat="47.64532" lon="6.19531">
        <ele>356.46</ele>
        <time>2018-09-07T14:55:22Z</time>
      </trkpt>
      <trkpt lat="47.64531" lon="6.19523">
        <ele>356.38</ele>
        <time>2018-09-07T14:55:24Z</time>
      </trkpt>
      <trkpt lat="47.6453" lon="6.19515">
        <ele>356.29</ele>
        <time>2018-09-07T14:55:26Z</time>
      </trkpt>
      <trkpt lat="47.64528" lon="6.19506">
        <ele>356.21</ele>
        <time>2018-09-07T14:55:28Z</time>
      </trkpt>
      <trkpt lat="47.64526" lon="6.19496">
        <ele>356.14</ele>
        <time>2018-09-07T14:55:30Z</time>
      </trkpt>
      <trkpt lat="47.64525" lon="6.19484">
        <ele>356.06</ele>
        <time>2018-09-07T14:55:32Z</time>
      </trkpt>
      <trkpt lat="47.64524" lon="6.19473">
        <ele>355.99</ele>
        <time>2018-09-07T14:55:34Z</time>
      </trkpt>
      <trkpt lat="47.64523" lon="6.19463">
        <ele>355.91</ele>
        <time>2018-09-07T14:55:36Z</time>
      </trkpt>
      <trkpt lat="47.64522" lon="6.19453">
        <ele>355.84</ele>
        <time>2018-09-07T14:55:38Z</time>
      </trkpt>
      <trkpt lat="47.64521" lon="6.19442">
        <ele>355.77</ele>
        <time>2018-09-07T14:55:40Z</time>
      </trkpt>
      <trkpt lat="47.6452" lon="6.19432">
        <ele>355.7</ele>
        <time>2018-09-07T14:55:42Z</time>
      </trkpt>
      <trkpt lat="47.64519" lon="6.19421">
        <ele>355.63</ele>
        <time>2018-09-07T14:55:44Z</time>
      </trkpt>
      <trkpt lat="47.64518" lon="6.1941">
        <ele>355.56</ele>
        <time>2018-09-07T14:55:46Z</time>
      </trkpt>
      <trkpt lat="47.64517" lon="6.194">
        <ele>355.48</ele>
        <time>2018-09-07T14:55:48Z</time>
      </trkpt>
      <trkpt lat="47.64516" lon="6.1939">
        <ele>355.41</ele>
        <time>2018-09-07T14:55:50Z</time>
      </trkpt>
      <trkpt lat="47.64515" lon="6.1938">
        <ele>355.34</ele>
        <time>2018-09-07T14:55:52Z</time>
      </trkpt>
      <trkpt lat="47.64514" lon="6.1937">
        <ele>355.27</ele>
        <time>2018-09-07T14:55:54Z</time>
      </trkpt>
      <trkpt lat="47.64513" lon="6.1936">
        <ele>355.2</ele>
        <time>2018-09-07T14:55:56Z</time>
      </trkpt>
      <trkpt lat="47.64512" lon="6.1935">
        <ele>355.13</ele>
        <time>2018-09-07T14:55:58Z</time>
      </trkpt>
      <trkpt lat="47.6451" lon="6.19341">
        <ele>355.06</ele>
        <time>2018-09-07T14:56:00Z</time>
      </trkpt>
      <trkpt lat="47.64509" lon="6.19332">
        <ele>354.99</ele>
        <time>2018-09-07T14:56:02Z</time>
      </trkpt>
      <trkpt lat="47.64507" lon="6.19323">
        <ele>354.92</ele>
        <time>2018-09-07T14:56:04Z</time>
      </trkpt>
      <trkpt lat="47.64506" lon="6.19315">
        <ele>354.85</ele>
        <time>2018-09-07T14:56:06Z</time>
      </trkpt>
      <trkpt lat="47.64505" lon="6.19308">
        <ele>354.78</ele>
        <time>2018-09-07T14:56:08Z</time>
      </trkpt>
      <trkpt lat="47.64504" lon="6.19298">
        <ele>354.67</ele>
        <time>2018-09-07T14:56:11Z</time>
      </trkpt>
      <trkpt lat="47.64503" lon="6.19292">
        <ele>354.61</ele>
        <time>2018-09-07T14:56:13Z</time>
      </trkpt>
      <trkpt lat="47.64502" lon="6.19284">
        <ele>354.52</ele>
        <time>2018-09-07T14:56:15Z</time>
      </trkpt>
      <trkpt lat="47.64501" lon="6.19275">
        <ele>354.41</ele>
        <time>2018-09-07T14:56:17Z</time>
      </trkpt>
      <trkpt lat="47.64499" lon="6.19266">
        <ele>354.28</ele>
        <time>2018-09-07T14:56:19Z</time>
      </trkpt>
      <trkpt lat="47.64498" lon="6.19256">
        <ele>354.12</ele>
        <time>2018-09-07T14:56:21Z</time>
      </trkpt>
      <trkpt lat="47.64496" lon="6.19245">
        <ele>353.93</ele>
        <time>2018-09-07T14:56:23Z</time>
      </trkpt>
      <trkpt lat="47.64494" lon="6.19235">
        <ele>353.66</ele>
        <time>2018-09-07T14:56:25Z</time>
      </trkpt>
      <trkpt lat="47.64492" lon="6.19225">
        <ele>353.3</ele>
        <time>2018-09-07T14:56:27Z</time>
      </trkpt>
      <trkpt lat="47.64491" lon="6.19215">
        <ele>352.91</ele>
        <time>2018-09-07T14:56:29Z</time>
      </trkpt>
      <trkpt lat="47.6449" lon="6.19207">
        <ele>352.5</ele>
        <time>2018-09-07T14:56:31Z</time>
      </trkpt>
      <trkpt lat="47.6449" lon="6.19199">
        <ele>352.05</ele>
        <time>2018-09-07T14:56:33Z</time>
      </trkpt>
      <trkpt lat="47.64489" lon="6.19191">
        <ele>351.56</ele>
        <time>2018-09-07T14:56:35Z</time>
      </trkpt>
      <trkpt lat="47.64489" lon="6.19183">
        <ele>351.04</ele>
        <time>2018-09-07T14:56:37Z</time>
      </trkpt>
      <trkpt lat="47.64488" lon="6.19174">
        <ele>350.51</ele>
        <time>2018-09-07T14:56:39Z</time>
      </trkpt>
      <trkpt lat="47.64487" lon="6.19166">
        <ele>349.93</ele>
        <time>2018-09-07T14:56:41Z</time>
      </trkpt>
      <trkpt lat="47.64485" lon="6.19157">
        <ele>349.34</ele>
        <time>2018-09-07T14:56:43Z</time>
      </trkpt>
      <trkpt lat="47.64483" lon="6.19149">
        <ele>348.73</ele>
        <time>2018-09-07T14:56:45Z</time>
      </trkpt>
      <trkpt lat="47.64482" lon="6.19141">
        <ele>348.11</ele>
        <time>2018-09-07T14:56:47Z</time>
      </trkpt>
      <trkpt lat="47.64482" lon="6.19133">
        <ele>347.47</ele>
        <time>2018-09-07T14:56:49Z</time>
      </trkpt>
      <trkpt lat="47.64481" lon="6.19126">
        <ele>346.81</ele>
        <time>2018-09-07T14:56:51Z</time>
      </trkpt>
      <trkpt lat="47.64481" lon="6.19116">
        <ele>345.81</ele>
        <time>2018-09-07T14:56:54Z</time>
      </trkpt>
      <trkpt lat="47.6448" lon="6.19108">
        <ele>345.13</ele>
        <time>2018-09-07T14:56:56Z</time>
      </trkpt>
      <trkpt lat="47.6448" lon="6.19101">
        <ele>344.46</ele>
        <time>2018-09-07T14:56:58Z</time>
      </trkpt>
      <trkpt lat="47.6448" lon="6.19092">
        <ele>343.78</ele>
        <time>2018-09-07T14:57:00Z</time>
      </trkpt>
      <trkpt lat="47.6448" lon="6.19083">
        <ele>343.09</ele>
        <time>2018-09-07T14:57:02Z</time>
      </trkpt>
      <trkpt lat="47.64479" lon="6.19075">
        <ele>342.41</ele>
        <time>2018-09-07T14:57:04Z</time>
      </trkpt>
      <trkpt lat="47.64478" lon="6.19066">
        <ele>341.73</ele>
        <time>2018-09-07T14:57:06Z</time>
      </trkpt>
      <trkpt lat="47.64477" lon="6.19059">
        <ele>341.06</ele>
        <time>2018-09-07T14:57:08Z</time>
      </trkpt>
      <trkpt lat="47.64475" lon="6.19052">
        <ele>340.4</ele>
        <time>2018-09-07T14:57:10Z</time>
      </trkpt>
      <trkpt lat="47.64473" lon="6.19044">
        <ele>339.42</ele>
        <time>2018-09-07T14:57:13Z</time>
      </trkpt>
      <trkpt lat="47.6447" lon="6.19034">
        <ele>338.37</ele>
        <time>2018-09-07T14:57:16Z</time>
      </trkpt>
      <trkpt lat="47.64469" lon="6.19028">
        <ele>337.65</ele>
        <time>2018-09-07T14:57:18Z</time>
      </trkpt>
      <trkpt lat="47.64468" lon="6.19018">
        <ele>336.58</ele>
        <time>2018-09-07T14:57:21Z</time>
      </trkpt>
      <trkpt lat="47.64467" lon="6.1901">
        <ele>335.5</ele>
        <time>2018-09-07T14:57:24Z</time>
      </trkpt>
      <trkpt lat="47.64467" lon="6.19001">
        <ele>334.38</ele>
        <time>2018-09-07T14:57:27Z</time>
      </trkpt>
      <trkpt lat="47.64466" lon="6.18993">
        <ele>333.2</ele>
        <time>2018-09-07T14:57:30Z</time>
      </trkpt>
      <trkpt lat="47.64465" lon="6.18986">
        <ele>332.48</ele>
        <time>2018-09-07T14:57:34Z</time>
      </trkpt>
      <trkpt lat="47.64465" lon="6.18979">
        <ele>330.37</ele>
        <time>2018-09-07T14:57:43Z</time>
      </trkpt>
      <trkpt lat="47.64463" lon="6.1897">
        <ele>328.37</ele>
        <time>2018-09-07T14:57:47Z</time>
      </trkpt>
      <trkpt lat="47.64462" lon="6.18961">
        <ele>327.39</ele>
        <time>2018-09-07T14:57:49Z</time>
      </trkpt>
      <trkpt lat="47.64461" lon="6.18953">
        <ele>326.45</ele>
        <time>2018-09-07T14:57:51Z</time>
      </trkpt>
      <trkpt lat="47.6446" lon="6.18944">
        <ele>325.53</ele>
        <time>2018-09-07T14:57:53Z</time>
      </trkpt>
      <trkpt lat="47.64459" lon="6.18936">
        <ele>324.63</ele>
        <time>2018-09-07T14:57:55Z</time>
      </trkpt>
      <trkpt lat="47.64457" lon="6.18929">
        <ele>323.73</ele>
        <time>2018-09-07T14:57:57Z</time>
      </trkpt>
      <trkpt lat="47.64455" lon="6.18922">
        <ele>322.81</ele>
        <time>2018-09-07T14:57:59Z</time>
      </trkpt>
      <trkpt lat="47.64451" lon="6.18916">
        <ele>321.85</ele>
        <time>2018-09-07T14:58:01Z</time>
      </trkpt>
      <trkpt lat="47.64445" lon="6.18907">
        <ele>320.87</ele>
        <time>2018-09-07T14:58:03Z</time>
      </trkpt>
      <trkpt lat="47.64438" lon="6.18898">
        <ele>319.87</ele>
        <time>2018-09-07T14:58:05Z</time>
      </trkpt>
      <trkpt lat="47.64433" lon="6.18891">
        <ele>318.86</ele>
        <time>2018-09-07T14:58:07Z</time>
      </trkpt>
      <trkpt lat="47.64427" lon="6.18884">
        <ele>317.87</ele>
        <time>2018-09-07T14:58:09Z</time>
      </trkpt>
      <trkpt lat="47.6442" lon="6.18878">
        <ele>316.87</ele>
        <time>2018-09-07T14:58:11Z</time>
      </trkpt>
      <trkpt lat="47.64416" lon="6.18875">
        <ele>316.38</ele>
        <time>2018-09-07T14:58:12Z</time>
      </trkpt>
      <trkpt lat="47.64409" lon="6.1887">
        <ele>315.4</ele>
        <time>2018-09-07T14:58:14Z</time>
      </trkpt>
      <trkpt lat="47.64402" lon="6.18864">
        <ele>314.43</ele>
        <time>2018-09-07T14:58:16Z</time>
      </trkpt>
      <trkpt lat="47.64394" lon="6.18859">
        <ele>313.46</ele>
        <time>2018-09-07T14:58:18Z</time>
      </trkpt>
      <trkpt lat="47.64387" lon="6.18853">
        <ele>312.51</ele>
        <time>2018-09-07T14:58:20Z</time>
      </trkpt>
      <trkpt lat="47.6438" lon="6.18848">
        <ele>311.56</ele>
        <time>2018-09-07T14:58:22Z</time>
      </trkpt>
      <trkpt lat="47.64374" lon="6.18842">
        <ele>310.62</ele>
        <time>2018-09-07T14:58:24Z</time>
      </trkpt>
      <trkpt lat="47.64369" lon="6.18837">
        <ele>309.7</ele>
        <time>2018-09-07T14:58:26Z</time>
      </trkpt>
      <trkpt lat="47.64365" lon="6.18832">
        <ele>308.79</ele>
        <time>2018-09-07T14:58:28Z</time>
      </trkpt>
      <trkpt lat="47.6436" lon="6.18826">
        <ele>307.45</ele>
        <time>2018-09-07T14:58:31Z</time>
      </trkpt>
      <trkpt lat="47.64356" lon="6.1882">
        <ele>306.14</ele>
        <time>2018-09-07T14:58:34Z</time>
      </trkpt>
      <trkpt lat="47.64352" lon="6.18814">
        <ele>304.87</ele>
        <time>2018-09-07T14:58:37Z</time>
      </trkpt>
      <trkpt lat="47.64349" lon="6.18807">
        <ele>303.65</ele>
        <time>2018-09-07T14:58:40Z</time>
      </trkpt>
      <trkpt lat="47.64345" lon="6.18804">
        <ele>300.11</ele>
        <time>2018-09-07T14:58:58Z</time>
      </trkpt>
      <trkpt lat="47.64341" lon="6.18799">
        <ele>298.36</ele>
        <time>2018-09-07T14:59:04Z</time>
      </trkpt>
      <trkpt lat="47.64337" lon="6.18793">
        <ele>296.95</ele>
        <time>2018-09-07T14:59:08Z</time>
      </trkpt>
      <trkpt lat="47.64333" lon="6.1879">
        <ele>295.3</ele>
        <time>2018-09-07T14:59:13Z</time>
      </trkpt>
      <trkpt lat="47.64331" lon="6.18783">
        <ele>293.03</ele>
        <time>2018-09-07T14:59:25Z</time>
      </trkpt>
      <trkpt lat="47.64328" lon="6.18775">
        <ele>292.19</ele>
        <time>2018-09-07T14:59:28Z</time>
      </trkpt>
      <trkpt lat="47.64324" lon="6.18769">
        <ele>291.64</ele>
        <time>2018-09-07T14:59:30Z</time>
      </trkpt>
      <trkpt lat="47.64319" lon="6.18762">
        <ele>291.12</ele>
        <time>2018-09-07T14:59:32Z</time>
      </trkpt>
      <trkpt lat="47.64314" lon="6.18757">
        <ele>290.6</ele>
        <time>2018-09-07T14:59:34Z</time>
      </trkpt>
      <trkpt lat="47.64308" lon="6.1875">
        <ele>290.11</ele>
        <time>2018-09-07T14:59:36Z</time>
      </trkpt>
      <trkpt lat="47.64302" lon="6.18743">
        <ele>289.63</ele>
        <time>2018-09-07T14:59:38Z</time>
      </trkpt>
      <trkpt lat="47.64297" lon="6.18736">
        <ele>289.16</ele>
        <time>2018-09-07T14:59:40Z</time>
      </trkpt>
      <trkpt lat="47.64291" lon="6.1873">
        <ele>288.71</ele>
        <time>2018-09-07T14:59:42Z</time>
      </trkpt>
      <trkpt lat="47.64285" lon="6.18724">
        <ele>288.27</ele>
        <time>2018-09-07T14:59:44Z</time>
      </trkpt>
      <trkpt lat="47.64279" lon="6.18718">
        <ele>287.85</ele>
        <time>2018-09-07T14:59:46Z</time>
      </trkpt>
      <trkpt lat="47.64274" lon="6.18712">
        <ele>287.45</ele>
        <time>2018-09-07T14:59:48Z</time>
      </trkpt>
      <trkpt lat="47.64268" lon="6.18706">
        <ele>287.06</ele>
        <time>2018-09-07T14:59:50Z</time>
      </trkpt>
      <trkpt lat="47.64263" lon="6.187">
        <ele>286.68</ele>
        <time>2018-09-07T14:59:52Z</time>
      </trkpt>
      <trkpt lat="47.64258" lon="6.18695">
        <ele>286.31</ele>
        <time>2018-09-07T14:59:54Z</time>
      </trkpt>
      <trkpt lat="47.64253" lon="6.1869">
        <ele>284.85</ele>
        <time>2018-09-07T14:59:56Z</time>
      </trkpt>
      <trkpt lat="47.64248" lon="6.18684">
        <ele>282.25</ele>
        <time>2018-09-07T14:59:58Z</time>
      </trkpt>
      <trkpt lat="47.64242" lon="6.18676">
        <ele>280.41</ele>
        <time>2018-09-07T15:00:00Z</time>
      </trkpt>
      <trkpt lat="47.64236" lon="6.18669">
        <ele>279.2</ele>
        <time>2018-09-07T15:00:02Z</time>
      </trkpt>
      <trkpt lat="47.64228" lon="6.18658">
        <ele>279.01</ele>
        <time>2018-09-07T15:00:03Z</time>
      </trkpt>
      <trkpt lat="47.64223" lon="6.1865">
        <ele>278.35</ele>
        <time>2018-09-07T15:00:05Z</time>
      </trkpt>
      <trkpt lat="47.64217" lon="6.18642">
        <ele>277.84</ele>
        <time>2018-09-07T15:00:07Z</time>
      </trkpt>
      <trkpt lat="47.64211" lon="6.18634">
        <ele>277.46</ele>
        <time>2018-09-07T15:00:09Z</time>
      </trkpt>
      <trkpt lat="47.64205" lon="6.18625">
        <ele>277.18</ele>
        <time>2018-09-07T15:00:11Z</time>
      </trkpt>
      <trkpt lat="47.642" lon="6.18617">
        <ele>276.97</ele>
        <time>2018-09-07T15:00:13Z</time>
      </trkpt>
      <trkpt lat="47.64195" lon="6.18608">
        <ele>276.77</ele>
        <time>2018-09-07T15:00:15Z</time>
      </trkpt>
      <trkpt lat="47.64191" lon="6.18602">
        <ele>276.72</ele>
        <time>2018-09-07T15:00:17Z</time>
      </trkpt>
      <trkpt lat="47.64188" lon="6.18596">
        <ele>276.63</ele>
        <time>2018-09-07T15:00:36Z</time>
      </trkpt>
      <trkpt lat="47.64185" lon="6.18591">
        <ele>276.35</ele>
        <time>2018-09-07T15:00:53Z</time>
      </trkpt>
      <trkpt lat="47.64181" lon="6.18585">
        <ele>276.24</ele>
        <time>2018-09-07T15:00:56Z</time>
      </trkpt>
      <trkpt lat="47.64177" lon="6.18579">
        <ele>276.16</ele>
        <time>2018-09-07T15:00:58Z</time>
      </trkpt>
      <trkpt lat="47.64173" lon="6.18572">
        <ele>276.09</ele>
        <time>2018-09-07T15:01:00Z</time>
      </trkpt>
      <trkpt lat="47.64168" lon="6.18564">
        <ele>275.55</ele>
        <time>2018-09-07T15:01:02Z</time>
      </trkpt>
      <trkpt lat="47.64163" lon="6.18556">
        <ele>275.09</ele>
        <time>2018-09-07T15:01:04Z</time>
      </trkpt>
      <trkpt lat="47.64151" lon="6.18538">
        <ele>274.76</ele>
        <time>2018-09-07T15:01:06Z</time>
      </trkpt>
      <trkpt lat="47.64148" lon="6.18533">
        <ele>274.62</ele>
        <time>2018-09-07T15:01:07Z</time>
      </trkpt>
      <trkpt lat="47.64144" lon="6.18528">
        <ele>274.51</ele>
        <time>2018-09-07T15:01:08Z</time>
      </trkpt>
      <trkpt lat="47.64141" lon="6.18523">
        <ele>274.41</ele>
        <time>2018-09-07T15:01:09Z</time>
      </trkpt>
      <trkpt lat="47.64137" lon="6.18518">
        <ele>274.33</ele>
        <time>2018-09-07T15:01:10Z</time>
      </trkpt>
      <trkpt lat="47.64133" lon="6.18514">
        <ele>274.26</ele>
        <time>2018-09-07T15:01:11Z</time>
      </trkpt>
      <trkpt lat="47.64129" lon="6.18509">
        <ele>274.2</ele>
        <time>2018-09-07T15:01:12Z</time>
      </trkpt>
      <trkpt lat="47.64125" lon="6.18504">
        <ele>274.14</ele>
        <time>2018-09-07T15:01:13Z</time>
      </trkpt>
      <trkpt lat="47.6412" lon="6.185">
        <ele>274.09</ele>
        <time>2018-09-07T15:01:14Z</time>
      </trkpt>
      <trkpt lat="47.64116" lon="6.18496">
        <ele>274.05</ele>
        <time>2018-09-07T15:01:15Z</time>
      </trkpt>
      <trkpt lat="47.64111" lon="6.18491">
        <ele>274</ele>
        <time>2018-09-07T15:01:16Z</time>
      </trkpt>
      <trkpt lat="47.64106" lon="6.18486">
        <ele>273.96</ele>
        <time>2018-09-07T15:01:17Z</time>
      </trkpt>
      <trkpt lat="47.641" lon="6.18481">
        <ele>273.9</ele>
        <time>2018-09-07T15:01:18Z</time>
      </trkpt>
      <trkpt lat="47.64095" lon="6.18477">
        <ele>273.83</ele>
        <time>2018-09-07T15:01:19Z</time>
      </trkpt>
      <trkpt lat="47.64089" lon="6.18472">
        <ele>273.76</ele>
        <time>2018-09-07T15:01:20Z</time>
      </trkpt>
      <trkpt lat="47.64084" lon="6.18467">
        <ele>273.67</ele>
        <time>2018-09-07T15:01:21Z</time>
      </trkpt>
      <trkpt lat="47.64078" lon="6.18463">
        <ele>273.56</ele>
        <time>2018-09-07T15:01:22Z</time>
      </trkpt>
      <trkpt lat="47.64072" lon="6.18458">
        <ele>273.45</ele>
        <time>2018-09-07T15:01:23Z</time>
      </trkpt>
      <trkpt lat="47.64066" lon="6.18453">
        <ele>273.33</ele>
        <time>2018-09-07T15:01:24Z</time>
      </trkpt>
      <trkpt lat="47.6406" lon="6.18449">
        <ele>273.2</ele>
        <time>2018-09-07T15:01:25Z</time>
      </trkpt>
      <trkpt lat="47.64054" lon="6.18443">
        <ele>273.07</ele>
        <time>2018-09-07T15:01:26Z</time>
      </trkpt>
      <trkpt lat="47.64048" lon="6.18438">
        <ele>272.91</ele>
        <time>2018-09-07T15:01:27Z</time>
      </trkpt>
      <trkpt lat="47.64041" lon="6.18433">
        <ele>272.72</ele>
        <time>2018-09-07T15:01:28Z</time>
      </trkpt>
      <trkpt lat="47.64035" lon="6.18427">
        <ele>272.53</ele>
        <time>2018-09-07T15:01:29Z</time>
      </trkpt>
      <trkpt lat="47.64029" lon="6.18422">
        <ele>272.34</ele>
        <time>2018-09-07T15:01:30Z</time>
      </trkpt>
      <trkpt lat="47.64023" lon="6.18417">
        <ele>272.18</ele>
        <time>2018-09-07T15:01:31Z</time>
      </trkpt>
      <trkpt lat="47.64017" lon="6.18413">
        <ele>272.06</ele>
        <time>2018-09-07T15:01:32Z</time>
      </trkpt>
      <trkpt lat="47.64012" lon="6.18409">
        <ele>271.97</ele>
        <time>2018-09-07T15:01:33Z</time>
      </trkpt>
      <trkpt lat="47.64007" lon="6.18405">
        <ele>271.86</ele>
        <time>2018-09-07T15:01:34Z</time>
      </trkpt>
      <trkpt lat="47.64003" lon="6.18401">
        <ele>271.76</ele>
        <time>2018-09-07T15:01:35Z</time>
      </trkpt>
      <trkpt lat="47.63998" lon="6.18397">
        <ele>271.7</ele>
        <time>2018-09-07T15:01:37Z</time>
      </trkpt>
      <trkpt lat="47.63998" lon="6.1839">
        <ele>271.64</ele>
        <time>2018-09-07T15:01:40Z</time>
      </trkpt>
      <trkpt lat="47.64004" lon="6.18387">
        <ele>271.52</ele>
        <time>2018-09-07T15:01:43Z</time>
      </trkpt>
      <trkpt lat="47.64008" lon="6.18387">
        <ele>271.41</ele>
        <time>2018-09-07T15:01:45Z</time>
      </trkpt>
      <trkpt lat="47.64013" lon="6.18389">
        <ele>271.26</ele>
        <time>2018-09-07T15:01:47Z</time>
      </trkpt>
      <trkpt lat="47.64018" lon="6.1839">
        <ele>271.12</ele>
        <time>2018-09-07T15:01:49Z</time>
      </trkpt>
      <trkpt lat="47.64025" lon="6.18391">
        <ele>270.96</ele>
        <time>2018-09-07T15:01:51Z</time>
      </trkpt>
      <trkpt lat="47.64032" lon="6.18393">
        <ele>270.81</ele>
        <time>2018-09-07T15:01:53Z</time>
      </trkpt>
      <trkpt lat="47.64047" lon="6.18396">
        <ele>270.04</ele>
        <time>2018-09-07T15:01:55Z</time>
      </trkpt>
      <trkpt lat="47.64055" lon="6.18397">
        <ele>268.6</ele>
        <time>2018-09-07T15:01:57Z</time>
      </trkpt>
      <trkpt lat="47.6406" lon="6.18397">
        <ele>267.89</ele>
        <time>2018-09-07T15:01:58Z</time>
      </trkpt>
      <trkpt lat="47.64065" lon="6.18395">
        <ele>267.09</ele>
        <time>2018-09-07T15:01:59Z</time>
      </trkpt>
      <trkpt lat="47.64072" lon="6.18389">
        <ele>266.32</ele>
        <time>2018-09-07T15:02:00Z</time>
      </trkpt>
      <trkpt lat="47.64078" lon="6.18382">
        <ele>265.61</ele>
        <time>2018-09-07T15:02:01Z</time>
      </trkpt>
      <trkpt lat="47.64085" lon="6.18375">
        <ele>265.05</ele>
        <time>2018-09-07T15:02:02Z</time>
      </trkpt>
      <trkpt lat="47.6409" lon="6.18368">
        <ele>264.62</ele>
        <time>2018-09-07T15:02:03Z</time>
      </trkpt>
      <trkpt lat="47.64096" lon="6.18363">
        <ele>264.26</ele>
        <time>2018-09-07T15:02:04Z</time>
      </trkpt>
      <trkpt lat="47.64102" lon="6.1836">
        <ele>264.02</ele>
        <time>2018-09-07T15:02:05Z</time>
      </trkpt>
      <trkpt lat="47.64108" lon="6.18359">
        <ele>263.8</ele>
        <time>2018-09-07T15:02:06Z</time>
      </trkpt>
      <trkpt lat="47.64114" lon="6.18357">
        <ele>263.64</ele>
        <time>2018-09-07T15:02:07Z</time>
      </trkpt>
      <trkpt lat="47.64119" lon="6.18355">
        <ele>263.49</ele>
        <time>2018-09-07T15:02:08Z</time>
      </trkpt>
      <trkpt lat="47.64124" lon="6.18354">
        <ele>263.38</ele>
        <time>2018-09-07T15:02:09Z</time>
      </trkpt>
      <trkpt lat="47.64133" lon="6.18355">
        <ele>263.33</ele>
        <time>2018-09-07T15:02:11Z</time>
      </trkpt>
      <trkpt lat="47.64139" lon="6.18351">
        <ele>263.3</ele>
        <time>2018-09-07T15:02:14Z</time>
      </trkpt>
      <trkpt lat="47.6415" lon="6.18343">
        <ele>263.17</ele>
        <time>2018-09-07T15:02:16Z</time>
      </trkpt>
      <trkpt lat="47.64157" lon="6.18336">
        <ele>262.83</ele>
        <time>2018-09-07T15:02:18Z</time>
      </trkpt>
      <trkpt lat="47.64163" lon="6.18329">
        <ele>262.54</ele>
        <time>2018-09-07T15:02:20Z</time>
      </trkpt>
      <trkpt lat="47.6417" lon="6.18322">
        <ele>262.56</ele>
        <time>2018-09-07T15:02:22Z</time>
      </trkpt>
      <trkpt lat="47.64177" lon="6.18315">
        <ele>262.61</ele>
        <time>2018-09-07T15:02:24Z</time>
      </trkpt>
      <trkpt lat="47.6418" lon="6.18311">
        <ele>262.61</ele>
        <time>2018-09-07T15:02:25Z</time>
      </trkpt>
      <trkpt lat="47.64184" lon="6.18306">
        <ele>262.59</ele>
        <time>2018-09-07T15:02:26Z</time>
      </trkpt>
      <trkpt lat="47.64187" lon="6.18302">
        <ele>262.48</ele>
        <time>2018-09-07T15:02:27Z</time>
      </trkpt>
      <trkpt lat="47.64191" lon="6.18298">
        <ele>262.32</ele>
        <time>2018-09-07T15:02:28Z</time>
      </trkpt>
      <trkpt lat="47.64195" lon="6.18292">
        <ele>262</ele>
        <time>2018-09-07T15:02:29Z</time>
      </trkpt>
      <trkpt lat="47.64201" lon="6.18287">
        <ele>261.67</ele>
        <time>2018-09-07T15:02:30Z</time>
      </trkpt>
      <trkpt lat="47.64207" lon="6.18281">
        <ele>261.37</ele>
        <time>2018-09-07T15:02:31Z</time>
      </trkpt>
      <trkpt lat="47.64213" lon="6.18275">
        <ele>261.08</ele>
        <time>2018-09-07T15:02:32Z</time>
      </trkpt>
      <trkpt lat="47.64219" lon="6.18268">
        <ele>260.85</ele>
        <time>2018-09-07T15:02:33Z</time>
      </trkpt>
      <trkpt lat="47.64225" lon="6.1826">
        <ele>260.65</ele>
        <time>2018-09-07T15:02:34Z</time>
      </trkpt>
      <trkpt lat="47.64231" lon="6.18253">
        <ele>260.51</ele>
        <time>2018-09-07T15:02:35Z</time>
      </trkpt>
      <trkpt lat="47.64238" lon="6.18245">
        <ele>260.35</ele>
        <time>2018-09-07T15:02:36Z</time>
      </trkpt>
      <trkpt lat="47.64244" lon="6.18238">
        <ele>260.13</ele>
        <time>2018-09-07T15:02:37Z</time>
      </trkpt>
      <trkpt lat="47.64249" lon="6.18226">
        <ele>259.62</ele>
        <time>2018-09-07T15:02:38Z</time>
      </trkpt>
      <trkpt lat="47.64255" lon="6.18218">
        <ele>258.91</ele>
        <time>2018-09-07T15:02:39Z</time>
      </trkpt>
      <trkpt lat="47.64262" lon="6.18211">
        <ele>258.17</ele>
        <time>2018-09-07T15:02:40Z</time>
      </trkpt>
      <trkpt lat="47.64269" lon="6.18204">
        <ele>257.4</ele>
        <time>2018-09-07T15:02:41Z</time>
      </trkpt>
      <trkpt lat="47.64277" lon="6.182">
        <ele>256.61</ele>
        <time>2018-09-07T15:02:42Z</time>
      </trkpt>
      <trkpt lat="47.64285" lon="6.18197">
        <ele>255.83</ele>
        <time>2018-09-07T15:02:43Z</time>
      </trkpt>
      <trkpt lat="47.64292" lon="6.18194">
        <ele>255.2</ele>
        <time>2018-09-07T15:02:44Z</time>
      </trkpt>
      <trkpt lat="47.643" lon="6.18193">
        <ele>254.68</ele>
        <time>2018-09-07T15:02:45Z</time>
      </trkpt>
      <trkpt lat="47.64307" lon="6.18192">
        <ele>254.23</ele>
        <time>2018-09-07T15:02:46Z</time>
      </trkpt>
      <trkpt lat="47.64315" lon="6.1819">
        <ele>253.91</ele>
        <time>2018-09-07T15:02:47Z</time>
      </trkpt>
      <trkpt lat="47.64321" lon="6.18188">
        <ele>253.68</ele>
        <time>2018-09-07T15:02:48Z</time>
      </trkpt>
      <trkpt lat="47.64328" lon="6.18188">
        <ele>253.51</ele>
        <time>2018-09-07T15:02:49Z</time>
      </trkpt>
      <trkpt lat="47.64334" lon="6.1819">
        <ele>253.31</ele>
        <time>2018-09-07T15:02:50Z</time>
      </trkpt>
      <trkpt lat="47.64339" lon="6.18194">
        <ele>253.17</ele>
        <time>2018-09-07T15:02:51Z</time>
      </trkpt>
      <trkpt lat="47.64345" lon="6.18197">
        <ele>253.1</ele>
        <time>2018-09-07T15:02:52Z</time>
      </trkpt>
      <trkpt lat="47.6435" lon="6.18202">
        <ele>253.04</ele>
        <time>2018-09-07T15:02:53Z</time>
      </trkpt>
      <trkpt lat="47.64354" lon="6.18206">
        <ele>252.93</ele>
        <time>2018-09-07T15:02:54Z</time>
      </trkpt>
      <trkpt lat="47.64358" lon="6.18211">
        <ele>252.77</ele>
        <time>2018-09-07T15:02:55Z</time>
      </trkpt>
      <trkpt lat="47.64365" lon="6.18219">
        <ele>252.49</ele>
        <time>2018-09-07T15:02:57Z</time>
      </trkpt>
      <trkpt lat="47.64368" lon="6.18225">
        <ele>252.27</ele>
        <time>2018-09-07T15:02:58Z</time>
      </trkpt>
      <trkpt lat="47.64373" lon="6.1823">
        <ele>252.05</ele>
        <time>2018-09-07T15:02:59Z</time>
      </trkpt>
      <trkpt lat="47.64378" lon="6.18235">
        <ele>251.8</ele>
        <time>2018-09-07T15:03:00Z</time>
      </trkpt>
      <trkpt lat="47.64383" lon="6.1824">
        <ele>251.56</ele>
        <time>2018-09-07T15:03:01Z</time>
      </trkpt>
      <trkpt lat="47.64388" lon="6.18245">
        <ele>251.31</ele>
        <time>2018-09-07T15:03:02Z</time>
      </trkpt>
      <trkpt lat="47.64392" lon="6.1825">
        <ele>251.03</ele>
        <time>2018-09-07T15:03:03Z</time>
      </trkpt>
      <trkpt lat="47.64395" lon="6.18254">
        <ele>250.71</ele>
        <time>2018-09-07T15:03:04Z</time>
      </trkpt>
      <trkpt lat="47.64399" lon="6.18259">
        <ele>250.43</ele>
        <time>2018-09-07T15:03:05Z</time>
      </trkpt>
      <trkpt lat="47.64403" lon="6.18262">
        <ele>250.19</ele>
        <time>2018-09-07T15:03:06Z</time>
      </trkpt>
      <trkpt lat="47.64407" lon="6.18266">
        <ele>249.97</ele>
        <time>2018-09-07T15:03:07Z</time>
      </trkpt>
      <trkpt lat="47.64413" lon="6.18273">
        <ele>249.13</ele>
        <time>2018-09-07T15:03:09Z</time>
      </trkpt>
      <trkpt lat="47.64418" lon="6.18281">
        <ele>248.37</ele>
        <time>2018-09-07T15:03:11Z</time>
      </trkpt>
      <trkpt lat="47.64426" lon="6.18282">
        <ele>248.17</ele>
        <time>2018-09-07T15:03:13Z</time>
      </trkpt>
      <trkpt lat="47.64429" lon="6.18277">
        <ele>247.92</ele>
        <time>2018-09-07T15:03:16Z</time>
      </trkpt>
      <trkpt lat="47.6443" lon="6.18269">
        <ele>247.63</ele>
        <time>2018-09-07T15:03:19Z</time>
      </trkpt>
      <trkpt lat="47.64427" lon="6.18263">
        <ele>247.2</ele>
        <time>2018-09-07T15:03:23Z</time>
      </trkpt>
      <trkpt lat="47.64425" lon="6.1827">
        <ele>246.78</ele>
        <time>2018-09-07T15:03:27Z</time>
      </trkpt>
      <trkpt lat="47.64422" lon="6.18276">
        <ele>246.49</ele>
        <time>2018-09-07T15:03:30Z</time>
      </trkpt>
      <trkpt lat="47.6442" lon="6.18283">
        <ele>246.11</ele>
        <time>2018-09-07T15:03:34Z</time>
      </trkpt>
      <trkpt lat="47.64425" lon="6.1828">
        <ele>245.55</ele>
        <time>2018-09-07T15:03:40Z</time>
      </trkpt>
      <trkpt lat="47.64424" lon="6.18286">
        <ele>244.8</ele>
        <time>2018-09-07T15:03:48Z</time>
      </trkpt>
      <trkpt lat="47.64427" lon="6.18291">
        <ele>244.62</ele>
        <time>2018-09-07T15:03:50Z</time>
      </trkpt>
      <trkpt lat="47.64432" lon="6.18295">
        <ele>244.44</ele>
        <time>2018-09-07T15:03:52Z</time>
      </trkpt>
      <trkpt lat="47.64436" lon="6.18299">
        <ele>244.27</ele>
        <time>2018-09-07T15:03:54Z</time>
      </trkpt>
      <trkpt lat="47.6444" lon="6.18305">
        <ele>243.99</ele>
        <time>2018-09-07T15:03:57Z</time>
      </trkpt>
      <trkpt lat="47.64441" lon="6.18313">
        <ele>243.6</ele>
        <time>2018-09-07T15:04:01Z</time>
      </trkpt>
    </trkseg>
  </trk>
</gpx>